<?xml version="1.0" encoding="UTF-8" standalone="no" ?><gpx xmlns="http://www.topografix.com/GPX/1/1" xmlns:gpxx="http://www.garmin.com/xmlschemas/GpxExtensions/v3" xmlns:wptx1="http://www.garmin.com/xmlschemas/WaypointExtension/v1" xmlns:gpxtpx="http://www.garmin.com/xmlschemas/TrackPointExtension/v1" creator="GuideVTT.com" version="1.1" xmlns:xsi="http://www.w3.org/2001/XMLSchema-instance" xsi:schemaLocation="http://www.topografix.com/GPX/1/1 http://www.topografix.com/GPX/1/1/gpx.xsd http://www.garmin.com/xmlschemas/GpxExtensions/v3 http://www8.garmin.com/xmlschemas/GpxExtensionsv3.xsd http://www.garmin.com/xmlschemas/WaypointExtension/v1 http://www8.garmin.com/xmlschemas/WaypointExtensionv1.xsd http://www.garmin.com/xmlschemas/TrackPointExtension/v1 http://www.garmin.com/xmlschemas/TrackPointExtensionv1.xsd">
<metadata><link href="http://www.garmin.com"><text>Garmin International</text></link><time>2013-06-22T15:13:50Z</time></metadata>
<trk><name>vtt_2015-04-05_55c0bf686cc1ce63fa033138.gpx</name><extensions><gpxx:TrackExtension><gpxx:DisplayColor>Cyan</gpxx:DisplayColor></gpxx:TrackExtension></extensions><trkseg>
<trkpt lat="46.966011047363" lon="4.1391477584839"><ele>397</ele><time>2026-4-28T10:42:39Z</time></trkpt>
<trkpt lat="46.966011047363" lon="4.1391477584839"><ele>397</ele><time>2026-4-28T10:42:42Z</time></trkpt>
<trkpt lat="46.966011047363" lon="4.1391477584839"><ele>397</ele><time>2026-4-28T10:42:45Z</time></trkpt>
<trkpt lat="46.966011047363" lon="4.1391477584839"><ele>397</ele><time>2026-4-28T10:42:48Z</time></trkpt>
<trkpt lat="46.966011047363" lon="4.1391477584839"><ele>397</ele><time>2026-4-28T10:42:51Z</time></trkpt>
<trkpt lat="46.966011047363" lon="4.1391477584839"><ele>397</ele><time>2026-4-28T10:42:54Z</time></trkpt>
<trkpt lat="46.966011047363" lon="4.1391477584839"><ele>397</ele><time>2026-4-28T10:42:57Z</time></trkpt>
<trkpt lat="46.966011047363" lon="4.1391477584839"><ele>397</ele><time>2026-4-28T10:43:0Z</time></trkpt>
<trkpt lat="46.966011047363" lon="4.1391477584839"><ele>397</ele><time>2026-4-28T10:43:3Z</time></trkpt>
<trkpt lat="46.966053009033" lon="4.1390404701233"><ele>400</ele><time>2026-4-28T10:43:6Z</time></trkpt>
<trkpt lat="46.966053009033" lon="4.1390404701233"><ele>400</ele><time>2026-4-28T10:43:9Z</time></trkpt>
<trkpt lat="46.966106414795" lon="4.1389622688293"><ele>400</ele><time>2026-4-28T10:43:12Z</time></trkpt>
<trkpt lat="46.966106414795" lon="4.1389622688293"><ele>400</ele><time>2026-4-28T10:43:15Z</time></trkpt>
<trkpt lat="46.966148376465" lon="4.1389079093933"><ele>400</ele><time>2026-4-28T10:43:18Z</time></trkpt>
<trkpt lat="46.966148376465" lon="4.1389079093933"><ele>400</ele><time>2026-4-28T10:43:21Z</time></trkpt>
<trkpt lat="46.966148376465" lon="4.1389079093933"><ele>400</ele><time>2026-4-28T10:43:24Z</time></trkpt>
<trkpt lat="46.966220855713" lon="4.1388339996338"><ele>401</ele><time>2026-4-28T10:43:27Z</time></trkpt>
<trkpt lat="46.966220855713" lon="4.1388339996338"><ele>401</ele><time>2026-4-28T10:43:30Z</time></trkpt>
<trkpt lat="46.96626663208" lon="4.1387910842896"><ele>401</ele><time>2026-4-28T10:43:33Z</time></trkpt>
<trkpt lat="46.96626663208" lon="4.1387910842896"><ele>401</ele><time>2026-4-28T10:43:36Z</time></trkpt>
<trkpt lat="46.966320037842" lon="4.1387434005737"><ele>402</ele><time>2026-4-28T10:43:39Z</time></trkpt>
<trkpt lat="46.966388702393" lon="4.1386804580688"><ele>402</ele><time>2026-4-28T10:43:42Z</time></trkpt>
<trkpt lat="46.966484069824" lon="4.1386098861694"><ele>402</ele><time>2026-4-28T10:43:45Z</time></trkpt>
<trkpt lat="46.966537475586" lon="4.138578414917"><ele>402</ele><time>2026-4-28T10:43:48Z</time></trkpt>
<trkpt lat="46.966617584229" lon="4.1385025978088"><ele>402</ele><time>2026-4-28T10:43:51Z</time></trkpt>
<trkpt lat="46.966617584229" lon="4.1385025978088"><ele>402</ele><time>2026-4-28T10:43:54Z</time></trkpt>
<trkpt lat="46.966690063477" lon="4.1384072303772"><ele>402</ele><time>2026-4-28T10:43:57Z</time></trkpt>
<trkpt lat="46.966720581055" lon="4.138355255127"><ele>403</ele><time>2026-4-28T10:44:0Z</time></trkpt>
<trkpt lat="46.966751098633" lon="4.1383004188538"><ele>403</ele><time>2026-4-28T10:44:3Z</time></trkpt>
<trkpt lat="46.966777801514" lon="4.1382451057434"><ele>403</ele><time>2026-4-28T10:44:6Z</time></trkpt>
<trkpt lat="46.966808319092" lon="4.1381850242615"><ele>403</ele><time>2026-4-28T10:44:9Z</time></trkpt>
<trkpt lat="46.966835021973" lon="4.1381216049194"><ele>403</ele><time>2026-4-28T10:44:12Z</time></trkpt>
<trkpt lat="46.966884613037" lon="4.1379909515381"><ele>403</ele><time>2026-4-28T10:44:15Z</time></trkpt>
<trkpt lat="46.966884613037" lon="4.1379909515381"><ele>403</ele><time>2026-4-28T10:44:18Z</time></trkpt>
<trkpt lat="46.966930389404" lon="4.1378746032715"><ele>404</ele><time>2026-4-28T10:44:21Z</time></trkpt>
<trkpt lat="46.966930389404" lon="4.1378746032715"><ele>404</ele><time>2026-4-28T10:44:24Z</time></trkpt>
<trkpt lat="46.96696472168" lon="4.1377501487732"><ele>404</ele><time>2026-4-28T10:44:27Z</time></trkpt>
<trkpt lat="46.96696472168" lon="4.1377501487732"><ele>404</ele><time>2026-4-28T10:44:30Z</time></trkpt>
<trkpt lat="46.966995239258" lon="4.1376132965088"><ele>405</ele><time>2026-4-28T10:44:33Z</time></trkpt>
<trkpt lat="46.966995239258" lon="4.1376132965088"><ele>405</ele><time>2026-4-28T10:44:36Z</time></trkpt>
<trkpt lat="46.96703338623" lon="4.137487411499"><ele>405</ele><time>2026-4-28T10:44:39Z</time></trkpt>
<trkpt lat="46.967063903809" lon="4.1373701095581"><ele>405</ele><time>2026-4-28T10:44:42Z</time></trkpt>
<trkpt lat="46.967063903809" lon="4.1373701095581"><ele>405</ele><time>2026-4-28T10:44:45Z</time></trkpt>
<trkpt lat="46.967094421387" lon="4.1372585296631"><ele>406</ele><time>2026-4-28T10:44:48Z</time></trkpt>
<trkpt lat="46.967094421387" lon="4.1372585296631"><ele>406</ele><time>2026-4-28T10:44:51Z</time></trkpt>
<trkpt lat="46.967124938965" lon="4.1371750831604"><ele>406</ele><time>2026-4-28T10:44:54Z</time></trkpt>
<trkpt lat="46.967124938965" lon="4.1371750831604"><ele>406</ele><time>2026-4-28T10:44:57Z</time></trkpt>
<trkpt lat="46.967151641846" lon="4.1370649337769"><ele>406</ele><time>2026-4-28T10:45:0Z</time></trkpt>
<trkpt lat="46.967151641846" lon="4.1370649337769"><ele>406</ele><time>2026-4-28T10:45:3Z</time></trkpt>
<trkpt lat="46.967163085938" lon="4.1369638442993"><ele>406</ele><time>2026-4-28T10:45:6Z</time></trkpt>
<trkpt lat="46.967163085938" lon="4.1369638442993"><ele>406</ele><time>2026-4-28T10:45:9Z</time></trkpt>
<trkpt lat="46.967170715332" lon="4.136869430542"><ele>406</ele><time>2026-4-28T10:45:12Z</time></trkpt>
<trkpt lat="46.967170715332" lon="4.136869430542"><ele>406</ele><time>2026-4-28T10:45:15Z</time></trkpt>
<trkpt lat="46.967189788818" lon="4.1367735862732"><ele>406</ele><time>2026-4-28T10:45:18Z</time></trkpt>
<trkpt lat="46.967189788818" lon="4.1367735862732"><ele>406</ele><time>2026-4-28T10:45:21Z</time></trkpt>
<trkpt lat="46.967235565186" lon="4.136688709259"><ele>407</ele><time>2026-4-28T10:45:24Z</time></trkpt>
<trkpt lat="46.967235565186" lon="4.136688709259"><ele>407</ele><time>2026-4-28T10:45:27Z</time></trkpt>
<trkpt lat="46.967292785645" lon="4.1366257667542"><ele>408</ele><time>2026-4-28T10:45:30Z</time></trkpt>
<trkpt lat="46.967292785645" lon="4.1366257667542"><ele>408</ele><time>2026-4-28T10:45:33Z</time></trkpt>
<trkpt lat="46.967292785645" lon="4.1366257667542"><ele>408</ele><time>2026-4-28T10:45:36Z</time></trkpt>
<trkpt lat="46.967334747314" lon="4.1365342140198"><ele>409</ele><time>2026-4-28T10:45:39Z</time></trkpt>
<trkpt lat="46.967334747314" lon="4.1365342140198"><ele>409</ele><time>2026-4-28T10:45:42Z</time></trkpt>
<trkpt lat="46.967334747314" lon="4.1365342140198"><ele>409</ele><time>2026-4-28T10:45:45Z</time></trkpt>
<trkpt lat="46.967372894287" lon="4.136465549469"><ele>411</ele><time>2026-4-28T10:45:48Z</time></trkpt>
<trkpt lat="46.967372894287" lon="4.136465549469"><ele>411</ele><time>2026-4-28T10:45:51Z</time></trkpt>
<trkpt lat="46.967372894287" lon="4.136465549469"><ele>411</ele><time>2026-4-28T10:45:54Z</time></trkpt>
<trkpt lat="46.967407226562" lon="4.1363749504089"><ele>412</ele><time>2026-4-28T10:45:57Z</time></trkpt>
<trkpt lat="46.967407226562" lon="4.1363749504089"><ele>412</ele><time>2026-4-28T10:46:0Z</time></trkpt>
<trkpt lat="46.967407226562" lon="4.1363749504089"><ele>412</ele><time>2026-4-28T10:46:3Z</time></trkpt>
<trkpt lat="46.967456817627" lon="4.1362843513489"><ele>413</ele><time>2026-4-28T10:46:6Z</time></trkpt>
<trkpt lat="46.967456817627" lon="4.1362843513489"><ele>413</ele><time>2026-4-28T10:46:9Z</time></trkpt>
<trkpt lat="46.967456817627" lon="4.1362843513489"><ele>413</ele><time>2026-4-28T10:46:12Z</time></trkpt>
<trkpt lat="46.967498779297" lon="4.1361861228943"><ele>414</ele><time>2026-4-28T10:46:15Z</time></trkpt>
<trkpt lat="46.967498779297" lon="4.1361861228943"><ele>414</ele><time>2026-4-28T10:46:18Z</time></trkpt>
<trkpt lat="46.967498779297" lon="4.1361861228943"><ele>414</ele><time>2026-4-28T10:46:21Z</time></trkpt>
<trkpt lat="46.967529296875" lon="4.1360988616943"><ele>416</ele><time>2026-4-28T10:46:24Z</time></trkpt>
<trkpt lat="46.967529296875" lon="4.1360988616943"><ele>416</ele><time>2026-4-28T10:46:27Z</time></trkpt>
<trkpt lat="46.967529296875" lon="4.1360988616943"><ele>416</ele><time>2026-4-28T10:46:30Z</time></trkpt>
<trkpt lat="46.967555999756" lon="4.1359930038452"><ele>417</ele><time>2026-4-28T10:46:33Z</time></trkpt>
<trkpt lat="46.967555999756" lon="4.1359930038452"><ele>417</ele><time>2026-4-28T10:46:36Z</time></trkpt>
<trkpt lat="46.967575073242" lon="4.135892868042"><ele>418</ele><time>2026-4-28T10:46:39Z</time></trkpt>
<trkpt lat="46.967575073242" lon="4.135892868042"><ele>418</ele><time>2026-4-28T10:46:42Z</time></trkpt>
<trkpt lat="46.967575073242" lon="4.135892868042"><ele>418</ele><time>2026-4-28T10:46:45Z</time></trkpt>
<trkpt lat="46.967594146729" lon="4.1358432769775"><ele>419</ele><time>2026-4-28T10:46:48Z</time></trkpt>
<trkpt lat="46.967609405518" lon="4.1358036994934"><ele>419</ele><time>2026-4-28T10:46:51Z</time></trkpt>
<trkpt lat="46.967609405518" lon="4.1358036994934"><ele>419</ele><time>2026-4-28T10:46:54Z</time></trkpt>
<trkpt lat="46.967624664307" lon="4.1357583999634"><ele>420</ele><time>2026-4-28T10:46:57Z</time></trkpt>
<trkpt lat="46.967643737793" lon="4.1357235908508"><ele>420</ele><time>2026-4-28T10:47:0Z</time></trkpt>
<trkpt lat="46.967643737793" lon="4.1357235908508"><ele>420</ele><time>2026-4-28T10:47:3Z</time></trkpt>
<trkpt lat="46.967643737793" lon="4.1357235908508"><ele>420</ele><time>2026-4-28T10:47:6Z</time></trkpt>
<trkpt lat="46.967662811279" lon="4.1356749534607"><ele>421</ele><time>2026-4-28T10:47:9Z</time></trkpt>
<trkpt lat="46.967678070068" lon="4.1356344223022"><ele>421</ele><time>2026-4-28T10:47:12Z</time></trkpt>
<trkpt lat="46.967678070068" lon="4.1356344223022"><ele>421</ele><time>2026-4-28T10:47:15Z</time></trkpt>
<trkpt lat="46.967697143555" lon="4.1355805397034"><ele>422</ele><time>2026-4-28T10:47:18Z</time></trkpt>
<trkpt lat="46.967716217041" lon="4.1355381011963"><ele>422</ele><time>2026-4-28T10:47:21Z</time></trkpt>
<trkpt lat="46.967716217041" lon="4.1355381011963"><ele>422</ele><time>2026-4-28T10:47:24Z</time></trkpt>
<trkpt lat="46.96773147583" lon="4.1355037689209"><ele>423</ele><time>2026-4-28T10:47:27Z</time></trkpt>
<trkpt lat="46.967758178711" lon="4.1354579925537"><ele>423</ele><time>2026-4-28T10:47:30Z</time></trkpt>
<trkpt lat="46.967758178711" lon="4.1354579925537"><ele>423</ele><time>2026-4-28T10:47:33Z</time></trkpt>
<trkpt lat="46.967777252197" lon="4.1354212760925"><ele>424</ele><time>2026-4-28T10:47:36Z</time></trkpt>
<trkpt lat="46.967796325684" lon="4.1353769302368"><ele>424</ele><time>2026-4-28T10:47:39Z</time></trkpt>
<trkpt lat="46.967796325684" lon="4.1353769302368"><ele>424</ele><time>2026-4-28T10:47:42Z</time></trkpt>
<trkpt lat="46.96781539917" lon="4.1353340148926"><ele>424</ele><time>2026-4-28T10:47:45Z</time></trkpt>
<trkpt lat="46.967826843262" lon="4.1352968215942"><ele>425</ele><time>2026-4-28T10:47:48Z</time></trkpt>
<trkpt lat="46.967826843262" lon="4.1352968215942"><ele>425</ele><time>2026-4-28T10:47:51Z</time></trkpt>
<trkpt lat="46.967826843262" lon="4.1352968215942"><ele>425</ele><time>2026-4-28T10:47:54Z</time></trkpt>
<trkpt lat="46.967842102051" lon="4.1352434158325"><ele>425</ele><time>2026-4-28T10:47:57Z</time></trkpt>
<trkpt lat="46.96785736084" lon="4.1351923942566"><ele>426</ele><time>2026-4-28T10:48:0Z</time></trkpt>
<trkpt lat="46.96785736084" lon="4.1351923942566"><ele>426</ele><time>2026-4-28T10:48:3Z</time></trkpt>
<trkpt lat="46.967876434326" lon="4.135151386261"><ele>426</ele><time>2026-4-28T10:48:6Z</time></trkpt>
<trkpt lat="46.967891693115" lon="4.1351070404053"><ele>426</ele><time>2026-4-28T10:48:9Z</time></trkpt>
<trkpt lat="46.967906951904" lon="4.135064125061"><ele>427</ele><time>2026-4-28T10:48:12Z</time></trkpt>
<trkpt lat="46.967906951904" lon="4.135064125061"><ele>427</ele><time>2026-4-28T10:48:15Z</time></trkpt>
<trkpt lat="46.967922210693" lon="4.1350255012512"><ele>427</ele><time>2026-4-28T10:48:18Z</time></trkpt>
<trkpt lat="46.967948913574" lon="4.1349458694458"><ele>427</ele><time>2026-4-28T10:48:21Z</time></trkpt>
<trkpt lat="46.967948913574" lon="4.1349458694458"><ele>427</ele><time>2026-4-28T10:48:24Z</time></trkpt>
<trkpt lat="46.96798324585" lon="4.1348729133606"><ele>427</ele><time>2026-4-28T10:48:27Z</time></trkpt>
<trkpt lat="46.968021392822" lon="4.1347951889038"><ele>428</ele><time>2026-4-28T10:48:30Z</time></trkpt>
<trkpt lat="46.968021392822" lon="4.1347951889038"><ele>428</ele><time>2026-4-28T10:48:33Z</time></trkpt>
<trkpt lat="46.968044281006" lon="4.1347141265869"><ele>428</ele><time>2026-4-28T10:48:36Z</time></trkpt>
<trkpt lat="46.968044281006" lon="4.1347141265869"><ele>428</ele><time>2026-4-28T10:48:39Z</time></trkpt>
<trkpt lat="46.968078613281" lon="4.1346006393433"><ele>428</ele><time>2026-4-28T10:48:42Z</time></trkpt>
<trkpt lat="46.968078613281" lon="4.1346006393433"><ele>428</ele><time>2026-4-28T10:48:45Z</time></trkpt>
<trkpt lat="46.968078613281" lon="4.1346006393433"><ele>428</ele><time>2026-4-28T10:48:48Z</time></trkpt>
<trkpt lat="46.968078613281" lon="4.1346006393433"><ele>428</ele><time>2026-4-28T10:48:51Z</time></trkpt>
<trkpt lat="46.968124389648" lon="4.1344900131226"><ele>429</ele><time>2026-4-28T10:48:54Z</time></trkpt>
<trkpt lat="46.968124389648" lon="4.1344900131226"><ele>429</ele><time>2026-4-28T10:48:57Z</time></trkpt>
<trkpt lat="46.968151092529" lon="4.1344180107117"><ele>429</ele><time>2026-4-28T10:49:0Z</time></trkpt>
<trkpt lat="46.968151092529" lon="4.1344180107117"><ele>429</ele><time>2026-4-28T10:49:3Z</time></trkpt>
<trkpt lat="46.968151092529" lon="4.1344180107117"><ele>429</ele><time>2026-4-28T10:49:6Z</time></trkpt>
<trkpt lat="46.968193054199" lon="4.134307384491"><ele>429</ele><time>2026-4-28T10:49:9Z</time></trkpt>
<trkpt lat="46.968193054199" lon="4.134307384491"><ele>429</ele><time>2026-4-28T10:49:12Z</time></trkpt>
<trkpt lat="46.96821975708" lon="4.1342315673828"><ele>430</ele><time>2026-4-28T10:49:15Z</time></trkpt>
<trkpt lat="46.96821975708" lon="4.1342315673828"><ele>430</ele><time>2026-4-28T10:49:18Z</time></trkpt>
<trkpt lat="46.96821975708" lon="4.1342315673828"><ele>430</ele><time>2026-4-28T10:49:21Z</time></trkpt>
<trkpt lat="46.968246459961" lon="4.1341562271118"><ele>430</ele><time>2026-4-28T10:49:24Z</time></trkpt>
<trkpt lat="46.968246459961" lon="4.1341562271118"><ele>430</ele><time>2026-4-28T10:49:27Z</time></trkpt>
<trkpt lat="46.968246459961" lon="4.1341562271118"><ele>430</ele><time>2026-4-28T10:49:30Z</time></trkpt>
<trkpt lat="46.968246459961" lon="4.1341562271118"><ele>430</ele><time>2026-4-28T10:49:33Z</time></trkpt>
<trkpt lat="46.968292236328" lon="4.1340479850769"><ele>431</ele><time>2026-4-28T10:49:36Z</time></trkpt>
<trkpt lat="46.968292236328" lon="4.1340479850769"><ele>431</ele><time>2026-4-28T10:49:39Z</time></trkpt>
<trkpt lat="46.968292236328" lon="4.1340479850769"><ele>431</ele><time>2026-4-28T10:49:42Z</time></trkpt>
<trkpt lat="46.968292236328" lon="4.1340479850769"><ele>431</ele><time>2026-4-28T10:49:45Z</time></trkpt>
<trkpt lat="46.968338012695" lon="4.133948802948"><ele>431</ele><time>2026-4-28T10:49:48Z</time></trkpt>
<trkpt lat="46.968338012695" lon="4.133948802948"><ele>431</ele><time>2026-4-28T10:49:51Z</time></trkpt>
<trkpt lat="46.968338012695" lon="4.133948802948"><ele>431</ele><time>2026-4-28T10:49:54Z</time></trkpt>
<trkpt lat="46.968338012695" lon="4.133948802948"><ele>431</ele><time>2026-4-28T10:49:57Z</time></trkpt>
<trkpt lat="46.968376159668" lon="4.1338520050049"><ele>432</ele><time>2026-4-28T10:50:0Z</time></trkpt>
<trkpt lat="46.968376159668" lon="4.1338520050049"><ele>432</ele><time>2026-4-28T10:50:3Z</time></trkpt>
<trkpt lat="46.968376159668" lon="4.1338520050049"><ele>432</ele><time>2026-4-28T10:50:6Z</time></trkpt>
<trkpt lat="46.968376159668" lon="4.1338520050049"><ele>432</ele><time>2026-4-28T10:50:9Z</time></trkpt>
<trkpt lat="46.968376159668" lon="4.1338520050049"><ele>432</ele><time>2026-4-28T10:50:12Z</time></trkpt>
<trkpt lat="46.968376159668" lon="4.1338520050049"><ele>432</ele><time>2026-4-28T10:50:15Z</time></trkpt>
<trkpt lat="46.968376159668" lon="4.1338520050049"><ele>432</ele><time>2026-4-28T10:50:18Z</time></trkpt>
<trkpt lat="46.968441009521" lon="4.1336750984192"><ele>434</ele><time>2026-4-28T10:50:21Z</time></trkpt>
<trkpt lat="46.968441009521" lon="4.1336750984192"><ele>434</ele><time>2026-4-28T10:50:24Z</time></trkpt>
<trkpt lat="46.968482971191" lon="4.1335911750793"><ele>435</ele><time>2026-4-28T10:50:27Z</time></trkpt>
<trkpt lat="46.968482971191" lon="4.1335911750793"><ele>435</ele><time>2026-4-28T10:50:30Z</time></trkpt>
<trkpt lat="46.968482971191" lon="4.1335911750793"><ele>435</ele><time>2026-4-28T10:50:33Z</time></trkpt>
<trkpt lat="46.968482971191" lon="4.1335911750793"><ele>435</ele><time>2026-4-28T10:50:36Z</time></trkpt>
<trkpt lat="46.968502044678" lon="4.1335554122925"><ele>436</ele><time>2026-4-28T10:50:39Z</time></trkpt>
<trkpt lat="46.968502044678" lon="4.1335554122925"><ele>436</ele><time>2026-4-28T10:50:42Z</time></trkpt>
<trkpt lat="46.968502044678" lon="4.1335554122925"><ele>436</ele><time>2026-4-28T10:50:45Z</time></trkpt>
<trkpt lat="46.968524932861" lon="4.1335115432739"><ele>437</ele><time>2026-4-28T10:50:48Z</time></trkpt>
<trkpt lat="46.968544006348" lon="4.1334714889526"><ele>437</ele><time>2026-4-28T10:50:51Z</time></trkpt>
<trkpt lat="46.968544006348" lon="4.1334714889526"><ele>437</ele><time>2026-4-28T10:50:54Z</time></trkpt>
<trkpt lat="46.968563079834" lon="4.1334309577942"><ele>438</ele><time>2026-4-28T10:50:57Z</time></trkpt>
<trkpt lat="46.96858215332" lon="4.1333923339844"><ele>438</ele><time>2026-4-28T10:51:0Z</time></trkpt>
<trkpt lat="46.968597412109" lon="4.1333594322205"><ele>438</ele><time>2026-4-28T10:51:3Z</time></trkpt>
<trkpt lat="46.968597412109" lon="4.1333594322205"><ele>438</ele><time>2026-4-28T10:51:6Z</time></trkpt>
<trkpt lat="46.968639373779" lon="4.1332879066467"><ele>439</ele><time>2026-4-28T10:51:9Z</time></trkpt>
<trkpt lat="46.968639373779" lon="4.1332879066467"><ele>439</ele><time>2026-4-28T10:51:12Z</time></trkpt>
<trkpt lat="46.968685150146" lon="4.1332092285156"><ele>440</ele><time>2026-4-28T10:51:15Z</time></trkpt>
<trkpt lat="46.968685150146" lon="4.1332092285156"><ele>440</ele><time>2026-4-28T10:51:18Z</time></trkpt>
<trkpt lat="46.968685150146" lon="4.1332092285156"><ele>440</ele><time>2026-4-28T10:51:21Z</time></trkpt>
<trkpt lat="46.968685150146" lon="4.1332092285156"><ele>440</ele><time>2026-4-28T10:51:24Z</time></trkpt>
<trkpt lat="46.968734741211" lon="4.1331167221069"><ele>441</ele><time>2026-4-28T10:51:27Z</time></trkpt>
<trkpt lat="46.968734741211" lon="4.1331167221069"><ele>441</ele><time>2026-4-28T10:51:30Z</time></trkpt>
<trkpt lat="46.968780517578" lon="4.1330251693726"><ele>442</ele><time>2026-4-28T10:51:33Z</time></trkpt>
<trkpt lat="46.968780517578" lon="4.1330251693726"><ele>442</ele><time>2026-4-28T10:51:36Z</time></trkpt>
<trkpt lat="46.968807220459" lon="4.1329545974731"><ele>443</ele><time>2026-4-28T10:51:39Z</time></trkpt>
<trkpt lat="46.96883392334" lon="4.1328611373901"><ele>443</ele><time>2026-4-28T10:51:42Z</time></trkpt>
<trkpt lat="46.96883392334" lon="4.1328611373901"><ele>443</ele><time>2026-4-28T10:51:45Z</time></trkpt>
<trkpt lat="46.968856811523" lon="4.132782459259"><ele>444</ele><time>2026-4-28T10:51:48Z</time></trkpt>
<trkpt lat="46.968856811523" lon="4.132782459259"><ele>444</ele><time>2026-4-28T10:51:51Z</time></trkpt>
<trkpt lat="46.968887329102" lon="4.1326775550842"><ele>444</ele><time>2026-4-28T10:51:54Z</time></trkpt>
<trkpt lat="46.968914031982" lon="4.1325659751892"><ele>444</ele><time>2026-4-28T10:51:57Z</time></trkpt>
<trkpt lat="46.968914031982" lon="4.1325659751892"><ele>444</ele><time>2026-4-28T10:52:0Z</time></trkpt>
<trkpt lat="46.968940734863" lon="4.1324338912964"><ele>445</ele><time>2026-4-28T10:52:3Z</time></trkpt>
<trkpt lat="46.968940734863" lon="4.1324338912964"><ele>445</ele><time>2026-4-28T10:52:6Z</time></trkpt>
<trkpt lat="46.968971252441" lon="4.1322894096375"><ele>445</ele><time>2026-4-28T10:52:9Z</time></trkpt>
<trkpt lat="46.968990325928" lon="4.13219165802"><ele>445</ele><time>2026-4-28T10:52:12Z</time></trkpt>
<trkpt lat="46.969013214111" lon="4.1320996284485"><ele>445</ele><time>2026-4-28T10:52:15Z</time></trkpt>
<trkpt lat="46.969013214111" lon="4.1320996284485"><ele>445</ele><time>2026-4-28T10:52:18Z</time></trkpt>
<trkpt lat="46.969036102295" lon="4.1320109367371"><ele>445</ele><time>2026-4-28T10:52:21Z</time></trkpt>
<trkpt lat="46.969058990479" lon="4.1319255828857"><ele>446</ele><time>2026-4-28T10:52:24Z</time></trkpt>
<trkpt lat="46.969058990479" lon="4.1319255828857"><ele>446</ele><time>2026-4-28T10:52:27Z</time></trkpt>
<trkpt lat="46.969108581543" lon="4.131769657135"><ele>446</ele><time>2026-4-28T10:52:30Z</time></trkpt>
<trkpt lat="46.969150543213" lon="4.1316194534302"><ele>446</ele><time>2026-4-28T10:52:33Z</time></trkpt>
<trkpt lat="46.969165802002" lon="4.1315298080444"><ele>446</ele><time>2026-4-28T10:52:36Z</time></trkpt>
<trkpt lat="46.969181060791" lon="4.1314420700073"><ele>447</ele><time>2026-4-28T10:52:39Z</time></trkpt>
<trkpt lat="46.969200134277" lon="4.1313538551331"><ele>447</ele><time>2026-4-28T10:52:42Z</time></trkpt>
<trkpt lat="46.969215393066" lon="4.1312665939331"><ele>447</ele><time>2026-4-28T10:52:45Z</time></trkpt>
<trkpt lat="46.969230651855" lon="4.1311755180359"><ele>447</ele><time>2026-4-28T10:52:48Z</time></trkpt>
<trkpt lat="46.969249725342" lon="4.1310839653015"><ele>447</ele><time>2026-4-28T10:52:51Z</time></trkpt>
<trkpt lat="46.969264984131" lon="4.1309976577759"><ele>448</ele><time>2026-4-28T10:52:54Z</time></trkpt>
<trkpt lat="46.96928024292" lon="4.1309146881104"><ele>448</ele><time>2026-4-28T10:52:57Z</time></trkpt>
<trkpt lat="46.969299316406" lon="4.1308217048645"><ele>448</ele><time>2026-4-28T10:53:0Z</time></trkpt>
<trkpt lat="46.969318389893" lon="4.1307263374329"><ele>448</ele><time>2026-4-28T10:53:3Z</time></trkpt>
<trkpt lat="46.969329833984" lon="4.1306390762329"><ele>448</ele><time>2026-4-28T10:53:6Z</time></trkpt>
<trkpt lat="46.969341278076" lon="4.1305527687073"><ele>449</ele><time>2026-4-28T10:53:9Z</time></trkpt>
<trkpt lat="46.969341278076" lon="4.1305527687073"><ele>449</ele><time>2026-4-28T10:53:12Z</time></trkpt>
<trkpt lat="46.969341278076" lon="4.1305527687073"><ele>449</ele><time>2026-4-28T10:53:15Z</time></trkpt>
<trkpt lat="46.969345092773" lon="4.1304378509521"><ele>450</ele><time>2026-4-28T10:53:18Z</time></trkpt>
<trkpt lat="46.96936416626" lon="4.1302647590637"><ele>451</ele><time>2026-4-28T10:53:21Z</time></trkpt>
<trkpt lat="46.96936416626" lon="4.1302647590637"><ele>451</ele><time>2026-4-28T10:53:24Z</time></trkpt>
<trkpt lat="46.969383239746" lon="4.1301350593567"><ele>451</ele><time>2026-4-28T10:53:27Z</time></trkpt>
<trkpt lat="46.969398498535" lon="4.1300506591797"><ele>451</ele><time>2026-4-28T10:53:30Z</time></trkpt>
<trkpt lat="46.969413757324" lon="4.1299653053284"><ele>452</ele><time>2026-4-28T10:53:33Z</time></trkpt>
<trkpt lat="46.969440460205" lon="4.1298732757568"><ele>452</ele><time>2026-4-28T10:53:36Z</time></trkpt>
<trkpt lat="46.969463348389" lon="4.129789352417"><ele>452</ele><time>2026-4-28T10:53:39Z</time></trkpt>
<trkpt lat="46.969463348389" lon="4.129789352417"><ele>452</ele><time>2026-4-28T10:53:42Z</time></trkpt>
<trkpt lat="46.969505310059" lon="4.1296472549438"><ele>452</ele><time>2026-4-28T10:53:45Z</time></trkpt>
<trkpt lat="46.969539642334" lon="4.1295323371887"><ele>453</ele><time>2026-4-28T10:53:48Z</time></trkpt>
<trkpt lat="46.969539642334" lon="4.1295323371887"><ele>453</ele><time>2026-4-28T10:53:51Z</time></trkpt>
<trkpt lat="46.969604492188" lon="4.1294002532959"><ele>453</ele><time>2026-4-28T10:53:54Z</time></trkpt>
<trkpt lat="46.969604492188" lon="4.1294002532959"><ele>453</ele><time>2026-4-28T10:53:57Z</time></trkpt>
<trkpt lat="46.969654083252" lon="4.1292695999146"><ele>453</ele><time>2026-4-28T10:54:0Z</time></trkpt>
<trkpt lat="46.969654083252" lon="4.1292695999146"><ele>453</ele><time>2026-4-28T10:54:3Z</time></trkpt>
<trkpt lat="46.969688415527" lon="4.1291346549988"><ele>454</ele><time>2026-4-28T10:54:6Z</time></trkpt>
<trkpt lat="46.969688415527" lon="4.1291346549988"><ele>454</ele><time>2026-4-28T10:54:9Z</time></trkpt>
<trkpt lat="46.969703674316" lon="4.1290125846863"><ele>454</ele><time>2026-4-28T10:54:12Z</time></trkpt>
<trkpt lat="46.969703674316" lon="4.1290125846863"><ele>454</ele><time>2026-4-28T10:54:15Z</time></trkpt>
<trkpt lat="46.969703674316" lon="4.1290125846863"><ele>454</ele><time>2026-4-28T10:54:18Z</time></trkpt>
<trkpt lat="46.969703674316" lon="4.1290125846863"><ele>454</ele><time>2026-4-28T10:54:21Z</time></trkpt>
<trkpt lat="46.969703674316" lon="4.1290125846863"><ele>454</ele><time>2026-4-28T10:54:24Z</time></trkpt>
<trkpt lat="46.969703674316" lon="4.1290125846863"><ele>454</ele><time>2026-4-28T10:54:27Z</time></trkpt>
<trkpt lat="46.969703674316" lon="4.1290125846863"><ele>454</ele><time>2026-4-28T10:54:30Z</time></trkpt>
<trkpt lat="46.969703674316" lon="4.1290125846863"><ele>454</ele><time>2026-4-28T10:54:33Z</time></trkpt>
<trkpt lat="46.969703674316" lon="4.1290125846863"><ele>454</ele><time>2026-4-28T10:54:36Z</time></trkpt>
<trkpt lat="46.969703674316" lon="4.1290125846863"><ele>454</ele><time>2026-4-28T10:54:39Z</time></trkpt>
<trkpt lat="46.969703674316" lon="4.1290125846863"><ele>454</ele><time>2026-4-28T10:54:42Z</time></trkpt>
<trkpt lat="46.969703674316" lon="4.1290125846863"><ele>454</ele><time>2026-4-28T10:54:45Z</time></trkpt>
<trkpt lat="46.969703674316" lon="4.1290125846863"><ele>454</ele><time>2026-4-28T10:54:48Z</time></trkpt>
<trkpt lat="46.969703674316" lon="4.1290125846863"><ele>454</ele><time>2026-4-28T10:54:51Z</time></trkpt>
<trkpt lat="46.969703674316" lon="4.1290125846863"><ele>454</ele><time>2026-4-28T10:54:54Z</time></trkpt>
<trkpt lat="46.969703674316" lon="4.1290125846863"><ele>454</ele><time>2026-4-28T10:54:57Z</time></trkpt>
<trkpt lat="46.969703674316" lon="4.1290125846863"><ele>454</ele><time>2026-4-28T10:55:0Z</time></trkpt>
<trkpt lat="46.969703674316" lon="4.1290125846863"><ele>454</ele><time>2026-4-28T10:55:3Z</time></trkpt>
<trkpt lat="46.969703674316" lon="4.1290125846863"><ele>454</ele><time>2026-4-28T10:55:6Z</time></trkpt>
<trkpt lat="46.969703674316" lon="4.1290125846863"><ele>454</ele><time>2026-4-28T10:55:9Z</time></trkpt>
<trkpt lat="46.969703674316" lon="4.1290125846863"><ele>454</ele><time>2026-4-28T10:55:12Z</time></trkpt>
<trkpt lat="46.969703674316" lon="4.1290125846863"><ele>454</ele><time>2026-4-28T10:55:15Z</time></trkpt>
<trkpt lat="46.969711303711" lon="4.128870010376"><ele>458</ele><time>2026-4-28T10:55:18Z</time></trkpt>
<trkpt lat="46.969722747803" lon="4.1287741661072"><ele>458</ele><time>2026-4-28T10:55:21Z</time></trkpt>
<trkpt lat="46.969730377197" lon="4.1286978721619"><ele>458</ele><time>2026-4-28T10:55:24Z</time></trkpt>
<trkpt lat="46.969738006592" lon="4.128634929657"><ele>458</ele><time>2026-4-28T10:55:27Z</time></trkpt>
<trkpt lat="46.969738006592" lon="4.128634929657"><ele>458</ele><time>2026-4-28T10:55:30Z</time></trkpt>
<trkpt lat="46.969738006592" lon="4.1285729408264"><ele>459</ele><time>2026-4-28T10:55:33Z</time></trkpt>
<trkpt lat="46.969734191895" lon="4.1284527778625"><ele>459</ele><time>2026-4-28T10:55:36Z</time></trkpt>
<trkpt lat="46.969734191895" lon="4.1284527778625"><ele>459</ele><time>2026-4-28T10:55:39Z</time></trkpt>
<trkpt lat="46.969722747803" lon="4.1283535957336"><ele>459</ele><time>2026-4-28T10:55:42Z</time></trkpt>
<trkpt lat="46.969722747803" lon="4.1283535957336"><ele>459</ele><time>2026-4-28T10:55:45Z</time></trkpt>
<trkpt lat="46.969715118408" lon="4.1282544136047"><ele>459</ele><time>2026-4-28T10:55:48Z</time></trkpt>
<trkpt lat="46.969715118408" lon="4.1282544136047"><ele>459</ele><time>2026-4-28T10:55:51Z</time></trkpt>
<trkpt lat="46.969715118408" lon="4.1282544136047"><ele>459</ele><time>2026-4-28T10:55:54Z</time></trkpt>
<trkpt lat="46.969707489014" lon="4.1281661987305"><ele>460</ele><time>2026-4-28T10:55:57Z</time></trkpt>
<trkpt lat="46.969707489014" lon="4.1281661987305"><ele>460</ele><time>2026-4-28T10:56:0Z</time></trkpt>
<trkpt lat="46.969707489014" lon="4.1281661987305"><ele>460</ele><time>2026-4-28T10:56:3Z</time></trkpt>
<trkpt lat="46.969707489014" lon="4.1281661987305"><ele>460</ele><time>2026-4-28T10:56:6Z</time></trkpt>
<trkpt lat="46.969692230225" lon="4.1280550956726"><ele>461</ele><time>2026-4-28T10:56:9Z</time></trkpt>
<trkpt lat="46.969692230225" lon="4.1280550956726"><ele>461</ele><time>2026-4-28T10:56:12Z</time></trkpt>
<trkpt lat="46.969692230225" lon="4.1280550956726"><ele>461</ele><time>2026-4-28T10:56:15Z</time></trkpt>
<trkpt lat="46.969673156738" lon="4.1279640197754"><ele>462</ele><time>2026-4-28T10:56:18Z</time></trkpt>
<trkpt lat="46.969673156738" lon="4.1279640197754"><ele>462</ele><time>2026-4-28T10:56:21Z</time></trkpt>
<trkpt lat="46.969657897949" lon="4.127875328064"><ele>462</ele><time>2026-4-28T10:56:24Z</time></trkpt>
<trkpt lat="46.969657897949" lon="4.127875328064"><ele>462</ele><time>2026-4-28T10:56:27Z</time></trkpt>
<trkpt lat="46.969657897949" lon="4.127875328064"><ele>462</ele><time>2026-4-28T10:56:30Z</time></trkpt>
<trkpt lat="46.969635009766" lon="4.1277713775635"><ele>463</ele><time>2026-4-28T10:56:33Z</time></trkpt>
<trkpt lat="46.969635009766" lon="4.1277713775635"><ele>463</ele><time>2026-4-28T10:56:36Z</time></trkpt>
<trkpt lat="46.969635009766" lon="4.1277713775635"><ele>463</ele><time>2026-4-28T10:56:39Z</time></trkpt>
<trkpt lat="46.969615936279" lon="4.1276865005493"><ele>463</ele><time>2026-4-28T10:56:42Z</time></trkpt>
<trkpt lat="46.969615936279" lon="4.1276865005493"><ele>463</ele><time>2026-4-28T10:56:45Z</time></trkpt>
<trkpt lat="46.969615936279" lon="4.1275615692139"><ele>464</ele><time>2026-4-28T10:56:48Z</time></trkpt>
<trkpt lat="46.969615936279" lon="4.1275615692139"><ele>464</ele><time>2026-4-28T10:56:51Z</time></trkpt>
<trkpt lat="46.969615936279" lon="4.1275615692139"><ele>464</ele><time>2026-4-28T10:56:54Z</time></trkpt>
<trkpt lat="46.969615936279" lon="4.1275615692139"><ele>464</ele><time>2026-4-28T10:56:57Z</time></trkpt>
<trkpt lat="46.969612121582" lon="4.1274366378784"><ele>465</ele><time>2026-4-28T10:57:0Z</time></trkpt>
<trkpt lat="46.969612121582" lon="4.1274366378784"><ele>465</ele><time>2026-4-28T10:57:3Z</time></trkpt>
<trkpt lat="46.969615936279" lon="4.1273398399353"><ele>465</ele><time>2026-4-28T10:57:6Z</time></trkpt>
<trkpt lat="46.969615936279" lon="4.1273398399353"><ele>465</ele><time>2026-4-28T10:57:9Z</time></trkpt>
<trkpt lat="46.969615936279" lon="4.1273398399353"><ele>465</ele><time>2026-4-28T10:57:12Z</time></trkpt>
<trkpt lat="46.969615936279" lon="4.1273398399353"><ele>465</ele><time>2026-4-28T10:57:15Z</time></trkpt>
<trkpt lat="46.969593048096" lon="4.1272306442261"><ele>466</ele><time>2026-4-28T10:57:18Z</time></trkpt>
<trkpt lat="46.969593048096" lon="4.1272306442261"><ele>466</ele><time>2026-4-28T10:57:21Z</time></trkpt>
<trkpt lat="46.969593048096" lon="4.1272306442261"><ele>466</ele><time>2026-4-28T10:57:24Z</time></trkpt>
<trkpt lat="46.969577789307" lon="4.1271395683289"><ele>466</ele><time>2026-4-28T10:57:27Z</time></trkpt>
<trkpt lat="46.969577789307" lon="4.1271395683289"><ele>466</ele><time>2026-4-28T10:57:30Z</time></trkpt>
<trkpt lat="46.969551086426" lon="4.1270189285278"><ele>467</ele><time>2026-4-28T10:57:33Z</time></trkpt>
<trkpt lat="46.969551086426" lon="4.1270189285278"><ele>467</ele><time>2026-4-28T10:57:36Z</time></trkpt>
<trkpt lat="46.969505310059" lon="4.1269087791443"><ele>468</ele><time>2026-4-28T10:57:39Z</time></trkpt>
<trkpt lat="46.969505310059" lon="4.1269087791443"><ele>468</ele><time>2026-4-28T10:57:42Z</time></trkpt>
<trkpt lat="46.969505310059" lon="4.1269087791443"><ele>468</ele><time>2026-4-28T10:57:45Z</time></trkpt>
<trkpt lat="46.969505310059" lon="4.1269087791443"><ele>468</ele><time>2026-4-28T10:57:48Z</time></trkpt>
<trkpt lat="46.969505310059" lon="4.1269087791443"><ele>468</ele><time>2026-4-28T10:57:51Z</time></trkpt>
<trkpt lat="46.969505310059" lon="4.1269087791443"><ele>468</ele><time>2026-4-28T10:57:54Z</time></trkpt>
<trkpt lat="46.969505310059" lon="4.1269087791443"><ele>468</ele><time>2026-4-28T10:57:57Z</time></trkpt>
<trkpt lat="46.969505310059" lon="4.1269087791443"><ele>468</ele><time>2026-4-28T10:58:0Z</time></trkpt>
<trkpt lat="46.969505310059" lon="4.1269087791443"><ele>468</ele><time>2026-4-28T10:58:3Z</time></trkpt>
<trkpt lat="46.969505310059" lon="4.1269087791443"><ele>468</ele><time>2026-4-28T10:58:6Z</time></trkpt>
<trkpt lat="46.969505310059" lon="4.1269087791443"><ele>468</ele><time>2026-4-28T10:58:9Z</time></trkpt>
<trkpt lat="46.969505310059" lon="4.1269087791443"><ele>468</ele><time>2026-4-28T10:58:12Z</time></trkpt>
<trkpt lat="46.969505310059" lon="4.1269087791443"><ele>468</ele><time>2026-4-28T10:58:15Z</time></trkpt>
<trkpt lat="46.969505310059" lon="4.1269087791443"><ele>468</ele><time>2026-4-28T10:58:18Z</time></trkpt>
<trkpt lat="46.969379425049" lon="4.1268124580383"><ele>471</ele><time>2026-4-28T10:58:21Z</time></trkpt>
<trkpt lat="46.969268798828" lon="4.1267228126526"><ele>471</ele><time>2026-4-28T10:58:24Z</time></trkpt>
<trkpt lat="46.969173431396" lon="4.1266255378723"><ele>471</ele><time>2026-4-28T10:58:27Z</time></trkpt>
<trkpt lat="46.969081878662" lon="4.1265263557434"><ele>471</ele><time>2026-4-28T10:58:30Z</time></trkpt>
<trkpt lat="46.968990325928" lon="4.126425743103"><ele>472</ele><time>2026-4-28T10:58:33Z</time></trkpt>
<trkpt lat="46.968788146973" lon="4.1262097358704"><ele>472</ele><time>2026-4-28T10:58:36Z</time></trkpt>
<trkpt lat="46.968692779541" lon="4.1260952949524"><ele>472</ele><time>2026-4-28T10:58:39Z</time></trkpt>
<trkpt lat="46.968589782715" lon="4.1259741783142"><ele>472</ele><time>2026-4-28T10:58:42Z</time></trkpt>
<trkpt lat="46.968482971191" lon="4.1258678436279"><ele>472</ele><time>2026-4-28T10:58:45Z</time></trkpt>
<trkpt lat="46.968349456787" lon="4.1258044242859"><ele>471</ele><time>2026-4-28T10:58:48Z</time></trkpt>
<trkpt lat="46.96821975708" lon="4.1257710456848"><ele>470</ele><time>2026-4-28T10:58:51Z</time></trkpt>
<trkpt lat="46.968090057373" lon="4.1257457733154"><ele>469</ele><time>2026-4-28T10:58:54Z</time></trkpt>
<trkpt lat="46.967952728271" lon="4.1257219314575"><ele>470</ele><time>2026-4-28T10:58:57Z</time></trkpt>
<trkpt lat="46.967788696289" lon="4.1256685256958"><ele>470</ele><time>2026-4-28T10:59:0Z</time></trkpt>
<trkpt lat="46.967624664307" lon="4.1255869865417"><ele>470</ele><time>2026-4-28T10:59:3Z</time></trkpt>
<trkpt lat="46.967460632324" lon="4.1255073547363"><ele>469</ele><time>2026-4-28T10:59:6Z</time></trkpt>
<trkpt lat="46.967258453369" lon="4.1254258155823"><ele>468</ele><time>2026-4-28T10:59:9Z</time></trkpt>
<trkpt lat="46.96704864502" lon="4.1253128051758"><ele>466</ele><time>2026-4-28T10:59:12Z</time></trkpt>
<trkpt lat="46.966884613037" lon="4.1251444816589"><ele>465</ele><time>2026-4-28T10:59:15Z</time></trkpt>
<trkpt lat="46.966762542725" lon="4.1249208450317"><ele>465</ele><time>2026-4-28T10:59:18Z</time></trkpt>
<trkpt lat="46.966682434082" lon="4.1247005462646"><ele>465</ele><time>2026-4-28T10:59:21Z</time></trkpt>
<trkpt lat="46.96662902832" lon="4.1245193481445"><ele>465</ele><time>2026-4-28T10:59:24Z</time></trkpt>
<trkpt lat="46.966548919678" lon="4.1243920326233"><ele>466</ele><time>2026-4-28T10:59:27Z</time></trkpt>
<trkpt lat="46.96643447876" lon="4.1243100166321"><ele>466</ele><time>2026-4-28T10:59:30Z</time></trkpt>
<trkpt lat="46.966300964355" lon="4.1243000030518"><ele>465</ele><time>2026-4-28T10:59:33Z</time></trkpt>
<trkpt lat="46.966171264648" lon="4.124306678772"><ele>465</ele><time>2026-4-28T10:59:36Z</time></trkpt>
<trkpt lat="46.966053009033" lon="4.1243295669556"><ele>464</ele><time>2026-4-28T10:59:39Z</time></trkpt>
<trkpt lat="46.965965270996" lon="4.1243581771851"><ele>465</ele><time>2026-4-28T10:59:42Z</time></trkpt>
<trkpt lat="46.965965270996" lon="4.1243581771851"><ele>465</ele><time>2026-4-28T10:59:45Z</time></trkpt>
<trkpt lat="46.965885162354" lon="4.1243968009949"><ele>466</ele><time>2026-4-28T10:59:48Z</time></trkpt>
<trkpt lat="46.965793609619" lon="4.1244425773621"><ele>466</ele><time>2026-4-28T10:59:51Z</time></trkpt>
<trkpt lat="46.965724945068" lon="4.1244769096375"><ele>466</ele><time>2026-4-28T10:59:54Z</time></trkpt>
<trkpt lat="46.965724945068" lon="4.1244769096375"><ele>466</ele><time>2026-4-28T10:59:57Z</time></trkpt>
<trkpt lat="46.965660095215" lon="4.1245307922363"><ele>466</ele><time>2026-4-28T11:0:0Z</time></trkpt>
<trkpt lat="46.965595245361" lon="4.1245603561401"><ele>466</ele><time>2026-4-28T11:0:3Z</time></trkpt>
<trkpt lat="46.965538024902" lon="4.1245908737183"><ele>466</ele><time>2026-4-28T11:0:6Z</time></trkpt>
<trkpt lat="46.965469360352" lon="4.1246228218079"><ele>466</ele><time>2026-4-28T11:0:9Z</time></trkpt>
<trkpt lat="46.965385437012" lon="4.1246485710144"><ele>468</ele><time>2026-4-28T11:0:12Z</time></trkpt>
<trkpt lat="46.965305328369" lon="4.1246385574341"><ele>471</ele><time>2026-4-28T11:0:15Z</time></trkpt>
<trkpt lat="46.965236663818" lon="4.1245851516724"><ele>472</ele><time>2026-4-28T11:0:18Z</time></trkpt>
<trkpt lat="46.965190887451" lon="4.1244964599609"><ele>472</ele><time>2026-4-28T11:0:21Z</time></trkpt>
<trkpt lat="46.965167999268" lon="4.1243968009949"><ele>472</ele><time>2026-4-28T11:0:24Z</time></trkpt>
<trkpt lat="46.965152740479" lon="4.1243109703064"><ele>472</ele><time>2026-4-28T11:0:27Z</time></trkpt>
<trkpt lat="46.965152740479" lon="4.1243109703064"><ele>472</ele><time>2026-4-28T11:0:30Z</time></trkpt>
<trkpt lat="46.965141296387" lon="4.1242151260376"><ele>472</ele><time>2026-4-28T11:0:33Z</time></trkpt>
<trkpt lat="46.965129852295" lon="4.1241102218628"><ele>472</ele><time>2026-4-28T11:0:36Z</time></trkpt>
<trkpt lat="46.965129852295" lon="4.1241102218628"><ele>472</ele><time>2026-4-28T11:0:39Z</time></trkpt>
<trkpt lat="46.965129852295" lon="4.1241102218628"><ele>472</ele><time>2026-4-28T11:0:42Z</time></trkpt>
<trkpt lat="46.9651222229" lon="4.123966217041"><ele>472</ele><time>2026-4-28T11:0:45Z</time></trkpt>
<trkpt lat="46.965126037598" lon="4.1238832473755"><ele>472</ele><time>2026-4-28T11:0:48Z</time></trkpt>
<trkpt lat="46.965126037598" lon="4.1237926483154"><ele>472</ele><time>2026-4-28T11:0:51Z</time></trkpt>
<trkpt lat="46.965126037598" lon="4.1237926483154"><ele>472</ele><time>2026-4-28T11:0:54Z</time></trkpt>
<trkpt lat="46.965129852295" lon="4.1236500740051"><ele>473</ele><time>2026-4-28T11:0:57Z</time></trkpt>
<trkpt lat="46.965129852295" lon="4.1236500740051"><ele>473</ele><time>2026-4-28T11:1:0Z</time></trkpt>
<trkpt lat="46.965133666992" lon="4.1235618591309"><ele>473</ele><time>2026-4-28T11:1:3Z</time></trkpt>
<trkpt lat="46.965133666992" lon="4.1235618591309"><ele>473</ele><time>2026-4-28T11:1:6Z</time></trkpt>
<trkpt lat="46.965137481689" lon="4.1234483718872"><ele>474</ele><time>2026-4-28T11:1:9Z</time></trkpt>
<trkpt lat="46.965137481689" lon="4.1234483718872"><ele>474</ele><time>2026-4-28T11:1:12Z</time></trkpt>
<trkpt lat="46.965137481689" lon="4.1234483718872"><ele>474</ele><time>2026-4-28T11:1:15Z</time></trkpt>
<trkpt lat="46.965148925781" lon="4.1233234405518"><ele>474</ele><time>2026-4-28T11:1:18Z</time></trkpt>
<trkpt lat="46.965148925781" lon="4.1233234405518"><ele>474</ele><time>2026-4-28T11:1:21Z</time></trkpt>
<trkpt lat="46.965148925781" lon="4.1233234405518"><ele>474</ele><time>2026-4-28T11:1:24Z</time></trkpt>
<trkpt lat="46.965175628662" lon="4.1232028007507"><ele>475</ele><time>2026-4-28T11:1:27Z</time></trkpt>
<trkpt lat="46.965175628662" lon="4.1232028007507"><ele>475</ele><time>2026-4-28T11:1:30Z</time></trkpt>
<trkpt lat="46.965221405029" lon="4.1230893135071"><ele>475</ele><time>2026-4-28T11:1:33Z</time></trkpt>
<trkpt lat="46.965221405029" lon="4.1230893135071"><ele>475</ele><time>2026-4-28T11:1:36Z</time></trkpt>
<trkpt lat="46.965221405029" lon="4.1230893135071"><ele>475</ele><time>2026-4-28T11:1:39Z</time></trkpt>
<trkpt lat="46.965267181396" lon="4.122989654541"><ele>476</ele><time>2026-4-28T11:1:42Z</time></trkpt>
<trkpt lat="46.965267181396" lon="4.122989654541"><ele>476</ele><time>2026-4-28T11:1:45Z</time></trkpt>
<trkpt lat="46.965267181396" lon="4.122989654541"><ele>476</ele><time>2026-4-28T11:1:48Z</time></trkpt>
<trkpt lat="46.965309143066" lon="4.1229386329651"><ele>476</ele><time>2026-4-28T11:1:51Z</time></trkpt>
<trkpt lat="46.965309143066" lon="4.1229386329651"><ele>476</ele><time>2026-4-28T11:1:54Z</time></trkpt>
<trkpt lat="46.965309143066" lon="4.1229386329651"><ele>476</ele><time>2026-4-28T11:1:57Z</time></trkpt>
<trkpt lat="46.965309143066" lon="4.1229386329651"><ele>476</ele><time>2026-4-28T11:2:0Z</time></trkpt>
<trkpt lat="46.965366363525" lon="4.1228718757629"><ele>477</ele><time>2026-4-28T11:2:3Z</time></trkpt>
<trkpt lat="46.965366363525" lon="4.1228718757629"><ele>477</ele><time>2026-4-28T11:2:6Z</time></trkpt>
<trkpt lat="46.965366363525" lon="4.1228718757629"><ele>477</ele><time>2026-4-28T11:2:9Z</time></trkpt>
<trkpt lat="46.965366363525" lon="4.1228718757629"><ele>477</ele><time>2026-4-28T11:2:12Z</time></trkpt>
<trkpt lat="46.965366363525" lon="4.1228718757629"><ele>477</ele><time>2026-4-28T11:2:15Z</time></trkpt>
<trkpt lat="46.965366363525" lon="4.1228718757629"><ele>477</ele><time>2026-4-28T11:2:18Z</time></trkpt>
<trkpt lat="46.965366363525" lon="4.1228718757629"><ele>477</ele><time>2026-4-28T11:2:21Z</time></trkpt>
<trkpt lat="46.965366363525" lon="4.1228718757629"><ele>477</ele><time>2026-4-28T11:2:24Z</time></trkpt>
<trkpt lat="46.965366363525" lon="4.1228718757629"><ele>477</ele><time>2026-4-28T11:2:27Z</time></trkpt>
<trkpt lat="46.965366363525" lon="4.1228718757629"><ele>477</ele><time>2026-4-28T11:2:30Z</time></trkpt>
<trkpt lat="46.965366363525" lon="4.1228718757629"><ele>477</ele><time>2026-4-28T11:2:33Z</time></trkpt>
<trkpt lat="46.965366363525" lon="4.1228718757629"><ele>477</ele><time>2026-4-28T11:2:36Z</time></trkpt>
<trkpt lat="46.965366363525" lon="4.1228718757629"><ele>477</ele><time>2026-4-28T11:2:39Z</time></trkpt>
<trkpt lat="46.965366363525" lon="4.1228718757629"><ele>477</ele><time>2026-4-28T11:2:42Z</time></trkpt>
<trkpt lat="46.965366363525" lon="4.1228718757629"><ele>477</ele><time>2026-4-28T11:2:45Z</time></trkpt>
<trkpt lat="46.965366363525" lon="4.1228718757629"><ele>477</ele><time>2026-4-28T11:2:48Z</time></trkpt>
<trkpt lat="46.965366363525" lon="4.1228718757629"><ele>477</ele><time>2026-4-28T11:2:51Z</time></trkpt>
<trkpt lat="46.965366363525" lon="4.1228718757629"><ele>477</ele><time>2026-4-28T11:2:54Z</time></trkpt>
<trkpt lat="46.965366363525" lon="4.1228718757629"><ele>477</ele><time>2026-4-28T11:2:57Z</time></trkpt>
<trkpt lat="46.965351104736" lon="4.1227173805237"><ele>480</ele><time>2026-4-28T11:3:0Z</time></trkpt>
<trkpt lat="46.965343475342" lon="4.1226239204407"><ele>481</ele><time>2026-4-28T11:3:3Z</time></trkpt>
<trkpt lat="46.965343475342" lon="4.1226239204407"><ele>481</ele><time>2026-4-28T11:3:6Z</time></trkpt>
<trkpt lat="46.965335845947" lon="4.1224803924561"><ele>481</ele><time>2026-4-28T11:3:9Z</time></trkpt>
<trkpt lat="46.965335845947" lon="4.1224803924561"><ele>481</ele><time>2026-4-28T11:3:12Z</time></trkpt>
<trkpt lat="46.965328216553" lon="4.1223106384277"><ele>482</ele><time>2026-4-28T11:3:15Z</time></trkpt>
<trkpt lat="46.965320587158" lon="4.1221523284912"><ele>483</ele><time>2026-4-28T11:3:18Z</time></trkpt>
<trkpt lat="46.965320587158" lon="4.1221523284912"><ele>483</ele><time>2026-4-28T11:3:21Z</time></trkpt>
<trkpt lat="46.965320587158" lon="4.1219987869263"><ele>483</ele><time>2026-4-28T11:3:24Z</time></trkpt>
<trkpt lat="46.965320587158" lon="4.1219987869263"><ele>483</ele><time>2026-4-28T11:3:27Z</time></trkpt>
<trkpt lat="46.965335845947" lon="4.1218538284302"><ele>484</ele><time>2026-4-28T11:3:30Z</time></trkpt>
<trkpt lat="46.965335845947" lon="4.1218538284302"><ele>484</ele><time>2026-4-28T11:3:33Z</time></trkpt>
<trkpt lat="46.965343475342" lon="4.1217336654663"><ele>485</ele><time>2026-4-28T11:3:36Z</time></trkpt>
<trkpt lat="46.965343475342" lon="4.1217336654663"><ele>485</ele><time>2026-4-28T11:3:39Z</time></trkpt>
<trkpt lat="46.965343475342" lon="4.1217336654663"><ele>485</ele><time>2026-4-28T11:3:42Z</time></trkpt>
<trkpt lat="46.965366363525" lon="4.1216111183167"><ele>485</ele><time>2026-4-28T11:3:45Z</time></trkpt>
<trkpt lat="46.965366363525" lon="4.1216111183167"><ele>485</ele><time>2026-4-28T11:3:48Z</time></trkpt>
<trkpt lat="46.965366363525" lon="4.1216111183167"><ele>485</ele><time>2026-4-28T11:3:51Z</time></trkpt>
<trkpt lat="46.965393066406" lon="4.1214880943298"><ele>485</ele><time>2026-4-28T11:3:54Z</time></trkpt>
<trkpt lat="46.965412139893" lon="4.1214056015015"><ele>485</ele><time>2026-4-28T11:3:57Z</time></trkpt>
<trkpt lat="46.965438842773" lon="4.1213164329529"><ele>485</ele><time>2026-4-28T11:4:0Z</time></trkpt>
<trkpt lat="46.965438842773" lon="4.1213164329529"><ele>485</ele><time>2026-4-28T11:4:3Z</time></trkpt>
<trkpt lat="46.965484619141" lon="4.1211733818054"><ele>486</ele><time>2026-4-28T11:4:6Z</time></trkpt>
<trkpt lat="46.965484619141" lon="4.1211733818054"><ele>486</ele><time>2026-4-28T11:4:9Z</time></trkpt>
<trkpt lat="46.965534210205" lon="4.1210436820984"><ele>486</ele><time>2026-4-28T11:4:12Z</time></trkpt>
<trkpt lat="46.965534210205" lon="4.1210436820984"><ele>486</ele><time>2026-4-28T11:4:15Z</time></trkpt>
<trkpt lat="46.965572357178" lon="4.1209478378296"><ele>486</ele><time>2026-4-28T11:4:18Z</time></trkpt>
<trkpt lat="46.965572357178" lon="4.1209478378296"><ele>486</ele><time>2026-4-28T11:4:21Z</time></trkpt>
<trkpt lat="46.965572357178" lon="4.1209478378296"><ele>486</ele><time>2026-4-28T11:4:24Z</time></trkpt>
<trkpt lat="46.965618133545" lon="4.1208553314209"><ele>486</ele><time>2026-4-28T11:4:27Z</time></trkpt>
<trkpt lat="46.965618133545" lon="4.1208553314209"><ele>486</ele><time>2026-4-28T11:4:30Z</time></trkpt>
<trkpt lat="46.965641021729" lon="4.1207447052002"><ele>487</ele><time>2026-4-28T11:4:33Z</time></trkpt>
<trkpt lat="46.965633392334" lon="4.120596408844"><ele>487</ele><time>2026-4-28T11:4:36Z</time></trkpt>
<trkpt lat="46.965621948242" lon="4.120512008667"><ele>487</ele><time>2026-4-28T11:4:39Z</time></trkpt>
<trkpt lat="46.965602874756" lon="4.1204233169556"><ele>487</ele><time>2026-4-28T11:4:42Z</time></trkpt>
<trkpt lat="46.965572357178" lon="4.1203212738037"><ele>487</ele><time>2026-4-28T11:4:45Z</time></trkpt>
<trkpt lat="46.965545654297" lon="4.1202173233032"><ele>486</ele><time>2026-4-28T11:4:48Z</time></trkpt>
<trkpt lat="46.965515136719" lon="4.1201024055481"><ele>485</ele><time>2026-4-28T11:4:51Z</time></trkpt>
<trkpt lat="46.965488433838" lon="4.1199951171875"><ele>484</ele><time>2026-4-28T11:4:54Z</time></trkpt>
<trkpt lat="46.965461730957" lon="4.1198825836182"><ele>482</ele><time>2026-4-28T11:4:57Z</time></trkpt>
<trkpt lat="46.965442657471" lon="4.1197900772095"><ele>482</ele><time>2026-4-28T11:5:0Z</time></trkpt>
<trkpt lat="46.96541595459" lon="4.1196904182434"><ele>482</ele><time>2026-4-28T11:5:3Z</time></trkpt>
<trkpt lat="46.965396881104" lon="4.1195983886719"><ele>482</ele><time>2026-4-28T11:5:6Z</time></trkpt>
<trkpt lat="46.965377807617" lon="4.1195058822632"><ele>482</ele><time>2026-4-28T11:5:9Z</time></trkpt>
<trkpt lat="46.965358734131" lon="4.1194128990173"><ele>482</ele><time>2026-4-28T11:5:12Z</time></trkpt>
<trkpt lat="46.965339660645" lon="4.1192893981934"><ele>482</ele><time>2026-4-28T11:5:15Z</time></trkpt>
<trkpt lat="46.965316772461" lon="4.1191787719727"><ele>483</ele><time>2026-4-28T11:5:18Z</time></trkpt>
<trkpt lat="46.965293884277" lon="4.1190671920776"><ele>487</ele><time>2026-4-28T11:5:21Z</time></trkpt>
<trkpt lat="46.965267181396" lon="4.1189527511597"><ele>489</ele><time>2026-4-28T11:5:24Z</time></trkpt>
<trkpt lat="46.965236663818" lon="4.1188449859619"><ele>490</ele><time>2026-4-28T11:5:27Z</time></trkpt>
<trkpt lat="46.96520614624" lon="4.1187362670898"><ele>490</ele><time>2026-4-28T11:5:30Z</time></trkpt>
<trkpt lat="46.965175628662" lon="4.1186370849609"><ele>490</ele><time>2026-4-28T11:5:33Z</time></trkpt>
<trkpt lat="46.965148925781" lon="4.1185340881348"><ele>490</ele><time>2026-4-28T11:5:36Z</time></trkpt>
<trkpt lat="46.965118408203" lon="4.1184206008911"><ele>490</ele><time>2026-4-28T11:5:39Z</time></trkpt>
<trkpt lat="46.96509552002" lon="4.1183195114136"><ele>490</ele><time>2026-4-28T11:5:42Z</time></trkpt>
<trkpt lat="46.965076446533" lon="4.1182279586792"><ele>489</ele><time>2026-4-28T11:5:45Z</time></trkpt>
<trkpt lat="46.965057373047" lon="4.1181359291077"><ele>489</ele><time>2026-4-28T11:5:48Z</time></trkpt>
<trkpt lat="46.965042114258" lon="4.1180543899536"><ele>489</ele><time>2026-4-28T11:5:51Z</time></trkpt>
<trkpt lat="46.965019226074" lon="4.117968082428"><ele>489</ele><time>2026-4-28T11:5:54Z</time></trkpt>
<trkpt lat="46.964992523193" lon="4.1178712844849"><ele>489</ele><time>2026-4-28T11:5:57Z</time></trkpt>
<trkpt lat="46.96496963501" lon="4.1177787780762"><ele>489</ele><time>2026-4-28T11:6:0Z</time></trkpt>
<trkpt lat="46.964942932129" lon="4.1176700592041"><ele>488</ele><time>2026-4-28T11:6:3Z</time></trkpt>
<trkpt lat="46.964916229248" lon="4.1175718307495"><ele>488</ele><time>2026-4-28T11:6:6Z</time></trkpt>
<trkpt lat="46.964897155762" lon="4.1174650192261"><ele>488</ele><time>2026-4-28T11:6:9Z</time></trkpt>
<trkpt lat="46.964878082275" lon="4.1173601150513"><ele>488</ele><time>2026-4-28T11:6:12Z</time></trkpt>
<trkpt lat="46.964862823486" lon="4.1172552108765"><ele>487</ele><time>2026-4-28T11:6:15Z</time></trkpt>
<trkpt lat="46.964847564697" lon="4.1171207427979"><ele>487</ele><time>2026-4-28T11:6:18Z</time></trkpt>
<trkpt lat="46.964839935303" lon="4.1170258522034"><ele>487</ele><time>2026-4-28T11:6:21Z</time></trkpt>
<trkpt lat="46.964839935303" lon="4.1170258522034"><ele>487</ele><time>2026-4-28T11:6:24Z</time></trkpt>
<trkpt lat="46.964828491211" lon="4.1169390678406"><ele>488</ele><time>2026-4-28T11:6:27Z</time></trkpt>
<trkpt lat="46.964820861816" lon="4.1168403625488"><ele>488</ele><time>2026-4-28T11:6:30Z</time></trkpt>
<trkpt lat="46.964809417725" lon="4.1167411804199"><ele>488</ele><time>2026-4-28T11:6:33Z</time></trkpt>
<trkpt lat="46.964797973633" lon="4.1166396141052"><ele>488</ele><time>2026-4-28T11:6:36Z</time></trkpt>
<trkpt lat="46.964794158936" lon="4.1165385246277"><ele>488</ele><time>2026-4-28T11:6:39Z</time></trkpt>
<trkpt lat="46.964790344238" lon="4.1163506507874"><ele>488</ele><time>2026-4-28T11:6:42Z</time></trkpt>
<trkpt lat="46.96480178833" lon="4.1162614822388"><ele>488</ele><time>2026-4-28T11:6:45Z</time></trkpt>
<trkpt lat="46.96480178833" lon="4.1162614822388"><ele>488</ele><time>2026-4-28T11:6:48Z</time></trkpt>
<trkpt lat="46.964828491211" lon="4.1161112785339"><ele>488</ele><time>2026-4-28T11:6:51Z</time></trkpt>
<trkpt lat="46.964828491211" lon="4.1161112785339"><ele>488</ele><time>2026-4-28T11:6:54Z</time></trkpt>
<trkpt lat="46.96484375" lon="4.1159949302673"><ele>488</ele><time>2026-4-28T11:6:57Z</time></trkpt>
<trkpt lat="46.96484375" lon="4.1159949302673"><ele>488</ele><time>2026-4-28T11:7:0Z</time></trkpt>
<trkpt lat="46.964851379395" lon="4.1158666610718"><ele>488</ele><time>2026-4-28T11:7:3Z</time></trkpt>
<trkpt lat="46.964851379395" lon="4.1158666610718"><ele>488</ele><time>2026-4-28T11:7:6Z</time></trkpt>
<trkpt lat="46.964839935303" lon="4.1157326698303"><ele>488</ele><time>2026-4-28T11:7:9Z</time></trkpt>
<trkpt lat="46.964839935303" lon="4.1157326698303"><ele>488</ele><time>2026-4-28T11:7:12Z</time></trkpt>
<trkpt lat="46.964839935303" lon="4.1157326698303"><ele>488</ele><time>2026-4-28T11:7:15Z</time></trkpt>
<trkpt lat="46.964820861816" lon="4.115599155426"><ele>488</ele><time>2026-4-28T11:7:18Z</time></trkpt>
<trkpt lat="46.964820861816" lon="4.115599155426"><ele>488</ele><time>2026-4-28T11:7:21Z</time></trkpt>
<trkpt lat="46.964809417725" lon="4.1154947280884"><ele>489</ele><time>2026-4-28T11:7:24Z</time></trkpt>
<trkpt lat="46.964809417725" lon="4.1154947280884"><ele>489</ele><time>2026-4-28T11:7:27Z</time></trkpt>
<trkpt lat="46.964809417725" lon="4.1154947280884"><ele>489</ele><time>2026-4-28T11:7:30Z</time></trkpt>
<trkpt lat="46.964794158936" lon="4.1153593063354"><ele>489</ele><time>2026-4-28T11:7:33Z</time></trkpt>
<trkpt lat="46.964794158936" lon="4.1153593063354"><ele>489</ele><time>2026-4-28T11:7:36Z</time></trkpt>
<trkpt lat="46.964775085449" lon="4.115261554718"><ele>490</ele><time>2026-4-28T11:7:39Z</time></trkpt>
<trkpt lat="46.964775085449" lon="4.115261554718"><ele>490</ele><time>2026-4-28T11:7:42Z</time></trkpt>
<trkpt lat="46.964763641357" lon="4.1151561737061"><ele>490</ele><time>2026-4-28T11:7:45Z</time></trkpt>
<trkpt lat="46.964767456055" lon="4.1150302886963"><ele>490</ele><time>2026-4-28T11:7:48Z</time></trkpt>
<trkpt lat="46.964767456055" lon="4.1150302886963"><ele>490</ele><time>2026-4-28T11:7:51Z</time></trkpt>
<trkpt lat="46.964782714844" lon="4.1149182319641"><ele>490</ele><time>2026-4-28T11:7:54Z</time></trkpt>
<trkpt lat="46.964782714844" lon="4.1149182319641"><ele>490</ele><time>2026-4-28T11:7:57Z</time></trkpt>
<trkpt lat="46.964782714844" lon="4.1149182319641"><ele>490</ele><time>2026-4-28T11:8:0Z</time></trkpt>
<trkpt lat="46.964828491211" lon="4.1148080825806"><ele>490</ele><time>2026-4-28T11:8:3Z</time></trkpt>
<trkpt lat="46.964828491211" lon="4.1148080825806"><ele>490</ele><time>2026-4-28T11:8:6Z</time></trkpt>
<trkpt lat="46.964874267578" lon="4.1147313117981"><ele>490</ele><time>2026-4-28T11:8:9Z</time></trkpt>
<trkpt lat="46.964874267578" lon="4.1147313117981"><ele>490</ele><time>2026-4-28T11:8:12Z</time></trkpt>
<trkpt lat="46.964874267578" lon="4.1147313117981"><ele>490</ele><time>2026-4-28T11:8:15Z</time></trkpt>
<trkpt lat="46.96492767334" lon="4.1146473884583"><ele>491</ele><time>2026-4-28T11:8:18Z</time></trkpt>
<trkpt lat="46.96492767334" lon="4.1146473884583"><ele>491</ele><time>2026-4-28T11:8:21Z</time></trkpt>
<trkpt lat="46.964965820312" lon="4.1145834922791"><ele>492</ele><time>2026-4-28T11:8:24Z</time></trkpt>
<trkpt lat="46.964965820312" lon="4.1145834922791"><ele>492</ele><time>2026-4-28T11:8:27Z</time></trkpt>
<trkpt lat="46.965007781982" lon="4.1145267486572"><ele>493</ele><time>2026-4-28T11:8:30Z</time></trkpt>
<trkpt lat="46.965007781982" lon="4.1145267486572"><ele>493</ele><time>2026-4-28T11:8:33Z</time></trkpt>
<trkpt lat="46.965007781982" lon="4.1145267486572"><ele>493</ele><time>2026-4-28T11:8:36Z</time></trkpt>
<trkpt lat="46.96505355835" lon="4.1144480705261"><ele>493</ele><time>2026-4-28T11:8:39Z</time></trkpt>
<trkpt lat="46.96505355835" lon="4.1144480705261"><ele>493</ele><time>2026-4-28T11:8:42Z</time></trkpt>
<trkpt lat="46.96505355835" lon="4.1144480705261"><ele>493</ele><time>2026-4-28T11:8:45Z</time></trkpt>
<trkpt lat="46.96509552002" lon="4.1143364906311"><ele>494</ele><time>2026-4-28T11:8:48Z</time></trkpt>
<trkpt lat="46.96509552002" lon="4.1143364906311"><ele>494</ele><time>2026-4-28T11:8:51Z</time></trkpt>
<trkpt lat="46.965137481689" lon="4.1142506599426"><ele>496</ele><time>2026-4-28T11:8:54Z</time></trkpt>
<trkpt lat="46.965137481689" lon="4.1142506599426"><ele>496</ele><time>2026-4-28T11:8:57Z</time></trkpt>
<trkpt lat="46.965137481689" lon="4.1142506599426"><ele>496</ele><time>2026-4-28T11:9:0Z</time></trkpt>
<trkpt lat="46.965137481689" lon="4.1142506599426"><ele>496</ele><time>2026-4-28T11:9:3Z</time></trkpt>
<trkpt lat="46.965137481689" lon="4.1142506599426"><ele>496</ele><time>2026-4-28T11:9:6Z</time></trkpt>
<trkpt lat="46.965137481689" lon="4.1142506599426"><ele>496</ele><time>2026-4-28T11:9:9Z</time></trkpt>
<trkpt lat="46.965137481689" lon="4.1142506599426"><ele>496</ele><time>2026-4-28T11:9:12Z</time></trkpt>
<trkpt lat="46.965137481689" lon="4.1142506599426"><ele>496</ele><time>2026-4-28T11:9:15Z</time></trkpt>
<trkpt lat="46.965137481689" lon="4.1142506599426"><ele>496</ele><time>2026-4-28T11:9:18Z</time></trkpt>
<trkpt lat="46.965137481689" lon="4.1142506599426"><ele>496</ele><time>2026-4-28T11:9:21Z</time></trkpt>
<trkpt lat="46.965137481689" lon="4.1142506599426"><ele>496</ele><time>2026-4-28T11:9:24Z</time></trkpt>
<trkpt lat="46.965137481689" lon="4.1142506599426"><ele>496</ele><time>2026-4-28T11:9:27Z</time></trkpt>
<trkpt lat="46.965137481689" lon="4.1142506599426"><ele>496</ele><time>2026-4-28T11:9:30Z</time></trkpt>
<trkpt lat="46.965137481689" lon="4.1142506599426"><ele>496</ele><time>2026-4-28T11:9:33Z</time></trkpt>
<trkpt lat="46.965137481689" lon="4.1142506599426"><ele>496</ele><time>2026-4-28T11:9:36Z</time></trkpt>
<trkpt lat="46.965137481689" lon="4.1142506599426"><ele>496</ele><time>2026-4-28T11:9:39Z</time></trkpt>
<trkpt lat="46.965137481689" lon="4.1142506599426"><ele>496</ele><time>2026-4-28T11:9:42Z</time></trkpt>
<trkpt lat="46.965137481689" lon="4.1142506599426"><ele>496</ele><time>2026-4-28T11:9:45Z</time></trkpt>
<trkpt lat="46.965137481689" lon="4.1142506599426"><ele>496</ele><time>2026-4-28T11:9:48Z</time></trkpt>
<trkpt lat="46.965137481689" lon="4.1140937805176"><ele>502</ele><time>2026-4-28T11:9:51Z</time></trkpt>
<trkpt lat="46.965141296387" lon="4.1140022277832"><ele>502</ele><time>2026-4-28T11:9:54Z</time></trkpt>
<trkpt lat="46.965148925781" lon="4.11394739151"><ele>503</ele><time>2026-4-28T11:9:57Z</time></trkpt>
<trkpt lat="46.965148925781" lon="4.11394739151"><ele>503</ele><time>2026-4-28T11:10:0Z</time></trkpt>
<trkpt lat="46.965156555176" lon="4.1139025688171"><ele>503</ele><time>2026-4-28T11:10:3Z</time></trkpt>
<trkpt lat="46.965156555176" lon="4.1139025688171"><ele>503</ele><time>2026-4-28T11:10:6Z</time></trkpt>
<trkpt lat="46.96516418457" lon="4.1138610839844"><ele>503</ele><time>2026-4-28T11:10:9Z</time></trkpt>
<trkpt lat="46.96516418457" lon="4.1138610839844"><ele>503</ele><time>2026-4-28T11:10:12Z</time></trkpt>
<trkpt lat="46.96516418457" lon="4.1138610839844"><ele>503</ele><time>2026-4-28T11:10:15Z</time></trkpt>
<trkpt lat="46.965183258057" lon="4.1138143539429"><ele>504</ele><time>2026-4-28T11:10:18Z</time></trkpt>
<trkpt lat="46.965194702148" lon="4.1137752532959"><ele>504</ele><time>2026-4-28T11:10:21Z</time></trkpt>
<trkpt lat="46.965194702148" lon="4.1137752532959"><ele>504</ele><time>2026-4-28T11:10:24Z</time></trkpt>
<trkpt lat="46.965194702148" lon="4.1137752532959"><ele>504</ele><time>2026-4-28T11:10:27Z</time></trkpt>
<trkpt lat="46.965194702148" lon="4.113715171814"><ele>505</ele><time>2026-4-28T11:10:30Z</time></trkpt>
<trkpt lat="46.965194702148" lon="4.1136689186096"><ele>505</ele><time>2026-4-28T11:10:33Z</time></trkpt>
<trkpt lat="46.965194702148" lon="4.1136689186096"><ele>505</ele><time>2026-4-28T11:10:36Z</time></trkpt>
<trkpt lat="46.965187072754" lon="4.1136102676392"><ele>505</ele><time>2026-4-28T11:10:39Z</time></trkpt>
<trkpt lat="46.965183258057" lon="4.1135601997375"><ele>505</ele><time>2026-4-28T11:10:42Z</time></trkpt>
<trkpt lat="46.965183258057" lon="4.1135601997375"><ele>505</ele><time>2026-4-28T11:10:45Z</time></trkpt>
<trkpt lat="46.965171813965" lon="4.11350440979"><ele>506</ele><time>2026-4-28T11:10:48Z</time></trkpt>
<trkpt lat="46.965167999268" lon="4.1134614944458"><ele>506</ele><time>2026-4-28T11:10:51Z</time></trkpt>
<trkpt lat="46.965167999268" lon="4.1134614944458"><ele>506</ele><time>2026-4-28T11:10:54Z</time></trkpt>
<trkpt lat="46.965167999268" lon="4.1134614944458"><ele>506</ele><time>2026-4-28T11:10:57Z</time></trkpt>
<trkpt lat="46.965160369873" lon="4.1134066581726"><ele>507</ele><time>2026-4-28T11:11:0Z</time></trkpt>
<trkpt lat="46.965152740479" lon="4.1133599281311"><ele>507</ele><time>2026-4-28T11:11:3Z</time></trkpt>
<trkpt lat="46.965152740479" lon="4.1133599281311"><ele>507</ele><time>2026-4-28T11:11:6Z</time></trkpt>
<trkpt lat="46.965141296387" lon="4.1133184432983"><ele>508</ele><time>2026-4-28T11:11:9Z</time></trkpt>
<trkpt lat="46.965141296387" lon="4.1133184432983"><ele>508</ele><time>2026-4-28T11:11:12Z</time></trkpt>
<trkpt lat="46.965137481689" lon="4.1132750511169"><ele>509</ele><time>2026-4-28T11:11:15Z</time></trkpt>
<trkpt lat="46.965137481689" lon="4.1132750511169"><ele>509</ele><time>2026-4-28T11:11:18Z</time></trkpt>
<trkpt lat="46.965137481689" lon="4.1132750511169"><ele>509</ele><time>2026-4-28T11:11:21Z</time></trkpt>
<trkpt lat="46.965141296387" lon="4.1132278442383"><ele>510</ele><time>2026-4-28T11:11:24Z</time></trkpt>
<trkpt lat="46.965141296387" lon="4.1132278442383"><ele>510</ele><time>2026-4-28T11:11:27Z</time></trkpt>
<trkpt lat="46.965141296387" lon="4.1132278442383"><ele>510</ele><time>2026-4-28T11:11:30Z</time></trkpt>
<trkpt lat="46.965160369873" lon="4.113184928894"><ele>511</ele><time>2026-4-28T11:11:33Z</time></trkpt>
<trkpt lat="46.965183258057" lon="4.1131529808044"><ele>511</ele><time>2026-4-28T11:11:36Z</time></trkpt>
<trkpt lat="46.965202331543" lon="4.1131224632263"><ele>511</ele><time>2026-4-28T11:11:39Z</time></trkpt>
<trkpt lat="46.965202331543" lon="4.1131224632263"><ele>511</ele><time>2026-4-28T11:11:42Z</time></trkpt>
<trkpt lat="46.965202331543" lon="4.1131224632263"><ele>511</ele><time>2026-4-28T11:11:45Z</time></trkpt>
<trkpt lat="46.965240478516" lon="4.113064289093"><ele>512</ele><time>2026-4-28T11:11:48Z</time></trkpt>
<trkpt lat="46.965274810791" lon="4.1130132675171"><ele>512</ele><time>2026-4-28T11:11:51Z</time></trkpt>
<trkpt lat="46.965274810791" lon="4.1130132675171"><ele>512</ele><time>2026-4-28T11:11:54Z</time></trkpt>
<trkpt lat="46.965293884277" lon="4.1129789352417"><ele>512</ele><time>2026-4-28T11:11:57Z</time></trkpt>
<trkpt lat="46.965320587158" lon="4.1129393577576"><ele>513</ele><time>2026-4-28T11:12:0Z</time></trkpt>
<trkpt lat="46.965335845947" lon="4.1129035949707"><ele>513</ele><time>2026-4-28T11:12:3Z</time></trkpt>
<trkpt lat="46.965335845947" lon="4.1129035949707"><ele>513</ele><time>2026-4-28T11:12:6Z</time></trkpt>
<trkpt lat="46.965351104736" lon="4.112859249115"><ele>513</ele><time>2026-4-28T11:12:9Z</time></trkpt>
<trkpt lat="46.965351104736" lon="4.112859249115"><ele>513</ele><time>2026-4-28T11:12:12Z</time></trkpt>
<trkpt lat="46.965366363525" lon="4.1128220558167"><ele>514</ele><time>2026-4-28T11:12:15Z</time></trkpt>
<trkpt lat="46.965366363525" lon="4.1128220558167"><ele>514</ele><time>2026-4-28T11:12:18Z</time></trkpt>
<trkpt lat="46.965366363525" lon="4.1128220558167"><ele>514</ele><time>2026-4-28T11:12:21Z</time></trkpt>
<trkpt lat="46.965381622314" lon="4.1127843856812"><ele>514</ele><time>2026-4-28T11:12:24Z</time></trkpt>
<trkpt lat="46.965381622314" lon="4.1127843856812"><ele>514</ele><time>2026-4-28T11:12:27Z</time></trkpt>
<trkpt lat="46.965381622314" lon="4.1127843856812"><ele>514</ele><time>2026-4-28T11:12:30Z</time></trkpt>
<trkpt lat="46.965400695801" lon="4.1127271652222"><ele>515</ele><time>2026-4-28T11:12:33Z</time></trkpt>
<trkpt lat="46.96541595459" lon="4.112687587738"><ele>515</ele><time>2026-4-28T11:12:36Z</time></trkpt>
<trkpt lat="46.96541595459" lon="4.112687587738"><ele>515</ele><time>2026-4-28T11:12:39Z</time></trkpt>
<trkpt lat="46.96541595459" lon="4.112687587738"><ele>515</ele><time>2026-4-28T11:12:42Z</time></trkpt>
<trkpt lat="46.96541595459" lon="4.112687587738"><ele>515</ele><time>2026-4-28T11:12:45Z</time></trkpt>
<trkpt lat="46.96541595459" lon="4.112687587738"><ele>515</ele><time>2026-4-28T11:12:48Z</time></trkpt>
<trkpt lat="46.96541595459" lon="4.112687587738"><ele>515</ele><time>2026-4-28T11:12:51Z</time></trkpt>
<trkpt lat="46.96541595459" lon="4.112687587738"><ele>515</ele><time>2026-4-28T11:12:54Z</time></trkpt>
<trkpt lat="46.96541595459" lon="4.112687587738"><ele>515</ele><time>2026-4-28T11:12:57Z</time></trkpt>
<trkpt lat="46.96541595459" lon="4.112687587738"><ele>515</ele><time>2026-4-28T11:13:0Z</time></trkpt>
<trkpt lat="46.96541595459" lon="4.112687587738"><ele>515</ele><time>2026-4-28T11:13:3Z</time></trkpt>
<trkpt lat="46.965450286865" lon="4.1124300956726"><ele>518</ele><time>2026-4-28T11:13:6Z</time></trkpt>
<trkpt lat="46.965473175049" lon="4.1122860908508"><ele>519</ele><time>2026-4-28T11:13:9Z</time></trkpt>
<trkpt lat="46.965492248535" lon="4.1122016906738"><ele>519</ele><time>2026-4-28T11:13:12Z</time></trkpt>
<trkpt lat="46.965507507324" lon="4.1121406555176"><ele>519</ele><time>2026-4-28T11:13:15Z</time></trkpt>
<trkpt lat="46.965515136719" lon="4.1121020317078"><ele>519</ele><time>2026-4-28T11:13:18Z</time></trkpt>
<trkpt lat="46.965515136719" lon="4.1121020317078"><ele>519</ele><time>2026-4-28T11:13:21Z</time></trkpt>
<trkpt lat="46.965545654297" lon="4.1120281219482"><ele>519</ele><time>2026-4-28T11:13:24Z</time></trkpt>
<trkpt lat="46.965545654297" lon="4.1120281219482"><ele>519</ele><time>2026-4-28T11:13:27Z</time></trkpt>
<trkpt lat="46.965545654297" lon="4.1120281219482"><ele>519</ele><time>2026-4-28T11:13:30Z</time></trkpt>
<trkpt lat="46.965545654297" lon="4.1120281219482"><ele>519</ele><time>2026-4-28T11:13:33Z</time></trkpt>
<trkpt lat="46.965545654297" lon="4.1120281219482"><ele>519</ele><time>2026-4-28T11:13:36Z</time></trkpt>
<trkpt lat="46.965564727783" lon="4.1119351387024"><ele>520</ele><time>2026-4-28T11:13:39Z</time></trkpt>
<trkpt lat="46.965564727783" lon="4.1119351387024"><ele>520</ele><time>2026-4-28T11:13:42Z</time></trkpt>
<trkpt lat="46.96558380127" lon="4.1118569374084"><ele>521</ele><time>2026-4-28T11:13:45Z</time></trkpt>
<trkpt lat="46.96558380127" lon="4.1118569374084"><ele>521</ele><time>2026-4-28T11:13:48Z</time></trkpt>
<trkpt lat="46.96558380127" lon="4.1118569374084"><ele>521</ele><time>2026-4-28T11:13:51Z</time></trkpt>
<trkpt lat="46.96561050415" lon="4.1117806434631"><ele>522</ele><time>2026-4-28T11:13:54Z</time></trkpt>
<trkpt lat="46.96561050415" lon="4.1117806434631"><ele>522</ele><time>2026-4-28T11:13:57Z</time></trkpt>
<trkpt lat="46.96561050415" lon="4.1117806434631"><ele>522</ele><time>2026-4-28T11:14:0Z</time></trkpt>
<trkpt lat="46.965641021729" lon="4.1116981506348"><ele>524</ele><time>2026-4-28T11:14:3Z</time></trkpt>
<trkpt lat="46.965641021729" lon="4.1116981506348"><ele>524</ele><time>2026-4-28T11:14:6Z</time></trkpt>
<trkpt lat="46.965641021729" lon="4.1116981506348"><ele>524</ele><time>2026-4-28T11:14:9Z</time></trkpt>
<trkpt lat="46.965667724609" lon="4.1116013526917"><ele>525</ele><time>2026-4-28T11:14:12Z</time></trkpt>
<trkpt lat="46.965667724609" lon="4.1116013526917"><ele>525</ele><time>2026-4-28T11:14:15Z</time></trkpt>
<trkpt lat="46.965667724609" lon="4.1116013526917"><ele>525</ele><time>2026-4-28T11:14:18Z</time></trkpt>
<trkpt lat="46.965675354004" lon="4.1115031242371"><ele>525</ele><time>2026-4-28T11:14:21Z</time></trkpt>
<trkpt lat="46.965675354004" lon="4.1115031242371"><ele>525</ele><time>2026-4-28T11:14:24Z</time></trkpt>
<trkpt lat="46.965702056885" lon="4.111430644989"><ele>524</ele><time>2026-4-28T11:14:27Z</time></trkpt>
<trkpt lat="46.965702056885" lon="4.111430644989"><ele>524</ele><time>2026-4-28T11:14:30Z</time></trkpt>
<trkpt lat="46.965702056885" lon="4.111430644989"><ele>524</ele><time>2026-4-28T11:14:33Z</time></trkpt>
<trkpt lat="46.965702056885" lon="4.111430644989"><ele>524</ele><time>2026-4-28T11:14:36Z</time></trkpt>
<trkpt lat="46.965740203857" lon="4.1113448143005"><ele>524</ele><time>2026-4-28T11:14:39Z</time></trkpt>
<trkpt lat="46.965740203857" lon="4.1113448143005"><ele>524</ele><time>2026-4-28T11:14:42Z</time></trkpt>
<trkpt lat="46.965740203857" lon="4.1113448143005"><ele>524</ele><time>2026-4-28T11:14:45Z</time></trkpt>
<trkpt lat="46.965770721436" lon="4.1112623214722"><ele>524</ele><time>2026-4-28T11:14:48Z</time></trkpt>
<trkpt lat="46.965770721436" lon="4.1112623214722"><ele>524</ele><time>2026-4-28T11:14:51Z</time></trkpt>
<trkpt lat="46.965782165527" lon="4.1112122535706"><ele>525</ele><time>2026-4-28T11:14:54Z</time></trkpt>
<trkpt lat="46.965782165527" lon="4.1112122535706"><ele>525</ele><time>2026-4-28T11:14:57Z</time></trkpt>
<trkpt lat="46.965789794922" lon="4.1111621856689"><ele>526</ele><time>2026-4-28T11:15:0Z</time></trkpt>
<trkpt lat="46.965801239014" lon="4.1111226081848"><ele>526</ele><time>2026-4-28T11:15:3Z</time></trkpt>
<trkpt lat="46.965801239014" lon="4.1111226081848"><ele>526</ele><time>2026-4-28T11:15:6Z</time></trkpt>
<trkpt lat="46.965812683105" lon="4.1110744476318"><ele>527</ele><time>2026-4-28T11:15:9Z</time></trkpt>
<trkpt lat="46.965812683105" lon="4.1110744476318"><ele>527</ele><time>2026-4-28T11:15:12Z</time></trkpt>
<trkpt lat="46.965812683105" lon="4.1110744476318"><ele>527</ele><time>2026-4-28T11:15:15Z</time></trkpt>
<trkpt lat="46.965827941895" lon="4.1109962463379"><ele>528</ele><time>2026-4-28T11:15:18Z</time></trkpt>
<trkpt lat="46.965839385986" lon="4.110942363739"><ele>528</ele><time>2026-4-28T11:15:21Z</time></trkpt>
<trkpt lat="46.965854644775" lon="4.1108975410461"><ele>529</ele><time>2026-4-28T11:15:24Z</time></trkpt>
<trkpt lat="46.965854644775" lon="4.1108975410461"><ele>529</ele><time>2026-4-28T11:15:27Z</time></trkpt>
<trkpt lat="46.965869903564" lon="4.1108469963074"><ele>529</ele><time>2026-4-28T11:15:30Z</time></trkpt>
<trkpt lat="46.965877532959" lon="4.1107974052429"><ele>529</ele><time>2026-4-28T11:15:33Z</time></trkpt>
<trkpt lat="46.965885162354" lon="4.11075258255"><ele>530</ele><time>2026-4-28T11:15:36Z</time></trkpt>
<trkpt lat="46.965885162354" lon="4.11075258255"><ele>530</ele><time>2026-4-28T11:15:39Z</time></trkpt>
<trkpt lat="46.965885162354" lon="4.11075258255"><ele>530</ele><time>2026-4-28T11:15:42Z</time></trkpt>
<trkpt lat="46.965900421143" lon="4.1107077598572"><ele>531</ele><time>2026-4-28T11:15:45Z</time></trkpt>
<trkpt lat="46.965915679932" lon="4.1106715202332"><ele>531</ele><time>2026-4-28T11:15:48Z</time></trkpt>
<trkpt lat="46.965938568115" lon="4.1106395721436"><ele>531</ele><time>2026-4-28T11:15:51Z</time></trkpt>
<trkpt lat="46.965938568115" lon="4.1106395721436"><ele>531</ele><time>2026-4-28T11:15:54Z</time></trkpt>
<trkpt lat="46.965938568115" lon="4.1106395721436"><ele>531</ele><time>2026-4-28T11:15:57Z</time></trkpt>
<trkpt lat="46.965938568115" lon="4.1106395721436"><ele>531</ele><time>2026-4-28T11:16:0Z</time></trkpt>
<trkpt lat="46.965938568115" lon="4.1106395721436"><ele>531</ele><time>2026-4-28T11:16:3Z</time></trkpt>
<trkpt lat="46.965938568115" lon="4.1106395721436"><ele>531</ele><time>2026-4-28T11:16:6Z</time></trkpt>
<trkpt lat="46.965938568115" lon="4.1106395721436"><ele>531</ele><time>2026-4-28T11:16:9Z</time></trkpt>
<trkpt lat="46.965938568115" lon="4.1106395721436"><ele>531</ele><time>2026-4-28T11:16:12Z</time></trkpt>
<trkpt lat="46.965938568115" lon="4.1106395721436"><ele>531</ele><time>2026-4-28T11:16:15Z</time></trkpt>
<trkpt lat="46.965938568115" lon="4.1106395721436"><ele>531</ele><time>2026-4-28T11:16:18Z</time></trkpt>
<trkpt lat="46.965938568115" lon="4.1106395721436"><ele>531</ele><time>2026-4-28T11:16:21Z</time></trkpt>
<trkpt lat="46.965938568115" lon="4.1106395721436"><ele>531</ele><time>2026-4-28T11:16:24Z</time></trkpt>
<trkpt lat="46.965938568115" lon="4.1106395721436"><ele>531</ele><time>2026-4-28T11:16:27Z</time></trkpt>
<trkpt lat="46.965938568115" lon="4.1106395721436"><ele>531</ele><time>2026-4-28T11:16:30Z</time></trkpt>
<trkpt lat="46.965938568115" lon="4.1106395721436"><ele>531</ele><time>2026-4-28T11:16:33Z</time></trkpt>
<trkpt lat="46.965938568115" lon="4.1106395721436"><ele>531</ele><time>2026-4-28T11:16:36Z</time></trkpt>
<trkpt lat="46.965938568115" lon="4.1106395721436"><ele>531</ele><time>2026-4-28T11:16:39Z</time></trkpt>
<trkpt lat="46.965938568115" lon="4.1106395721436"><ele>531</ele><time>2026-4-28T11:16:42Z</time></trkpt>
<trkpt lat="46.965938568115" lon="4.1106395721436"><ele>531</ele><time>2026-4-28T11:16:45Z</time></trkpt>
<trkpt lat="46.965938568115" lon="4.1106395721436"><ele>531</ele><time>2026-4-28T11:16:48Z</time></trkpt>
<trkpt lat="46.965938568115" lon="4.1106395721436"><ele>531</ele><time>2026-4-28T11:16:51Z</time></trkpt>
<trkpt lat="46.965938568115" lon="4.1106395721436"><ele>531</ele><time>2026-4-28T11:16:54Z</time></trkpt>
<trkpt lat="46.965938568115" lon="4.1106395721436"><ele>531</ele><time>2026-4-28T11:16:57Z</time></trkpt>
<trkpt lat="46.965938568115" lon="4.1106395721436"><ele>531</ele><time>2026-4-28T11:17:0Z</time></trkpt>
<trkpt lat="46.965938568115" lon="4.1106395721436"><ele>531</ele><time>2026-4-28T11:17:3Z</time></trkpt>
<trkpt lat="46.965938568115" lon="4.1106395721436"><ele>531</ele><time>2026-4-28T11:17:6Z</time></trkpt>
<trkpt lat="46.966003417969" lon="4.1099314689636"><ele>552</ele><time>2026-4-28T11:17:9Z</time></trkpt>
<trkpt lat="46.966026306152" lon="4.1095571517944"><ele>551</ele><time>2026-4-28T11:17:12Z</time></trkpt>
<trkpt lat="46.966037750244" lon="4.1093611717224"><ele>551</ele><time>2026-4-28T11:17:15Z</time></trkpt>
<trkpt lat="46.966041564941" lon="4.1092462539673"><ele>551</ele><time>2026-4-28T11:17:18Z</time></trkpt>
<trkpt lat="46.966041564941" lon="4.1092462539673"><ele>551</ele><time>2026-4-28T11:17:21Z</time></trkpt>
<trkpt lat="46.966041564941" lon="4.1092462539673"><ele>551</ele><time>2026-4-28T11:17:24Z</time></trkpt>
<trkpt lat="46.966041564941" lon="4.1092462539673"><ele>551</ele><time>2026-4-28T11:17:27Z</time></trkpt>
<trkpt lat="46.966041564941" lon="4.1092462539673"><ele>551</ele><time>2026-4-28T11:17:30Z</time></trkpt>
<trkpt lat="46.966041564941" lon="4.1092462539673"><ele>551</ele><time>2026-4-28T11:17:33Z</time></trkpt>
<trkpt lat="46.966033935547" lon="4.1090769767761"><ele>551</ele><time>2026-4-28T11:17:36Z</time></trkpt>
<trkpt lat="46.966033935547" lon="4.1090769767761"><ele>551</ele><time>2026-4-28T11:17:39Z</time></trkpt>
<trkpt lat="46.966033935547" lon="4.1090769767761"><ele>551</ele><time>2026-4-28T11:17:42Z</time></trkpt>
<trkpt lat="46.966033935547" lon="4.1090769767761"><ele>551</ele><time>2026-4-28T11:17:45Z</time></trkpt>
<trkpt lat="46.966033935547" lon="4.1090769767761"><ele>551</ele><time>2026-4-28T11:17:48Z</time></trkpt>
<trkpt lat="46.966033935547" lon="4.1090769767761"><ele>551</ele><time>2026-4-28T11:17:51Z</time></trkpt>
<trkpt lat="46.966033935547" lon="4.1090769767761"><ele>551</ele><time>2026-4-28T11:17:54Z</time></trkpt>
<trkpt lat="46.966033935547" lon="4.1090769767761"><ele>551</ele><time>2026-4-28T11:17:57Z</time></trkpt>
<trkpt lat="46.966033935547" lon="4.1090769767761"><ele>551</ele><time>2026-4-28T11:18:0Z</time></trkpt>
<trkpt lat="46.966033935547" lon="4.1090769767761"><ele>551</ele><time>2026-4-28T11:18:3Z</time></trkpt>
<trkpt lat="46.966033935547" lon="4.1090769767761"><ele>551</ele><time>2026-4-28T11:18:6Z</time></trkpt>
<trkpt lat="46.966033935547" lon="4.1090769767761"><ele>551</ele><time>2026-4-28T11:18:9Z</time></trkpt>
<trkpt lat="46.966033935547" lon="4.1090769767761"><ele>551</ele><time>2026-4-28T11:18:12Z</time></trkpt>
<trkpt lat="46.966033935547" lon="4.1090769767761"><ele>551</ele><time>2026-4-28T11:18:15Z</time></trkpt>
<trkpt lat="46.966033935547" lon="4.1090769767761"><ele>551</ele><time>2026-4-28T11:18:18Z</time></trkpt>
<trkpt lat="46.965805053711" lon="4.1087098121643"><ele>563</ele><time>2026-4-28T11:18:21Z</time></trkpt>
<trkpt lat="46.965679168701" lon="4.1085181236267"><ele>563</ele><time>2026-4-28T11:18:24Z</time></trkpt>
<trkpt lat="46.96561050415" lon="4.1084122657776"><ele>563</ele><time>2026-4-28T11:18:27Z</time></trkpt>
<trkpt lat="46.96561050415" lon="4.1084122657776"><ele>563</ele><time>2026-4-28T11:18:30Z</time></trkpt>
<trkpt lat="46.96561050415" lon="4.1084122657776"><ele>563</ele><time>2026-4-28T11:18:33Z</time></trkpt>
<trkpt lat="46.96561050415" lon="4.1084122657776"><ele>563</ele><time>2026-4-28T11:18:36Z</time></trkpt>
<trkpt lat="46.96561050415" lon="4.1084122657776"><ele>563</ele><time>2026-4-28T11:18:39Z</time></trkpt>
<trkpt lat="46.96561050415" lon="4.1084122657776"><ele>563</ele><time>2026-4-28T11:18:42Z</time></trkpt>
<trkpt lat="46.96561050415" lon="4.1084122657776"><ele>563</ele><time>2026-4-28T11:18:45Z</time></trkpt>
<trkpt lat="46.96561050415" lon="4.1084122657776"><ele>563</ele><time>2026-4-28T11:18:48Z</time></trkpt>
<trkpt lat="46.96561050415" lon="4.1084122657776"><ele>563</ele><time>2026-4-28T11:18:51Z</time></trkpt>
<trkpt lat="46.96561050415" lon="4.1084122657776"><ele>563</ele><time>2026-4-28T11:18:54Z</time></trkpt>
<trkpt lat="46.96561050415" lon="4.1084122657776"><ele>563</ele><time>2026-4-28T11:18:57Z</time></trkpt>
<trkpt lat="46.965522766113" lon="4.1082677841187"><ele>563</ele><time>2026-4-28T11:19:0Z</time></trkpt>
<trkpt lat="46.965476989746" lon="4.1081957817078"><ele>563</ele><time>2026-4-28T11:19:3Z</time></trkpt>
<trkpt lat="46.965476989746" lon="4.1081957817078"><ele>563</ele><time>2026-4-28T11:19:6Z</time></trkpt>
<trkpt lat="46.965476989746" lon="4.1081957817078"><ele>563</ele><time>2026-4-28T11:19:9Z</time></trkpt>
<trkpt lat="46.965476989746" lon="4.1081957817078"><ele>563</ele><time>2026-4-28T11:19:12Z</time></trkpt>
<trkpt lat="46.965476989746" lon="4.1081957817078"><ele>563</ele><time>2026-4-28T11:19:15Z</time></trkpt>
<trkpt lat="46.965476989746" lon="4.1081957817078"><ele>563</ele><time>2026-4-28T11:19:18Z</time></trkpt>
<trkpt lat="46.965476989746" lon="4.1081957817078"><ele>563</ele><time>2026-4-28T11:19:21Z</time></trkpt>
<trkpt lat="46.965476989746" lon="4.1081957817078"><ele>563</ele><time>2026-4-28T11:19:24Z</time></trkpt>
<trkpt lat="46.965312957764" lon="4.1080102920532"><ele>566</ele><time>2026-4-28T11:19:27Z</time></trkpt>
<trkpt lat="46.965312957764" lon="4.1080102920532"><ele>566</ele><time>2026-4-28T11:19:30Z</time></trkpt>
<trkpt lat="46.965312957764" lon="4.1080102920532"><ele>566</ele><time>2026-4-28T11:19:33Z</time></trkpt>
<trkpt lat="46.965312957764" lon="4.1080102920532"><ele>566</ele><time>2026-4-28T11:19:36Z</time></trkpt>
<trkpt lat="46.965312957764" lon="4.1080102920532"><ele>566</ele><time>2026-4-28T11:19:39Z</time></trkpt>
<trkpt lat="46.965312957764" lon="4.1080102920532"><ele>566</ele><time>2026-4-28T11:19:42Z</time></trkpt>
<trkpt lat="46.964977264404" lon="4.1074514389038"><ele>568</ele><time>2026-4-28T11:19:45Z</time></trkpt>
<trkpt lat="46.964920043945" lon="4.1073756217957"><ele>567</ele><time>2026-4-28T11:19:48Z</time></trkpt>
<trkpt lat="46.964920043945" lon="4.1073756217957"><ele>567</ele><time>2026-4-28T11:19:51Z</time></trkpt>
<trkpt lat="46.964878082275" lon="4.1073155403137"><ele>567</ele><time>2026-4-28T11:19:54Z</time></trkpt>
<trkpt lat="46.96484375" lon="4.107234954834"><ele>567</ele><time>2026-4-28T11:19:57Z</time></trkpt>
<trkpt lat="46.964805603027" lon="4.1071600914001"><ele>567</ele><time>2026-4-28T11:20:0Z</time></trkpt>
<trkpt lat="46.964805603027" lon="4.1071600914001"><ele>567</ele><time>2026-4-28T11:20:3Z</time></trkpt>
<trkpt lat="46.964771270752" lon="4.1070690155029"><ele>567</ele><time>2026-4-28T11:20:6Z</time></trkpt>
<trkpt lat="46.964744567871" lon="4.1069345474243"><ele>567</ele><time>2026-4-28T11:20:9Z</time></trkpt>
<trkpt lat="46.964702606201" lon="4.1068077087402"><ele>567</ele><time>2026-4-28T11:20:12Z</time></trkpt>
<trkpt lat="46.964702606201" lon="4.1068077087402"><ele>567</ele><time>2026-4-28T11:20:15Z</time></trkpt>
<trkpt lat="46.964660644531" lon="4.1066956520081"><ele>567</ele><time>2026-4-28T11:20:18Z</time></trkpt>
<trkpt lat="46.96460723877" lon="4.1065888404846"><ele>567</ele><time>2026-4-28T11:20:21Z</time></trkpt>
<trkpt lat="46.96460723877" lon="4.1065888404846"><ele>567</ele><time>2026-4-28T11:20:24Z</time></trkpt>
<trkpt lat="46.96460723877" lon="4.1065888404846"><ele>567</ele><time>2026-4-28T11:20:27Z</time></trkpt>
<trkpt lat="46.964572906494" lon="4.1065092086792"><ele>567</ele><time>2026-4-28T11:20:30Z</time></trkpt>
<trkpt lat="46.964572906494" lon="4.1065092086792"><ele>567</ele><time>2026-4-28T11:20:33Z</time></trkpt>
<trkpt lat="46.964572906494" lon="4.1065092086792"><ele>567</ele><time>2026-4-28T11:20:36Z</time></trkpt>
<trkpt lat="46.964572906494" lon="4.1065092086792"><ele>567</ele><time>2026-4-28T11:20:39Z</time></trkpt>
<trkpt lat="46.964572906494" lon="4.1065092086792"><ele>567</ele><time>2026-4-28T11:20:42Z</time></trkpt>
<trkpt lat="46.964572906494" lon="4.1065092086792"><ele>567</ele><time>2026-4-28T11:20:45Z</time></trkpt>
<trkpt lat="46.964572906494" lon="4.1065092086792"><ele>567</ele><time>2026-4-28T11:20:48Z</time></trkpt>
<trkpt lat="46.964572906494" lon="4.1065092086792"><ele>567</ele><time>2026-4-28T11:20:51Z</time></trkpt>
<trkpt lat="46.964572906494" lon="4.1065092086792"><ele>567</ele><time>2026-4-28T11:20:54Z</time></trkpt>
<trkpt lat="46.964572906494" lon="4.1065092086792"><ele>567</ele><time>2026-4-28T11:20:57Z</time></trkpt>
<trkpt lat="46.964572906494" lon="4.1065092086792"><ele>567</ele><time>2026-4-28T11:21:0Z</time></trkpt>
<trkpt lat="46.964515686035" lon="4.106339931488"><ele>570</ele><time>2026-4-28T11:21:3Z</time></trkpt>
<trkpt lat="46.964492797852" lon="4.1062145233154"><ele>570</ele><time>2026-4-28T11:21:6Z</time></trkpt>
<trkpt lat="46.964485168457" lon="4.1060938835144"><ele>570</ele><time>2026-4-28T11:21:9Z</time></trkpt>
<trkpt lat="46.964492797852" lon="4.1059770584106"><ele>571</ele><time>2026-4-28T11:21:12Z</time></trkpt>
<trkpt lat="46.964508056641" lon="4.1058540344238"><ele>570</ele><time>2026-4-28T11:21:15Z</time></trkpt>
<trkpt lat="46.964550018311" lon="4.1055908203125"><ele>570</ele><time>2026-4-28T11:21:18Z</time></trkpt>
<trkpt lat="46.964584350586" lon="4.1054239273071"><ele>567</ele><time>2026-4-28T11:21:21Z</time></trkpt>
<trkpt lat="46.964584350586" lon="4.1054239273071"><ele>567</ele><time>2026-4-28T11:21:24Z</time></trkpt>
<trkpt lat="46.964603424072" lon="4.1051669120789"><ele>564</ele><time>2026-4-28T11:21:27Z</time></trkpt>
<trkpt lat="46.964622497559" lon="4.105010509491"><ele>563</ele><time>2026-4-28T11:21:30Z</time></trkpt>
<trkpt lat="46.964656829834" lon="4.1048240661621"><ele>561</ele><time>2026-4-28T11:21:33Z</time></trkpt>
<trkpt lat="46.964656829834" lon="4.1048240661621"><ele>561</ele><time>2026-4-28T11:21:36Z</time></trkpt>
<trkpt lat="46.964694976807" lon="4.1046228408813"><ele>559</ele><time>2026-4-28T11:21:39Z</time></trkpt>
<trkpt lat="46.964740753174" lon="4.1044473648071"><ele>559</ele><time>2026-4-28T11:21:42Z</time></trkpt>
<trkpt lat="46.964809417725" lon="4.1043119430542"><ele>558</ele><time>2026-4-28T11:21:45Z</time></trkpt>
<trkpt lat="46.964809417725" lon="4.1043119430542"><ele>558</ele><time>2026-4-28T11:21:48Z</time></trkpt>
<trkpt lat="46.96488571167" lon="4.1041979789734"><ele>558</ele><time>2026-4-28T11:21:51Z</time></trkpt>
<trkpt lat="46.964962005615" lon="4.1040744781494"><ele>558</ele><time>2026-4-28T11:21:54Z</time></trkpt>
<trkpt lat="46.965023040771" lon="4.1039218902588"><ele>557</ele><time>2026-4-28T11:21:57Z</time></trkpt>
<trkpt lat="46.965023040771" lon="4.1039218902588"><ele>557</ele><time>2026-4-28T11:22:0Z</time></trkpt>
<trkpt lat="46.965076446533" lon="4.1037611961365"><ele>555</ele><time>2026-4-28T11:22:3Z</time></trkpt>
<trkpt lat="46.965160369873" lon="4.1036128997803"><ele>553</ele><time>2026-4-28T11:22:6Z</time></trkpt>
<trkpt lat="46.965255737305" lon="4.1035032272339"><ele>552</ele><time>2026-4-28T11:22:9Z</time></trkpt>
<trkpt lat="46.965255737305" lon="4.1035032272339"><ele>552</ele><time>2026-4-28T11:22:12Z</time></trkpt>
<trkpt lat="46.965347290039" lon="4.1033935546875"><ele>551</ele><time>2026-4-28T11:22:15Z</time></trkpt>
<trkpt lat="46.965423583984" lon="4.1032910346985"><ele>550</ele><time>2026-4-28T11:22:18Z</time></trkpt>
<trkpt lat="46.965476989746" lon="4.1032099723816"><ele>551</ele><time>2026-4-28T11:22:21Z</time></trkpt>
<trkpt lat="46.965476989746" lon="4.1032099723816"><ele>551</ele><time>2026-4-28T11:22:24Z</time></trkpt>
<trkpt lat="46.965530395508" lon="4.1031012535095"><ele>551</ele><time>2026-4-28T11:22:27Z</time></trkpt>
<trkpt lat="46.96558380127" lon="4.1029853820801"><ele>551</ele><time>2026-4-28T11:22:30Z</time></trkpt>
<trkpt lat="46.965618133545" lon="4.1028785705566"><ele>551</ele><time>2026-4-28T11:22:33Z</time></trkpt>
<trkpt lat="46.965618133545" lon="4.1028785705566"><ele>551</ele><time>2026-4-28T11:22:36Z</time></trkpt>
<trkpt lat="46.965637207031" lon="4.1027407646179"><ele>551</ele><time>2026-4-28T11:22:39Z</time></trkpt>
<trkpt lat="46.965641021729" lon="4.1025943756104"><ele>550</ele><time>2026-4-28T11:22:42Z</time></trkpt>
<trkpt lat="46.965648651123" lon="4.1024842262268"><ele>550</ele><time>2026-4-28T11:22:45Z</time></trkpt>
<trkpt lat="46.965648651123" lon="4.1024842262268"><ele>550</ele><time>2026-4-28T11:22:48Z</time></trkpt>
<trkpt lat="46.965656280518" lon="4.1023554801941"><ele>550</ele><time>2026-4-28T11:22:51Z</time></trkpt>
<trkpt lat="46.965660095215" lon="4.1022400856018"><ele>550</ele><time>2026-4-28T11:22:54Z</time></trkpt>
<trkpt lat="46.965660095215" lon="4.1021275520325"><ele>550</ele><time>2026-4-28T11:22:57Z</time></trkpt>
<trkpt lat="46.965660095215" lon="4.1021275520325"><ele>550</ele><time>2026-4-28T11:23:0Z</time></trkpt>
<trkpt lat="46.965648651123" lon="4.1019768714905"><ele>551</ele><time>2026-4-28T11:23:3Z</time></trkpt>
<trkpt lat="46.965637207031" lon="4.1018419265747"><ele>551</ele><time>2026-4-28T11:23:6Z</time></trkpt>
<trkpt lat="46.965618133545" lon="4.1017422676086"><ele>551</ele><time>2026-4-28T11:23:9Z</time></trkpt>
<trkpt lat="46.965618133545" lon="4.1017422676086"><ele>551</ele><time>2026-4-28T11:23:12Z</time></trkpt>
<trkpt lat="46.965591430664" lon="4.1016292572021"><ele>551</ele><time>2026-4-28T11:23:15Z</time></trkpt>
<trkpt lat="46.965564727783" lon="4.1015334129333"><ele>551</ele><time>2026-4-28T11:23:18Z</time></trkpt>
<trkpt lat="46.9655418396" lon="4.101438999176"><ele>551</ele><time>2026-4-28T11:23:21Z</time></trkpt>
<trkpt lat="46.9655418396" lon="4.101438999176"><ele>551</ele><time>2026-4-28T11:23:24Z</time></trkpt>
<trkpt lat="46.965522766113" lon="4.1013488769531"><ele>551</ele><time>2026-4-28T11:23:27Z</time></trkpt>
<trkpt lat="46.965511322021" lon="4.1012654304504"><ele>551</ele><time>2026-4-28T11:23:30Z</time></trkpt>
<trkpt lat="46.965511322021" lon="4.1012654304504"><ele>551</ele><time>2026-4-28T11:23:33Z</time></trkpt>
<trkpt lat="46.965511322021" lon="4.1012654304504"><ele>551</ele><time>2026-4-28T11:23:36Z</time></trkpt>
<trkpt lat="46.965476989746" lon="4.1011061668396"><ele>551</ele><time>2026-4-28T11:23:39Z</time></trkpt>
<trkpt lat="46.965476989746" lon="4.1011061668396"><ele>551</ele><time>2026-4-28T11:23:42Z</time></trkpt>
<trkpt lat="46.96545791626" lon="4.1009612083435"><ele>552</ele><time>2026-4-28T11:23:45Z</time></trkpt>
<trkpt lat="46.96545791626" lon="4.1009612083435"><ele>552</ele><time>2026-4-28T11:23:48Z</time></trkpt>
<trkpt lat="46.965435028076" lon="4.1008729934692"><ele>553</ele><time>2026-4-28T11:23:51Z</time></trkpt>
<trkpt lat="46.965404510498" lon="4.1007385253906"><ele>553</ele><time>2026-4-28T11:23:54Z</time></trkpt>
<trkpt lat="46.965404510498" lon="4.1007385253906"><ele>553</ele><time>2026-4-28T11:23:57Z</time></trkpt>
<trkpt lat="46.965404510498" lon="4.1007385253906"><ele>553</ele><time>2026-4-28T11:24:0Z</time></trkpt>
<trkpt lat="46.965404510498" lon="4.1005997657776"><ele>554</ele><time>2026-4-28T11:24:3Z</time></trkpt>
<trkpt lat="46.965404510498" lon="4.1005997657776"><ele>554</ele><time>2026-4-28T11:24:6Z</time></trkpt>
<trkpt lat="46.965404510498" lon="4.1005997657776"><ele>554</ele><time>2026-4-28T11:24:9Z</time></trkpt>
<trkpt lat="46.965396881104" lon="4.1004600524902"><ele>555</ele><time>2026-4-28T11:24:12Z</time></trkpt>
<trkpt lat="46.965381622314" lon="4.1003141403198"><ele>555</ele><time>2026-4-28T11:24:15Z</time></trkpt>
<trkpt lat="46.965358734131" lon="4.1001930236816"><ele>555</ele><time>2026-4-28T11:24:18Z</time></trkpt>
<trkpt lat="46.965358734131" lon="4.1001930236816"><ele>555</ele><time>2026-4-28T11:24:21Z</time></trkpt>
<trkpt lat="46.965316772461" lon="4.1000871658325"><ele>555</ele><time>2026-4-28T11:24:24Z</time></trkpt>
<trkpt lat="46.965267181396" lon="4.1000075340271"><ele>555</ele><time>2026-4-28T11:24:27Z</time></trkpt>
<trkpt lat="46.965221405029" lon="4.099925994873"><ele>555</ele><time>2026-4-28T11:24:30Z</time></trkpt>
<trkpt lat="46.965221405029" lon="4.099925994873"><ele>555</ele><time>2026-4-28T11:24:33Z</time></trkpt>
<trkpt lat="46.965183258057" lon="4.0998616218567"><ele>555</ele><time>2026-4-28T11:24:36Z</time></trkpt>
<trkpt lat="46.965183258057" lon="4.0998616218567"><ele>555</ele><time>2026-4-28T11:24:39Z</time></trkpt>
<trkpt lat="46.965129852295" lon="4.0997743606567"><ele>555</ele><time>2026-4-28T11:24:42Z</time></trkpt>
<trkpt lat="46.965129852295" lon="4.0997743606567"><ele>555</ele><time>2026-4-28T11:24:45Z</time></trkpt>
<trkpt lat="46.965129852295" lon="4.0997743606567"><ele>555</ele><time>2026-4-28T11:24:48Z</time></trkpt>
<trkpt lat="46.96509552002" lon="4.0996308326721"><ele>556</ele><time>2026-4-28T11:24:51Z</time></trkpt>
<trkpt lat="46.965068817139" lon="4.0995345115662"><ele>556</ele><time>2026-4-28T11:24:54Z</time></trkpt>
<trkpt lat="46.965068817139" lon="4.0995345115662"><ele>556</ele><time>2026-4-28T11:24:57Z</time></trkpt>
<trkpt lat="46.965042114258" lon="4.099449634552"><ele>556</ele><time>2026-4-28T11:25:0Z</time></trkpt>
<trkpt lat="46.965023040771" lon="4.0993027687073"><ele>556</ele><time>2026-4-28T11:25:3Z</time></trkpt>
<trkpt lat="46.965023040771" lon="4.0993027687073"><ele>556</ele><time>2026-4-28T11:25:6Z</time></trkpt>
<trkpt lat="46.96501159668" lon="4.0991477966309"><ele>557</ele><time>2026-4-28T11:25:9Z</time></trkpt>
<trkpt lat="46.965023040771" lon="4.0990629196167"><ele>557</ele><time>2026-4-28T11:25:12Z</time></trkpt>
<trkpt lat="46.965026855469" lon="4.098979473114"><ele>557</ele><time>2026-4-28T11:25:15Z</time></trkpt>
<trkpt lat="46.965015411377" lon="4.0988693237305"><ele>558</ele><time>2026-4-28T11:25:18Z</time></trkpt>
<trkpt lat="46.964996337891" lon="4.0987629890442"><ele>558</ele><time>2026-4-28T11:25:21Z</time></trkpt>
<trkpt lat="46.964981079102" lon="4.0986375808716"><ele>558</ele><time>2026-4-28T11:25:24Z</time></trkpt>
<trkpt lat="46.964973449707" lon="4.0985193252563"><ele>558</ele><time>2026-4-28T11:25:27Z</time></trkpt>
<trkpt lat="46.964965820312" lon="4.0984230041504"><ele>558</ele><time>2026-4-28T11:25:30Z</time></trkpt>
<trkpt lat="46.96496963501" lon="4.0983242988586"><ele>558</ele><time>2026-4-28T11:25:33Z</time></trkpt>
<trkpt lat="46.964988708496" lon="4.0982265472412"><ele>558</ele><time>2026-4-28T11:25:36Z</time></trkpt>
<trkpt lat="46.965003967285" lon="4.0981254577637"><ele>557</ele><time>2026-4-28T11:25:39Z</time></trkpt>
<trkpt lat="46.965026855469" lon="4.0980253219604"><ele>557</ele><time>2026-4-28T11:25:42Z</time></trkpt>
<trkpt lat="46.965042114258" lon="4.0979332923889"><ele>557</ele><time>2026-4-28T11:25:45Z</time></trkpt>
<trkpt lat="46.96505355835" lon="4.0978398323059"><ele>557</ele><time>2026-4-28T11:25:48Z</time></trkpt>
<trkpt lat="46.965076446533" lon="4.0977478027344"><ele>556</ele><time>2026-4-28T11:25:51Z</time></trkpt>
<trkpt lat="46.965103149414" lon="4.0976514816284"><ele>556</ele><time>2026-4-28T11:25:54Z</time></trkpt>
<trkpt lat="46.965129852295" lon="4.0975632667542"><ele>556</ele><time>2026-4-28T11:25:57Z</time></trkpt>
<trkpt lat="46.965167999268" lon="4.0974397659302"><ele>556</ele><time>2026-4-28T11:26:0Z</time></trkpt>
<trkpt lat="46.96520614624" lon="4.0973062515259"><ele>555</ele><time>2026-4-28T11:26:3Z</time></trkpt>
<trkpt lat="46.965251922607" lon="4.0971660614014"><ele>554</ele><time>2026-4-28T11:26:6Z</time></trkpt>
<trkpt lat="46.965301513672" lon="4.0970268249512"><ele>553</ele><time>2026-4-28T11:26:9Z</time></trkpt>
<trkpt lat="46.965370178223" lon="4.0968742370605"><ele>553</ele><time>2026-4-28T11:26:12Z</time></trkpt>
<trkpt lat="46.965454101562" lon="4.0966992378235"><ele>552</ele><time>2026-4-28T11:26:15Z</time></trkpt>
<trkpt lat="46.9655418396" lon="4.0965304374695"><ele>552</ele><time>2026-4-28T11:26:18Z</time></trkpt>
<trkpt lat="46.965625762939" lon="4.096363067627"><ele>552</ele><time>2026-4-28T11:26:21Z</time></trkpt>
<trkpt lat="46.96569442749" lon="4.0962281227112"><ele>551</ele><time>2026-4-28T11:26:24Z</time></trkpt>
<trkpt lat="46.965740203857" lon="4.0961332321167"><ele>550</ele><time>2026-4-28T11:26:27Z</time></trkpt>
<trkpt lat="46.96577835083" lon="4.0960130691528"><ele>550</ele><time>2026-4-28T11:26:30Z</time></trkpt>
<trkpt lat="46.965812683105" lon="4.0958919525146"><ele>550</ele><time>2026-4-28T11:26:33Z</time></trkpt>
<trkpt lat="46.965835571289" lon="4.0957880020142"><ele>550</ele><time>2026-4-28T11:26:36Z</time></trkpt>
<trkpt lat="46.965854644775" lon="4.095691204071"><ele>550</ele><time>2026-4-28T11:26:39Z</time></trkpt>
<trkpt lat="46.965854644775" lon="4.095691204071"><ele>550</ele><time>2026-4-28T11:26:42Z</time></trkpt>
<trkpt lat="46.965892791748" lon="4.0955605506897"><ele>550</ele><time>2026-4-28T11:26:45Z</time></trkpt>
<trkpt lat="46.965923309326" lon="4.0954833030701"><ele>550</ele><time>2026-4-28T11:26:48Z</time></trkpt>
<trkpt lat="46.965961456299" lon="4.0954098701477"><ele>550</ele><time>2026-4-28T11:26:51Z</time></trkpt>
<trkpt lat="46.966007232666" lon="4.0953502655029"><ele>550</ele><time>2026-4-28T11:26:54Z</time></trkpt>
<trkpt lat="46.966007232666" lon="4.0953502655029"><ele>550</ele><time>2026-4-28T11:26:57Z</time></trkpt>
<trkpt lat="46.966007232666" lon="4.0953502655029"><ele>550</ele><time>2026-4-28T11:27:0Z</time></trkpt>
<trkpt lat="46.966007232666" lon="4.0953502655029"><ele>550</ele><time>2026-4-28T11:27:3Z</time></trkpt>
<trkpt lat="46.966007232666" lon="4.0953502655029"><ele>550</ele><time>2026-4-28T11:27:6Z</time></trkpt>
<trkpt lat="46.966075897217" lon="4.095242023468"><ele>551</ele><time>2026-4-28T11:27:9Z</time></trkpt>
<trkpt lat="46.96614074707" lon="4.0951886177063"><ele>551</ele><time>2026-4-28T11:27:12Z</time></trkpt>
<trkpt lat="46.96614074707" lon="4.0951886177063"><ele>551</ele><time>2026-4-28T11:27:15Z</time></trkpt>
<trkpt lat="46.966205596924" lon="4.0951538085938"><ele>551</ele><time>2026-4-28T11:27:18Z</time></trkpt>
<trkpt lat="46.966281890869" lon="4.0951266288757"><ele>551</ele><time>2026-4-28T11:27:21Z</time></trkpt>
<trkpt lat="46.966342926025" lon="4.0951070785522"><ele>551</ele><time>2026-4-28T11:27:24Z</time></trkpt>
<trkpt lat="46.966423034668" lon="4.0951066017151"><ele>551</ele><time>2026-4-28T11:27:27Z</time></trkpt>
<trkpt lat="46.966510772705" lon="4.0951085090637"><ele>551</ele><time>2026-4-28T11:27:30Z</time></trkpt>
<trkpt lat="46.966590881348" lon="4.0951132774353"><ele>552</ele><time>2026-4-28T11:27:33Z</time></trkpt>
<trkpt lat="46.966686248779" lon="4.0951142311096"><ele>551</ele><time>2026-4-28T11:27:36Z</time></trkpt>
<trkpt lat="46.966804504395" lon="4.0951113700867"><ele>550</ele><time>2026-4-28T11:27:39Z</time></trkpt>
<trkpt lat="46.96692276001" lon="4.0951075553894"><ele>549</ele><time>2026-4-28T11:27:42Z</time></trkpt>
<trkpt lat="46.967044830322" lon="4.095109462738"><ele>549</ele><time>2026-4-28T11:27:45Z</time></trkpt>
<trkpt lat="46.96715927124" lon="4.095112323761"><ele>549</ele><time>2026-4-28T11:27:48Z</time></trkpt>
<trkpt lat="46.967277526855" lon="4.0950427055359"><ele>549</ele><time>2026-4-28T11:27:51Z</time></trkpt>
<trkpt lat="46.967399597168" lon="4.094940662384"><ele>547</ele><time>2026-4-28T11:27:54Z</time></trkpt>
<trkpt lat="46.967506408691" lon="4.0948095321655"><ele>546</ele><time>2026-4-28T11:27:57Z</time></trkpt>
<trkpt lat="46.967597961426" lon="4.0946569442749"><ele>544</ele><time>2026-4-28T11:28:0Z</time></trkpt>
<trkpt lat="46.967700958252" lon="4.0944647789001"><ele>542</ele><time>2026-4-28T11:28:3Z</time></trkpt>
<trkpt lat="46.967800140381" lon="4.0942587852478"><ele>540</ele><time>2026-4-28T11:28:6Z</time></trkpt>
<trkpt lat="46.967876434326" lon="4.0940933227539"><ele>539</ele><time>2026-4-28T11:28:9Z</time></trkpt>
<trkpt lat="46.967945098877" lon="4.093939781189"><ele>537</ele><time>2026-4-28T11:28:12Z</time></trkpt>
<trkpt lat="46.968017578125" lon="4.0938200950623"><ele>536</ele><time>2026-4-28T11:28:15Z</time></trkpt>
<trkpt lat="46.96809387207" lon="4.0937299728394"><ele>534</ele><time>2026-4-28T11:28:18Z</time></trkpt>
<trkpt lat="46.968166351318" lon="4.0936326980591"><ele>532</ele><time>2026-4-28T11:28:21Z</time></trkpt>
<trkpt lat="46.968238830566" lon="4.0935406684875"><ele>531</ele><time>2026-4-28T11:28:24Z</time></trkpt>
<trkpt lat="46.96830368042" lon="4.0934705734253"><ele>530</ele><time>2026-4-28T11:28:27Z</time></trkpt>
<trkpt lat="46.968360900879" lon="4.0934081077576"><ele>529</ele><time>2026-4-28T11:28:30Z</time></trkpt>
<trkpt lat="46.968406677246" lon="4.0933523178101"><ele>529</ele><time>2026-4-28T11:28:33Z</time></trkpt>
<trkpt lat="46.968406677246" lon="4.0933523178101"><ele>529</ele><time>2026-4-28T11:28:36Z</time></trkpt>
<trkpt lat="46.968486785889" lon="4.0932660102844"><ele>529</ele><time>2026-4-28T11:28:39Z</time></trkpt>
<trkpt lat="46.968486785889" lon="4.0932660102844"><ele>529</ele><time>2026-4-28T11:28:42Z</time></trkpt>
<trkpt lat="46.968517303467" lon="4.0931944847107"><ele>529</ele><time>2026-4-28T11:28:45Z</time></trkpt>
<trkpt lat="46.968517303467" lon="4.0931944847107"><ele>529</ele><time>2026-4-28T11:28:48Z</time></trkpt>
<trkpt lat="46.968524932861" lon="4.093111038208"><ele>529</ele><time>2026-4-28T11:28:51Z</time></trkpt>
<trkpt lat="46.968524932861" lon="4.093111038208"><ele>529</ele><time>2026-4-28T11:28:54Z</time></trkpt>
<trkpt lat="46.968524932861" lon="4.093111038208"><ele>529</ele><time>2026-4-28T11:28:57Z</time></trkpt>
<trkpt lat="46.968494415283" lon="4.0929841995239"><ele>530</ele><time>2026-4-28T11:29:0Z</time></trkpt>
<trkpt lat="46.968494415283" lon="4.0929841995239"><ele>530</ele><time>2026-4-28T11:29:3Z</time></trkpt>
<trkpt lat="46.968441009521" lon="4.0929026603699"><ele>530</ele><time>2026-4-28T11:29:6Z</time></trkpt>
<trkpt lat="46.968441009521" lon="4.0929026603699"><ele>530</ele><time>2026-4-28T11:29:9Z</time></trkpt>
<trkpt lat="46.96838760376" lon="4.0928483009338"><ele>530</ele><time>2026-4-28T11:29:12Z</time></trkpt>
<trkpt lat="46.96838760376" lon="4.0928483009338"><ele>530</ele><time>2026-4-28T11:29:15Z</time></trkpt>
<trkpt lat="46.96838760376" lon="4.0928483009338"><ele>530</ele><time>2026-4-28T11:29:18Z</time></trkpt>
<trkpt lat="46.96838760376" lon="4.0928483009338"><ele>530</ele><time>2026-4-28T11:29:21Z</time></trkpt>
<trkpt lat="46.96838760376" lon="4.0928483009338"><ele>530</ele><time>2026-4-28T11:29:24Z</time></trkpt>
<trkpt lat="46.968338012695" lon="4.0927968025208"><ele>532</ele><time>2026-4-28T11:29:27Z</time></trkpt>
<trkpt lat="46.968338012695" lon="4.0927968025208"><ele>532</ele><time>2026-4-28T11:29:30Z</time></trkpt>
<trkpt lat="46.968292236328" lon="4.092734336853"><ele>534</ele><time>2026-4-28T11:29:33Z</time></trkpt>
<trkpt lat="46.968292236328" lon="4.092734336853"><ele>534</ele><time>2026-4-28T11:29:36Z</time></trkpt>
<trkpt lat="46.968242645264" lon="4.0926876068115"><ele>535</ele><time>2026-4-28T11:29:39Z</time></trkpt>
<trkpt lat="46.968242645264" lon="4.0926876068115"><ele>535</ele><time>2026-4-28T11:29:42Z</time></trkpt>
<trkpt lat="46.968242645264" lon="4.0926876068115"><ele>535</ele><time>2026-4-28T11:29:45Z</time></trkpt>
<trkpt lat="46.968242645264" lon="4.0926876068115"><ele>535</ele><time>2026-4-28T11:29:48Z</time></trkpt>
<trkpt lat="46.968242645264" lon="4.0926876068115"><ele>535</ele><time>2026-4-28T11:29:51Z</time></trkpt>
<trkpt lat="46.968208312988" lon="4.0926623344421"><ele>536</ele><time>2026-4-28T11:29:54Z</time></trkpt>
<trkpt lat="46.968181610107" lon="4.0926322937012"><ele>536</ele><time>2026-4-28T11:29:57Z</time></trkpt>
<trkpt lat="46.968181610107" lon="4.0926322937012"><ele>536</ele><time>2026-4-28T11:30:0Z</time></trkpt>
<trkpt lat="46.968181610107" lon="4.0926322937012"><ele>536</ele><time>2026-4-28T11:30:3Z</time></trkpt>
<trkpt lat="46.968143463135" lon="4.0925641059875"><ele>536</ele><time>2026-4-28T11:30:6Z</time></trkpt>
<trkpt lat="46.968143463135" lon="4.0925641059875"><ele>536</ele><time>2026-4-28T11:30:9Z</time></trkpt>
<trkpt lat="46.968105316162" lon="4.0924849510193"><ele>537</ele><time>2026-4-28T11:30:12Z</time></trkpt>
<trkpt lat="46.968105316162" lon="4.0924849510193"><ele>537</ele><time>2026-4-28T11:30:15Z</time></trkpt>
<trkpt lat="46.968074798584" lon="4.0923914909363"><ele>539</ele><time>2026-4-28T11:30:18Z</time></trkpt>
<trkpt lat="46.968074798584" lon="4.0923914909363"><ele>539</ele><time>2026-4-28T11:30:21Z</time></trkpt>
<trkpt lat="46.968036651611" lon="4.0922303199768"><ele>540</ele><time>2026-4-28T11:30:24Z</time></trkpt>
<trkpt lat="46.968036651611" lon="4.0922303199768"><ele>540</ele><time>2026-4-28T11:30:27Z</time></trkpt>
<trkpt lat="46.968036651611" lon="4.0922303199768"><ele>540</ele><time>2026-4-28T11:30:30Z</time></trkpt>
<trkpt lat="46.968036651611" lon="4.0922303199768"><ele>540</ele><time>2026-4-28T11:30:33Z</time></trkpt>
<trkpt lat="46.968036651611" lon="4.0922303199768"><ele>540</ele><time>2026-4-28T11:30:36Z</time></trkpt>
<trkpt lat="46.968036651611" lon="4.0922303199768"><ele>540</ele><time>2026-4-28T11:30:39Z</time></trkpt>
<trkpt lat="46.967990875244" lon="4.0920481681824"><ele>542</ele><time>2026-4-28T11:30:42Z</time></trkpt>
<trkpt lat="46.967990875244" lon="4.0920481681824"><ele>542</ele><time>2026-4-28T11:30:45Z</time></trkpt>
<trkpt lat="46.967990875244" lon="4.0920481681824"><ele>542</ele><time>2026-4-28T11:30:48Z</time></trkpt>
<trkpt lat="46.967945098877" lon="4.091956615448"><ele>543</ele><time>2026-4-28T11:30:51Z</time></trkpt>
<trkpt lat="46.967945098877" lon="4.091956615448"><ele>543</ele><time>2026-4-28T11:30:54Z</time></trkpt>
<trkpt lat="46.96789932251" lon="4.0918793678284"><ele>544</ele><time>2026-4-28T11:30:57Z</time></trkpt>
<trkpt lat="46.967864990234" lon="4.091808795929"><ele>544</ele><time>2026-4-28T11:31:0Z</time></trkpt>
<trkpt lat="46.967864990234" lon="4.091808795929"><ele>544</ele><time>2026-4-28T11:31:3Z</time></trkpt>
<trkpt lat="46.967819213867" lon="4.0917000770569"><ele>545</ele><time>2026-4-28T11:31:6Z</time></trkpt>
<trkpt lat="46.967819213867" lon="4.0917000770569"><ele>545</ele><time>2026-4-28T11:31:9Z</time></trkpt>
<trkpt lat="46.967819213867" lon="4.0917000770569"><ele>545</ele><time>2026-4-28T11:31:12Z</time></trkpt>
<trkpt lat="46.967746734619" lon="4.0915622711182"><ele>547</ele><time>2026-4-28T11:31:15Z</time></trkpt>
<trkpt lat="46.967746734619" lon="4.0915622711182"><ele>547</ele><time>2026-4-28T11:31:18Z</time></trkpt>
<trkpt lat="46.967678070068" lon="4.0914978981018"><ele>547</ele><time>2026-4-28T11:31:21Z</time></trkpt>
<trkpt lat="46.967678070068" lon="4.0914978981018"><ele>547</ele><time>2026-4-28T11:31:24Z</time></trkpt>
<trkpt lat="46.967678070068" lon="4.0914978981018"><ele>547</ele><time>2026-4-28T11:31:27Z</time></trkpt>
<trkpt lat="46.967624664307" lon="4.0913953781128"><ele>548</ele><time>2026-4-28T11:31:30Z</time></trkpt>
<trkpt lat="46.967624664307" lon="4.0913953781128"><ele>548</ele><time>2026-4-28T11:31:33Z</time></trkpt>
<trkpt lat="46.967578887939" lon="4.0912923812866"><ele>549</ele><time>2026-4-28T11:31:36Z</time></trkpt>
<trkpt lat="46.967578887939" lon="4.0912923812866"><ele>549</ele><time>2026-4-28T11:31:39Z</time></trkpt>
<trkpt lat="46.967525482178" lon="4.0912041664124"><ele>549</ele><time>2026-4-28T11:31:42Z</time></trkpt>
<trkpt lat="46.967525482178" lon="4.0912041664124"><ele>549</ele><time>2026-4-28T11:31:45Z</time></trkpt>
<trkpt lat="46.967525482178" lon="4.0912041664124"><ele>549</ele><time>2026-4-28T11:31:48Z</time></trkpt>
<trkpt lat="46.967525482178" lon="4.0912041664124"><ele>549</ele><time>2026-4-28T11:31:51Z</time></trkpt>
<trkpt lat="46.967468261719" lon="4.0910754203796"><ele>550</ele><time>2026-4-28T11:31:54Z</time></trkpt>
<trkpt lat="46.967468261719" lon="4.0910754203796"><ele>550</ele><time>2026-4-28T11:31:57Z</time></trkpt>
<trkpt lat="46.96741104126" lon="4.0909976959229"><ele>550</ele><time>2026-4-28T11:32:0Z</time></trkpt>
<trkpt lat="46.96741104126" lon="4.0909976959229"><ele>550</ele><time>2026-4-28T11:32:3Z</time></trkpt>
<trkpt lat="46.967353820801" lon="4.0909194946289"><ele>551</ele><time>2026-4-28T11:32:6Z</time></trkpt>
<trkpt lat="46.967353820801" lon="4.0909194946289"><ele>551</ele><time>2026-4-28T11:32:9Z</time></trkpt>
<trkpt lat="46.967292785645" lon="4.0908274650574"><ele>551</ele><time>2026-4-28T11:32:12Z</time></trkpt>
<trkpt lat="46.967235565186" lon="4.0907139778137"><ele>551</ele><time>2026-4-28T11:32:15Z</time></trkpt>
<trkpt lat="46.967235565186" lon="4.0907139778137"><ele>551</ele><time>2026-4-28T11:32:18Z</time></trkpt>
<trkpt lat="46.967189788818" lon="4.0906281471252"><ele>551</ele><time>2026-4-28T11:32:21Z</time></trkpt>
<trkpt lat="46.967189788818" lon="4.0906281471252"><ele>551</ele><time>2026-4-28T11:32:24Z</time></trkpt>
<trkpt lat="46.967144012451" lon="4.0905675888062"><ele>551</ele><time>2026-4-28T11:32:27Z</time></trkpt>
<trkpt lat="46.967144012451" lon="4.0905675888062"><ele>551</ele><time>2026-4-28T11:32:30Z</time></trkpt>
<trkpt lat="46.967094421387" lon="4.0904970169067"><ele>552</ele><time>2026-4-28T11:32:33Z</time></trkpt>
<trkpt lat="46.967094421387" lon="4.0904970169067"><ele>552</ele><time>2026-4-28T11:32:36Z</time></trkpt>
<trkpt lat="46.967014312744" lon="4.0904378890991"><ele>553</ele><time>2026-4-28T11:32:39Z</time></trkpt>
<trkpt lat="46.966949462891" lon="4.090380191803"><ele>554</ele><time>2026-4-28T11:32:42Z</time></trkpt>
<trkpt lat="46.966949462891" lon="4.090380191803"><ele>554</ele><time>2026-4-28T11:32:45Z</time></trkpt>
<trkpt lat="46.966949462891" lon="4.090380191803"><ele>554</ele><time>2026-4-28T11:32:48Z</time></trkpt>
<trkpt lat="46.966949462891" lon="4.090380191803"><ele>554</ele><time>2026-4-28T11:32:51Z</time></trkpt>
<trkpt lat="46.966892242432" lon="4.0903244018555"><ele>554</ele><time>2026-4-28T11:32:54Z</time></trkpt>
<trkpt lat="46.966892242432" lon="4.0903244018555"><ele>554</ele><time>2026-4-28T11:32:57Z</time></trkpt>
<trkpt lat="46.966819763184" lon="4.0902705192566"><ele>555</ele><time>2026-4-28T11:33:0Z</time></trkpt>
<trkpt lat="46.966819763184" lon="4.0902705192566"><ele>555</ele><time>2026-4-28T11:33:3Z</time></trkpt>
<trkpt lat="46.966762542725" lon="4.0902414321899"><ele>557</ele><time>2026-4-28T11:33:6Z</time></trkpt>
<trkpt lat="46.966762542725" lon="4.0902414321899"><ele>557</ele><time>2026-4-28T11:33:9Z</time></trkpt>
<trkpt lat="46.966762542725" lon="4.0902414321899"><ele>557</ele><time>2026-4-28T11:33:12Z</time></trkpt>
<trkpt lat="46.966762542725" lon="4.0902414321899"><ele>557</ele><time>2026-4-28T11:33:15Z</time></trkpt>
<trkpt lat="46.966762542725" lon="4.0902414321899"><ele>557</ele><time>2026-4-28T11:33:18Z</time></trkpt>
<trkpt lat="46.966762542725" lon="4.0902414321899"><ele>557</ele><time>2026-4-28T11:33:21Z</time></trkpt>
<trkpt lat="46.966762542725" lon="4.0902414321899"><ele>557</ele><time>2026-4-28T11:33:24Z</time></trkpt>
<trkpt lat="46.966762542725" lon="4.0902414321899"><ele>557</ele><time>2026-4-28T11:33:27Z</time></trkpt>
<trkpt lat="46.966762542725" lon="4.0902414321899"><ele>557</ele><time>2026-4-28T11:33:30Z</time></trkpt>
<trkpt lat="46.966762542725" lon="4.0902414321899"><ele>557</ele><time>2026-4-28T11:33:33Z</time></trkpt>
<trkpt lat="46.966762542725" lon="4.0902414321899"><ele>557</ele><time>2026-4-28T11:33:36Z</time></trkpt>
<trkpt lat="46.966762542725" lon="4.0902414321899"><ele>557</ele><time>2026-4-28T11:33:39Z</time></trkpt>
<trkpt lat="46.966762542725" lon="4.0902414321899"><ele>557</ele><time>2026-4-28T11:33:42Z</time></trkpt>
<trkpt lat="46.966762542725" lon="4.0902414321899"><ele>557</ele><time>2026-4-28T11:33:45Z</time></trkpt>
<trkpt lat="46.966762542725" lon="4.0902414321899"><ele>557</ele><time>2026-4-28T11:33:48Z</time></trkpt>
<trkpt lat="46.966762542725" lon="4.0902414321899"><ele>557</ele><time>2026-4-28T11:33:51Z</time></trkpt>
<trkpt lat="46.966762542725" lon="4.0902414321899"><ele>557</ele><time>2026-4-28T11:33:54Z</time></trkpt>
<trkpt lat="46.966762542725" lon="4.0902414321899"><ele>557</ele><time>2026-4-28T11:33:57Z</time></trkpt>
<trkpt lat="46.966762542725" lon="4.0902414321899"><ele>557</ele><time>2026-4-28T11:34:0Z</time></trkpt>
<trkpt lat="46.966663360596" lon="4.0901880264282"><ele>558</ele><time>2026-4-28T11:34:3Z</time></trkpt>
<trkpt lat="46.966594696045" lon="4.0901556015015"><ele>558</ele><time>2026-4-28T11:34:6Z</time></trkpt>
<trkpt lat="46.966541290283" lon="4.0901274681091"><ele>558</ele><time>2026-4-28T11:34:9Z</time></trkpt>
<trkpt lat="46.966499328613" lon="4.0901045799255"><ele>558</ele><time>2026-4-28T11:34:12Z</time></trkpt>
<trkpt lat="46.966461181641" lon="4.0900826454163"><ele>559</ele><time>2026-4-28T11:34:15Z</time></trkpt>
<trkpt lat="46.966384887695" lon="4.0900440216064"><ele>559</ele><time>2026-4-28T11:34:18Z</time></trkpt>
<trkpt lat="46.966304779053" lon="4.0899987220764"><ele>559</ele><time>2026-4-28T11:34:21Z</time></trkpt>
<trkpt lat="46.966304779053" lon="4.0899987220764"><ele>559</ele><time>2026-4-28T11:34:24Z</time></trkpt>
<trkpt lat="46.966205596924" lon="4.0899214744568"><ele>559</ele><time>2026-4-28T11:34:27Z</time></trkpt>
<trkpt lat="46.966156005859" lon="4.089870929718"><ele>559</ele><time>2026-4-28T11:34:30Z</time></trkpt>
<trkpt lat="46.966156005859" lon="4.089870929718"><ele>559</ele><time>2026-4-28T11:34:33Z</time></trkpt>
<trkpt lat="46.966064453125" lon="4.0897846221924"><ele>560</ele><time>2026-4-28T11:34:36Z</time></trkpt>
<trkpt lat="46.965972900391" lon="4.0896992683411"><ele>560</ele><time>2026-4-28T11:34:39Z</time></trkpt>
<trkpt lat="46.965896606445" lon="4.0896091461182"><ele>561</ele><time>2026-4-28T11:34:42Z</time></trkpt>
<trkpt lat="46.965896606445" lon="4.0896091461182"><ele>561</ele><time>2026-4-28T11:34:45Z</time></trkpt>
<trkpt lat="46.965801239014" lon="4.0895004272461"><ele>562</ele><time>2026-4-28T11:34:48Z</time></trkpt>
<trkpt lat="46.965732574463" lon="4.0894341468811"><ele>562</ele><time>2026-4-28T11:34:51Z</time></trkpt>
<trkpt lat="46.965732574463" lon="4.0894341468811"><ele>562</ele><time>2026-4-28T11:34:54Z</time></trkpt>
<trkpt lat="46.965637207031" lon="4.08935546875"><ele>562</ele><time>2026-4-28T11:34:57Z</time></trkpt>
<trkpt lat="46.965557098389" lon="4.0892806053162"><ele>562</ele><time>2026-4-28T11:35:0Z</time></trkpt>
<trkpt lat="46.965557098389" lon="4.0892806053162"><ele>562</ele><time>2026-4-28T11:35:3Z</time></trkpt>
<trkpt lat="46.965469360352" lon="4.089213848114"><ele>563</ele><time>2026-4-28T11:35:6Z</time></trkpt>
<trkpt lat="46.965469360352" lon="4.089213848114"><ele>563</ele><time>2026-4-28T11:35:9Z</time></trkpt>
<trkpt lat="46.965396881104" lon="4.0891485214233"><ele>563</ele><time>2026-4-28T11:35:12Z</time></trkpt>
<trkpt lat="46.965396881104" lon="4.0891485214233"><ele>563</ele><time>2026-4-28T11:35:15Z</time></trkpt>
<trkpt lat="46.965328216553" lon="4.0890698432922"><ele>563</ele><time>2026-4-28T11:35:18Z</time></trkpt>
<trkpt lat="46.965328216553" lon="4.0890698432922"><ele>563</ele><time>2026-4-28T11:35:21Z</time></trkpt>
<trkpt lat="46.965259552002" lon="4.088978767395"><ele>564</ele><time>2026-4-28T11:35:24Z</time></trkpt>
<trkpt lat="46.965259552002" lon="4.088978767395"><ele>564</ele><time>2026-4-28T11:35:27Z</time></trkpt>
<trkpt lat="46.965194702148" lon="4.0888895988464"><ele>564</ele><time>2026-4-28T11:35:30Z</time></trkpt>
<trkpt lat="46.965194702148" lon="4.0888895988464"><ele>564</ele><time>2026-4-28T11:35:33Z</time></trkpt>
<trkpt lat="46.965148925781" lon="4.0888133049011"><ele>564</ele><time>2026-4-28T11:35:36Z</time></trkpt>
<trkpt lat="46.965148925781" lon="4.0888133049011"><ele>564</ele><time>2026-4-28T11:35:39Z</time></trkpt>
<trkpt lat="46.965106964111" lon="4.0887222290039"><ele>564</ele><time>2026-4-28T11:35:42Z</time></trkpt>
<trkpt lat="46.965106964111" lon="4.0887222290039"><ele>564</ele><time>2026-4-28T11:35:45Z</time></trkpt>
<trkpt lat="46.965065002441" lon="4.0885982513428"><ele>564</ele><time>2026-4-28T11:35:48Z</time></trkpt>
<trkpt lat="46.965065002441" lon="4.0885982513428"><ele>564</ele><time>2026-4-28T11:35:51Z</time></trkpt>
<trkpt lat="46.965026855469" lon="4.0884828567505"><ele>564</ele><time>2026-4-28T11:35:54Z</time></trkpt>
<trkpt lat="46.965026855469" lon="4.0884828567505"><ele>564</ele><time>2026-4-28T11:35:57Z</time></trkpt>
<trkpt lat="46.964984893799" lon="4.0883769989014"><ele>564</ele><time>2026-4-28T11:36:0Z</time></trkpt>
<trkpt lat="46.964984893799" lon="4.0883769989014"><ele>564</ele><time>2026-4-28T11:36:3Z</time></trkpt>
<trkpt lat="46.964984893799" lon="4.0883769989014"><ele>564</ele><time>2026-4-28T11:36:6Z</time></trkpt>
<trkpt lat="46.964984893799" lon="4.0883769989014"><ele>564</ele><time>2026-4-28T11:36:9Z</time></trkpt>
<trkpt lat="46.964958190918" lon="4.0882663726807"><ele>564</ele><time>2026-4-28T11:36:12Z</time></trkpt>
<trkpt lat="46.964958190918" lon="4.0882663726807"><ele>564</ele><time>2026-4-28T11:36:15Z</time></trkpt>
<trkpt lat="46.964946746826" lon="4.0881638526917"><ele>563</ele><time>2026-4-28T11:36:18Z</time></trkpt>
<trkpt lat="46.964946746826" lon="4.0881638526917"><ele>563</ele><time>2026-4-28T11:36:21Z</time></trkpt>
<trkpt lat="46.964912414551" lon="4.0880136489868"><ele>563</ele><time>2026-4-28T11:36:24Z</time></trkpt>
<trkpt lat="46.964881896973" lon="4.0878481864929"><ele>563</ele><time>2026-4-28T11:36:27Z</time></trkpt>
<trkpt lat="46.964866638184" lon="4.0877661705017"><ele>563</ele><time>2026-4-28T11:36:30Z</time></trkpt>
<trkpt lat="46.964836120605" lon="4.0876293182373"><ele>563</ele><time>2026-4-28T11:36:33Z</time></trkpt>
<trkpt lat="46.964805603027" lon="4.08753490448"><ele>563</ele><time>2026-4-28T11:36:36Z</time></trkpt>
<trkpt lat="46.964805603027" lon="4.08753490448"><ele>563</ele><time>2026-4-28T11:36:39Z</time></trkpt>
<trkpt lat="46.964790344238" lon="4.0874533653259"><ele>563</ele><time>2026-4-28T11:36:42Z</time></trkpt>
<trkpt lat="46.964790344238" lon="4.0874533653259"><ele>563</ele><time>2026-4-28T11:36:45Z</time></trkpt>
<trkpt lat="46.964778900146" lon="4.0873427391052"><ele>563</ele><time>2026-4-28T11:36:48Z</time></trkpt>
<trkpt lat="46.964778900146" lon="4.0873427391052"><ele>563</ele><time>2026-4-28T11:36:51Z</time></trkpt>
<trkpt lat="46.964756011963" lon="4.087212562561"><ele>564</ele><time>2026-4-28T11:36:54Z</time></trkpt>
<trkpt lat="46.964756011963" lon="4.087212562561"><ele>564</ele><time>2026-4-28T11:36:57Z</time></trkpt>
<trkpt lat="46.964744567871" lon="4.0871644020081"><ele>564</ele><time>2026-4-28T11:37:0Z</time></trkpt>
<trkpt lat="46.964736938477" lon="4.0871019363403"><ele>564</ele><time>2026-4-28T11:37:3Z</time></trkpt>
<trkpt lat="46.964729309082" lon="4.0870294570923"><ele>564</ele><time>2026-4-28T11:37:6Z</time></trkpt>
<trkpt lat="46.964725494385" lon="4.086953163147"><ele>564</ele><time>2026-4-28T11:37:9Z</time></trkpt>
<trkpt lat="46.96471786499" lon="4.0868835449219"><ele>564</ele><time>2026-4-28T11:37:12Z</time></trkpt>
<trkpt lat="46.964702606201" lon="4.0867319107056"><ele>564</ele><time>2026-4-28T11:37:15Z</time></trkpt>
<trkpt lat="46.964694976807" lon="4.0866327285767"><ele>564</ele><time>2026-4-28T11:37:18Z</time></trkpt>
<trkpt lat="46.964672088623" lon="4.0865421295166"><ele>564</ele><time>2026-4-28T11:37:21Z</time></trkpt>
<trkpt lat="46.964649200439" lon="4.0864195823669"><ele>564</ele><time>2026-4-28T11:37:24Z</time></trkpt>
<trkpt lat="46.964618682861" lon="4.0862894058228"><ele>564</ele><time>2026-4-28T11:37:27Z</time></trkpt>
<trkpt lat="46.964595794678" lon="4.0861954689026"><ele>564</ele><time>2026-4-28T11:37:30Z</time></trkpt>
<trkpt lat="46.964576721191" lon="4.0860934257507"><ele>564</ele><time>2026-4-28T11:37:33Z</time></trkpt>
<trkpt lat="46.964550018311" lon="4.0860013961792"><ele>564</ele><time>2026-4-28T11:37:36Z</time></trkpt>
<trkpt lat="46.964511871338" lon="4.0858492851257"><ele>564</ele><time>2026-4-28T11:37:39Z</time></trkpt>
<trkpt lat="46.964511871338" lon="4.0858492851257"><ele>564</ele><time>2026-4-28T11:37:42Z</time></trkpt>
<trkpt lat="46.964469909668" lon="4.0856747627258"><ele>563</ele><time>2026-4-28T11:37:45Z</time></trkpt>
<trkpt lat="46.96443939209" lon="4.0855674743652"><ele>563</ele><time>2026-4-28T11:37:48Z</time></trkpt>
<trkpt lat="46.964412689209" lon="4.085458278656"><ele>563</ele><time>2026-4-28T11:37:51Z</time></trkpt>
<trkpt lat="46.964378356934" lon="4.085346698761"><ele>563</ele><time>2026-4-28T11:37:54Z</time></trkpt>
<trkpt lat="46.964340209961" lon="4.0852389335632"><ele>563</ele><time>2026-4-28T11:37:57Z</time></trkpt>
<trkpt lat="46.964298248291" lon="4.0851345062256"><ele>563</ele><time>2026-4-28T11:38:0Z</time></trkpt>
<trkpt lat="46.964252471924" lon="4.0850353240967"><ele>562</ele><time>2026-4-28T11:38:3Z</time></trkpt>
<trkpt lat="46.964210510254" lon="4.0849523544312"><ele>561</ele><time>2026-4-28T11:38:6Z</time></trkpt>
<trkpt lat="46.964172363281" lon="4.0848474502563"><ele>559</ele><time>2026-4-28T11:38:9Z</time></trkpt>
<trkpt lat="46.964130401611" lon="4.0847363471985"><ele>558</ele><time>2026-4-28T11:38:12Z</time></trkpt>
<trkpt lat="46.964080810547" lon="4.0846242904663"><ele>557</ele><time>2026-4-28T11:38:15Z</time></trkpt>
<trkpt lat="46.964019775391" lon="4.0845217704773"><ele>555</ele><time>2026-4-28T11:38:18Z</time></trkpt>
<trkpt lat="46.96395111084" lon="4.0844006538391"><ele>554</ele><time>2026-4-28T11:38:21Z</time></trkpt>
<trkpt lat="46.963890075684" lon="4.0842800140381"><ele>553</ele><time>2026-4-28T11:38:24Z</time></trkpt>
<trkpt lat="46.963832855225" lon="4.0841732025146"><ele>552</ele><time>2026-4-28T11:38:27Z</time></trkpt>
<trkpt lat="46.963779449463" lon="4.0840606689453"><ele>550</ele><time>2026-4-28T11:38:30Z</time></trkpt>
<trkpt lat="46.963722229004" lon="4.0839653015137"><ele>549</ele><time>2026-4-28T11:38:33Z</time></trkpt>
<trkpt lat="46.963665008545" lon="4.0838642120361"><ele>549</ele><time>2026-4-28T11:38:36Z</time></trkpt>
<trkpt lat="46.963611602783" lon="4.0837831497192"><ele>549</ele><time>2026-4-28T11:38:39Z</time></trkpt>
<trkpt lat="46.963558197021" lon="4.0837097167969"><ele>549</ele><time>2026-4-28T11:38:42Z</time></trkpt>
<trkpt lat="46.963508605957" lon="4.0836458206177"><ele>549</ele><time>2026-4-28T11:38:45Z</time></trkpt>
<trkpt lat="46.963508605957" lon="4.0836458206177"><ele>549</ele><time>2026-4-28T11:38:48Z</time></trkpt>
<trkpt lat="46.963417053223" lon="4.0835289955139"><ele>550</ele><time>2026-4-28T11:38:51Z</time></trkpt>
<trkpt lat="46.963367462158" lon="4.0834650993347"><ele>549</ele><time>2026-4-28T11:38:54Z</time></trkpt>
<trkpt lat="46.963367462158" lon="4.0834650993347"><ele>549</ele><time>2026-4-28T11:38:57Z</time></trkpt>
<trkpt lat="46.963287353516" lon="4.0833678245544"><ele>550</ele><time>2026-4-28T11:39:0Z</time></trkpt>
<trkpt lat="46.963237762451" lon="4.0833110809326"><ele>550</ele><time>2026-4-28T11:39:3Z</time></trkpt>
<trkpt lat="46.963237762451" lon="4.0833110809326"><ele>550</ele><time>2026-4-28T11:39:6Z</time></trkpt>
<trkpt lat="46.963165283203" lon="4.083233833313"><ele>550</ele><time>2026-4-28T11:39:9Z</time></trkpt>
<trkpt lat="46.963165283203" lon="4.083233833313"><ele>550</ele><time>2026-4-28T11:39:12Z</time></trkpt>
<trkpt lat="46.96305847168" lon="4.0831322669983"><ele>549</ele><time>2026-4-28T11:39:15Z</time></trkpt>
<trkpt lat="46.963001251221" lon="4.0830760002136"><ele>549</ele><time>2026-4-28T11:39:18Z</time></trkpt>
<trkpt lat="46.963001251221" lon="4.0830760002136"><ele>549</ele><time>2026-4-28T11:39:21Z</time></trkpt>
<trkpt lat="46.962905883789" lon="4.0829982757568"><ele>549</ele><time>2026-4-28T11:39:24Z</time></trkpt>
<trkpt lat="46.962852478027" lon="4.0829558372498"><ele>549</ele><time>2026-4-28T11:39:27Z</time></trkpt>
<trkpt lat="46.962799072266" lon="4.0828957557678"><ele>549</ele><time>2026-4-28T11:39:30Z</time></trkpt>
<trkpt lat="46.962745666504" lon="4.082839012146"><ele>549</ele><time>2026-4-28T11:39:33Z</time></trkpt>
<trkpt lat="46.962688446045" lon="4.082781791687"><ele>549</ele><time>2026-4-28T11:39:36Z</time></trkpt>
<trkpt lat="46.962623596191" lon="4.0827112197876"><ele>548</ele><time>2026-4-28T11:39:39Z</time></trkpt>
<trkpt lat="46.962551116943" lon="4.0826191902161"><ele>547</ele><time>2026-4-28T11:39:42Z</time></trkpt>
<trkpt lat="46.962474822998" lon="4.0824947357178"><ele>546</ele><time>2026-4-28T11:39:45Z</time></trkpt>
<trkpt lat="46.962409973145" lon="4.0823793411255"><ele>546</ele><time>2026-4-28T11:39:48Z</time></trkpt>
<trkpt lat="46.962368011475" lon="4.0822439193726"><ele>545</ele><time>2026-4-28T11:39:51Z</time></trkpt>
<trkpt lat="46.962368011475" lon="4.0821075439453"><ele>545</ele><time>2026-4-28T11:39:54Z</time></trkpt>
<trkpt lat="46.962368011475" lon="4.0819783210754"><ele>545</ele><time>2026-4-28T11:39:57Z</time></trkpt>
<trkpt lat="46.962368011475" lon="4.0819783210754"><ele>545</ele><time>2026-4-28T11:40:0Z</time></trkpt>
<trkpt lat="46.962368011475" lon="4.0819783210754"><ele>545</ele><time>2026-4-28T11:40:3Z</time></trkpt>
<trkpt lat="46.962368011475" lon="4.0819783210754"><ele>545</ele><time>2026-4-28T11:40:6Z</time></trkpt>
<trkpt lat="46.962368011475" lon="4.0819783210754"><ele>545</ele><time>2026-4-28T11:40:9Z</time></trkpt>
<trkpt lat="46.962368011475" lon="4.0819783210754"><ele>545</ele><time>2026-4-28T11:40:12Z</time></trkpt>
<trkpt lat="46.962368011475" lon="4.0819783210754"><ele>545</ele><time>2026-4-28T11:40:15Z</time></trkpt>
<trkpt lat="46.962368011475" lon="4.0819783210754"><ele>545</ele><time>2026-4-28T11:40:18Z</time></trkpt>
<trkpt lat="46.962368011475" lon="4.0819783210754"><ele>545</ele><time>2026-4-28T11:40:21Z</time></trkpt>
<trkpt lat="46.962368011475" lon="4.0819783210754"><ele>545</ele><time>2026-4-28T11:40:24Z</time></trkpt>
<trkpt lat="46.962368011475" lon="4.0819783210754"><ele>545</ele><time>2026-4-28T11:40:27Z</time></trkpt>
<trkpt lat="46.962368011475" lon="4.0819783210754"><ele>545</ele><time>2026-4-28T11:40:30Z</time></trkpt>
<trkpt lat="46.962368011475" lon="4.0819783210754"><ele>545</ele><time>2026-4-28T11:40:33Z</time></trkpt>
<trkpt lat="46.962368011475" lon="4.0819783210754"><ele>545</ele><time>2026-4-28T11:40:36Z</time></trkpt>
<trkpt lat="46.962284088135" lon="4.0819110870361"><ele>545</ele><time>2026-4-28T11:40:39Z</time></trkpt>
<trkpt lat="46.962200164795" lon="4.0818519592285"><ele>545</ele><time>2026-4-28T11:40:42Z</time></trkpt>
<trkpt lat="46.962200164795" lon="4.0818519592285"><ele>545</ele><time>2026-4-28T11:40:45Z</time></trkpt>
<trkpt lat="46.962112426758" lon="4.0817918777466"><ele>545</ele><time>2026-4-28T11:40:48Z</time></trkpt>
<trkpt lat="46.962013244629" lon="4.0817260742188"><ele>545</ele><time>2026-4-28T11:40:51Z</time></trkpt>
<trkpt lat="46.961902618408" lon="4.0816516876221"><ele>544</ele><time>2026-4-28T11:40:54Z</time></trkpt>
<trkpt lat="46.961902618408" lon="4.0816516876221"><ele>544</ele><time>2026-4-28T11:40:57Z</time></trkpt>
<trkpt lat="46.961669921875" lon="4.0814881324768"><ele>543</ele><time>2026-4-28T11:41:0Z</time></trkpt>
<trkpt lat="46.961536407471" lon="4.0813937187195"><ele>543</ele><time>2026-4-28T11:41:3Z</time></trkpt>
<trkpt lat="46.961402893066" lon="4.0813102722168"><ele>542</ele><time>2026-4-28T11:41:6Z</time></trkpt>
<trkpt lat="46.961402893066" lon="4.0813102722168"><ele>542</ele><time>2026-4-28T11:41:9Z</time></trkpt>
<trkpt lat="46.961273193359" lon="4.0812497138977"><ele>541</ele><time>2026-4-28T11:41:12Z</time></trkpt>
<trkpt lat="46.961132049561" lon="4.081241607666"><ele>540</ele><time>2026-4-28T11:41:15Z</time></trkpt>
<trkpt lat="46.961006164551" lon="4.0812244415283"><ele>539</ele><time>2026-4-28T11:41:18Z</time></trkpt>
<trkpt lat="46.961006164551" lon="4.0812244415283"><ele>539</ele><time>2026-4-28T11:41:21Z</time></trkpt>
<trkpt lat="46.960914611816" lon="4.0811700820923"><ele>540</ele><time>2026-4-28T11:41:24Z</time></trkpt>
<trkpt lat="46.960838317871" lon="4.081120967865"><ele>541</ele><time>2026-4-28T11:41:27Z</time></trkpt>
<trkpt lat="46.960746765137" lon="4.0810632705688"><ele>541</ele><time>2026-4-28T11:41:30Z</time></trkpt>
<trkpt lat="46.960746765137" lon="4.0810632705688"><ele>541</ele><time>2026-4-28T11:41:33Z</time></trkpt>
<trkpt lat="46.9606590271" lon="4.0810036659241"><ele>540</ele><time>2026-4-28T11:41:36Z</time></trkpt>
<trkpt lat="46.960590362549" lon="4.0809450149536"><ele>540</ele><time>2026-4-28T11:41:39Z</time></trkpt>
<trkpt lat="46.960529327393" lon="4.0808863639832"><ele>539</ele><time>2026-4-28T11:41:42Z</time></trkpt>
<trkpt lat="46.960529327393" lon="4.0808863639832"><ele>539</ele><time>2026-4-28T11:41:45Z</time></trkpt>
<trkpt lat="46.960464477539" lon="4.0808300971985"><ele>539</ele><time>2026-4-28T11:41:48Z</time></trkpt>
<trkpt lat="46.960411071777" lon="4.0807852745056"><ele>539</ele><time>2026-4-28T11:41:51Z</time></trkpt>
<trkpt lat="46.960353851318" lon="4.0807404518127"><ele>539</ele><time>2026-4-28T11:41:54Z</time></trkpt>
<trkpt lat="46.960353851318" lon="4.0807404518127"><ele>539</ele><time>2026-4-28T11:41:57Z</time></trkpt>
<trkpt lat="46.960292816162" lon="4.0806956291199"><ele>539</ele><time>2026-4-28T11:42:0Z</time></trkpt>
<trkpt lat="46.960227966309" lon="4.0806498527527"><ele>539</ele><time>2026-4-28T11:42:3Z</time></trkpt>
<trkpt lat="46.960155487061" lon="4.0806040763855"><ele>539</ele><time>2026-4-28T11:42:6Z</time></trkpt>
<trkpt lat="46.960155487061" lon="4.0806040763855"><ele>539</ele><time>2026-4-28T11:42:9Z</time></trkpt>
<trkpt lat="46.960083007812" lon="4.0805606842041"><ele>540</ele><time>2026-4-28T11:42:12Z</time></trkpt>
<trkpt lat="46.959999084473" lon="4.0805177688599"><ele>542</ele><time>2026-4-28T11:42:15Z</time></trkpt>
<trkpt lat="46.959903717041" lon="4.0804743766785"><ele>543</ele><time>2026-4-28T11:42:18Z</time></trkpt>
<trkpt lat="46.959903717041" lon="4.0804743766785"><ele>543</ele><time>2026-4-28T11:42:21Z</time></trkpt>
<trkpt lat="46.959808349609" lon="4.0804448127747"><ele>545</ele><time>2026-4-28T11:42:24Z</time></trkpt>
<trkpt lat="46.959701538086" lon="4.0804286003113"><ele>545</ele><time>2026-4-28T11:42:27Z</time></trkpt>
<trkpt lat="46.959587097168" lon="4.0804080963135"><ele>546</ele><time>2026-4-28T11:42:30Z</time></trkpt>
<trkpt lat="46.959587097168" lon="4.0804080963135"><ele>546</ele><time>2026-4-28T11:42:33Z</time></trkpt>
<trkpt lat="46.959465026855" lon="4.0803265571594"><ele>547</ele><time>2026-4-28T11:42:36Z</time></trkpt>
<trkpt lat="46.959342956543" lon="4.0802216529846"><ele>546</ele><time>2026-4-28T11:42:39Z</time></trkpt>
<trkpt lat="46.959209442139" lon="4.080096244812"><ele>544</ele><time>2026-4-28T11:42:42Z</time></trkpt>
<trkpt lat="46.959209442139" lon="4.080096244812"><ele>544</ele><time>2026-4-28T11:42:45Z</time></trkpt>
<trkpt lat="46.959060668945" lon="4.0799512863159"><ele>541</ele><time>2026-4-28T11:42:48Z</time></trkpt>
<trkpt lat="46.958908081055" lon="4.0798201560974"><ele>538</ele><time>2026-4-28T11:42:51Z</time></trkpt>
<trkpt lat="46.958770751953" lon="4.0797238349915"><ele>535</ele><time>2026-4-28T11:42:54Z</time></trkpt>
<trkpt lat="46.958770751953" lon="4.0797238349915"><ele>535</ele><time>2026-4-28T11:42:57Z</time></trkpt>
<trkpt lat="46.958637237549" lon="4.0796504020691"><ele>533</ele><time>2026-4-28T11:43:0Z</time></trkpt>
<trkpt lat="46.958473205566" lon="4.0795712471008"><ele>533</ele><time>2026-4-28T11:43:3Z</time></trkpt>
<trkpt lat="46.958297729492" lon="4.0794901847839"><ele>532</ele><time>2026-4-28T11:43:6Z</time></trkpt>
<trkpt lat="46.958297729492" lon="4.0794901847839"><ele>532</ele><time>2026-4-28T11:43:9Z</time></trkpt>
<trkpt lat="46.958087921143" lon="4.0794034004211"><ele>530</ele><time>2026-4-28T11:43:12Z</time></trkpt>
<trkpt lat="46.957893371582" lon="4.0793399810791"><ele>528</ele><time>2026-4-28T11:43:15Z</time></trkpt>
<trkpt lat="46.957893371582" lon="4.0793399810791"><ele>528</ele><time>2026-4-28T11:43:18Z</time></trkpt>
<trkpt lat="46.957893371582" lon="4.0793399810791"><ele>528</ele><time>2026-4-28T11:43:21Z</time></trkpt>
<trkpt lat="46.957893371582" lon="4.0793399810791"><ele>528</ele><time>2026-4-28T11:43:24Z</time></trkpt>
<trkpt lat="46.957893371582" lon="4.0793399810791"><ele>528</ele><time>2026-4-28T11:43:27Z</time></trkpt>
<trkpt lat="46.957893371582" lon="4.0793399810791"><ele>528</ele><time>2026-4-28T11:43:30Z</time></trkpt>
<trkpt lat="46.957893371582" lon="4.0793399810791"><ele>528</ele><time>2026-4-28T11:43:33Z</time></trkpt>
<trkpt lat="46.957893371582" lon="4.0793399810791"><ele>528</ele><time>2026-4-28T11:43:36Z</time></trkpt>
<trkpt lat="46.957893371582" lon="4.0793399810791"><ele>528</ele><time>2026-4-28T11:43:39Z</time></trkpt>
<trkpt lat="46.957893371582" lon="4.0793399810791"><ele>528</ele><time>2026-4-28T11:43:42Z</time></trkpt>
<trkpt lat="46.95760345459" lon="4.079026222229"><ele>524</ele><time>2026-4-28T11:43:45Z</time></trkpt>
<trkpt lat="46.957492828369" lon="4.0789012908936"><ele>520</ele><time>2026-4-28T11:43:48Z</time></trkpt>
<trkpt lat="46.95739364624" lon="4.0787925720215"><ele>516</ele><time>2026-4-28T11:43:51Z</time></trkpt>
<trkpt lat="46.95739364624" lon="4.0787925720215"><ele>516</ele><time>2026-4-28T11:43:54Z</time></trkpt>
<trkpt lat="46.957271575928" lon="4.0786871910095"><ele>513</ele><time>2026-4-28T11:43:57Z</time></trkpt>
<trkpt lat="46.957126617432" lon="4.078574180603"><ele>509</ele><time>2026-4-28T11:44:0Z</time></trkpt>
<trkpt lat="46.957004547119" lon="4.0785059928894"><ele>505</ele><time>2026-4-28T11:44:3Z</time></trkpt>
<trkpt lat="46.957004547119" lon="4.0785059928894"><ele>505</ele><time>2026-4-28T11:44:6Z</time></trkpt>
<trkpt lat="46.956871032715" lon="4.0784411430359"><ele>501</ele><time>2026-4-28T11:44:9Z</time></trkpt>
<trkpt lat="46.956733703613" lon="4.0783724784851"><ele>498</ele><time>2026-4-28T11:44:12Z</time></trkpt>
<trkpt lat="46.956565856934" lon="4.0782833099365"><ele>496</ele><time>2026-4-28T11:44:15Z</time></trkpt>
<trkpt lat="46.956565856934" lon="4.0782833099365"><ele>496</ele><time>2026-4-28T11:44:18Z</time></trkpt>
<trkpt lat="46.956420898438" lon="4.0781893730164"><ele>494</ele><time>2026-4-28T11:44:21Z</time></trkpt>
<trkpt lat="46.956268310547" lon="4.0780730247498"><ele>491</ele><time>2026-4-28T11:44:24Z</time></trkpt>
<trkpt lat="46.956115722656" lon="4.0779461860657"><ele>488</ele><time>2026-4-28T11:44:27Z</time></trkpt>
<trkpt lat="46.956115722656" lon="4.0779461860657"><ele>488</ele><time>2026-4-28T11:44:30Z</time></trkpt>
<trkpt lat="46.95597076416" lon="4.0778121948242"><ele>485</ele><time>2026-4-28T11:44:33Z</time></trkpt>
<trkpt lat="46.955833435059" lon="4.0776720046997"><ele>483</ele><time>2026-4-28T11:44:36Z</time></trkpt>
<trkpt lat="46.955711364746" lon="4.0775356292725"><ele>481</ele><time>2026-4-28T11:44:39Z</time></trkpt>
<trkpt lat="46.955711364746" lon="4.0775356292725"><ele>481</ele><time>2026-4-28T11:44:42Z</time></trkpt>
<trkpt lat="46.955596923828" lon="4.0774164199829"><ele>480</ele><time>2026-4-28T11:44:45Z</time></trkpt>
<trkpt lat="46.955474853516" lon="4.0773115158081"><ele>481</ele><time>2026-4-28T11:44:48Z</time></trkpt>
<trkpt lat="46.955348968506" lon="4.0772142410278"><ele>479</ele><time>2026-4-28T11:44:51Z</time></trkpt>
<trkpt lat="46.955348968506" lon="4.0772142410278"><ele>479</ele><time>2026-4-28T11:44:54Z</time></trkpt>
<trkpt lat="46.95524597168" lon="4.0771217346191"><ele>478</ele><time>2026-4-28T11:44:57Z</time></trkpt>
<trkpt lat="46.955177307129" lon="4.076940536499"><ele>477</ele><time>2026-4-28T11:45:0Z</time></trkpt>
<trkpt lat="46.955097198486" lon="4.0767121315002"><ele>476</ele><time>2026-4-28T11:45:3Z</time></trkpt>
<trkpt lat="46.955097198486" lon="4.0767121315002"><ele>476</ele><time>2026-4-28T11:45:6Z</time></trkpt>
<trkpt lat="46.955009460449" lon="4.0765428543091"><ele>475</ele><time>2026-4-28T11:45:9Z</time></trkpt>
<trkpt lat="46.954936981201" lon="4.0763750076294"><ele>475</ele><time>2026-4-28T11:45:12Z</time></trkpt>
<trkpt lat="46.954895019531" lon="4.0762281417847"><ele>474</ele><time>2026-4-28T11:45:15Z</time></trkpt>
<trkpt lat="46.954895019531" lon="4.0762281417847"><ele>474</ele><time>2026-4-28T11:45:18Z</time></trkpt>
<trkpt lat="46.954895019531" lon="4.0760869979858"><ele>474</ele><time>2026-4-28T11:45:21Z</time></trkpt>
<trkpt lat="46.954895019531" lon="4.0760869979858"><ele>474</ele><time>2026-4-28T11:45:24Z</time></trkpt>
<trkpt lat="46.954895019531" lon="4.0760869979858"><ele>474</ele><time>2026-4-28T11:45:27Z</time></trkpt>
<trkpt lat="46.954895019531" lon="4.0760869979858"><ele>474</ele><time>2026-4-28T11:45:30Z</time></trkpt>
<trkpt lat="46.954895019531" lon="4.0760869979858"><ele>474</ele><time>2026-4-28T11:45:33Z</time></trkpt>
<trkpt lat="46.954895019531" lon="4.0760869979858"><ele>474</ele><time>2026-4-28T11:45:36Z</time></trkpt>
<trkpt lat="46.954895019531" lon="4.0759801864624"><ele>475</ele><time>2026-4-28T11:45:39Z</time></trkpt>
<trkpt lat="46.954883575439" lon="4.0758910179138"><ele>476</ele><time>2026-4-28T11:45:42Z</time></trkpt>
<trkpt lat="46.954883575439" lon="4.0758910179138"><ele>476</ele><time>2026-4-28T11:45:45Z</time></trkpt>
<trkpt lat="46.954891204834" lon="4.0757546424866"><ele>476</ele><time>2026-4-28T11:45:48Z</time></trkpt>
<trkpt lat="46.954902648926" lon="4.075662612915"><ele>477</ele><time>2026-4-28T11:45:51Z</time></trkpt>
<trkpt lat="46.954895019531" lon="4.0755362510681"><ele>477</ele><time>2026-4-28T11:45:54Z</time></trkpt>
<trkpt lat="46.954891204834" lon="4.0754508972168"><ele>477</ele><time>2026-4-28T11:45:57Z</time></trkpt>
<trkpt lat="46.954891204834" lon="4.0754508972168"><ele>477</ele><time>2026-4-28T11:46:0Z</time></trkpt>
<trkpt lat="46.954875946045" lon="4.0753154754639"><ele>477</ele><time>2026-4-28T11:46:3Z</time></trkpt>
<trkpt lat="46.954875946045" lon="4.0753154754639"><ele>477</ele><time>2026-4-28T11:46:6Z</time></trkpt>
<trkpt lat="46.954845428467" lon="4.0751619338989"><ele>477</ele><time>2026-4-28T11:46:9Z</time></trkpt>
<trkpt lat="46.954845428467" lon="4.0751619338989"><ele>477</ele><time>2026-4-28T11:46:12Z</time></trkpt>
<trkpt lat="46.954811096191" lon="4.07506275177"><ele>477</ele><time>2026-4-28T11:46:15Z</time></trkpt>
<trkpt lat="46.954780578613" lon="4.0749750137329"><ele>477</ele><time>2026-4-28T11:46:18Z</time></trkpt>
<trkpt lat="46.954780578613" lon="4.0749750137329"><ele>477</ele><time>2026-4-28T11:46:21Z</time></trkpt>
<trkpt lat="46.954750061035" lon="4.0748839378357"><ele>477</ele><time>2026-4-28T11:46:24Z</time></trkpt>
<trkpt lat="46.954750061035" lon="4.0748839378357"><ele>477</ele><time>2026-4-28T11:46:27Z</time></trkpt>
<trkpt lat="46.954723358154" lon="4.0748014450073"><ele>477</ele><time>2026-4-28T11:46:30Z</time></trkpt>
<trkpt lat="46.954723358154" lon="4.0748014450073"><ele>477</ele><time>2026-4-28T11:46:33Z</time></trkpt>
<trkpt lat="46.954689025879" lon="4.0747108459473"><ele>477</ele><time>2026-4-28T11:46:36Z</time></trkpt>
<trkpt lat="46.954689025879" lon="4.0747108459473"><ele>477</ele><time>2026-4-28T11:46:39Z</time></trkpt>
<trkpt lat="46.954662322998" lon="4.074613571167"><ele>477</ele><time>2026-4-28T11:46:42Z</time></trkpt>
<trkpt lat="46.954662322998" lon="4.074613571167"><ele>477</ele><time>2026-4-28T11:46:45Z</time></trkpt>
<trkpt lat="46.954654693604" lon="4.07452917099"><ele>477</ele><time>2026-4-28T11:46:48Z</time></trkpt>
<trkpt lat="46.954654693604" lon="4.07452917099"><ele>477</ele><time>2026-4-28T11:46:51Z</time></trkpt>
<trkpt lat="46.954654693604" lon="4.07452917099"><ele>477</ele><time>2026-4-28T11:46:54Z</time></trkpt>
<trkpt lat="46.954666137695" lon="4.0744228363037"><ele>478</ele><time>2026-4-28T11:46:57Z</time></trkpt>
<trkpt lat="46.954666137695" lon="4.0744228363037"><ele>478</ele><time>2026-4-28T11:47:0Z</time></trkpt>
<trkpt lat="46.954666137695" lon="4.0744228363037"><ele>478</ele><time>2026-4-28T11:47:3Z</time></trkpt>
<trkpt lat="46.954685211182" lon="4.0743355751038"><ele>479</ele><time>2026-4-28T11:47:6Z</time></trkpt>
<trkpt lat="46.954685211182" lon="4.0743355751038"><ele>479</ele><time>2026-4-28T11:47:9Z</time></trkpt>
<trkpt lat="46.954685211182" lon="4.0743355751038"><ele>479</ele><time>2026-4-28T11:47:12Z</time></trkpt>
<trkpt lat="46.954685211182" lon="4.0743355751038"><ele>479</ele><time>2026-4-28T11:47:15Z</time></trkpt>
<trkpt lat="46.954685211182" lon="4.0743355751038"><ele>479</ele><time>2026-4-28T11:47:18Z</time></trkpt>
<trkpt lat="46.954685211182" lon="4.0743355751038"><ele>479</ele><time>2026-4-28T11:47:21Z</time></trkpt>
<trkpt lat="46.95484161377" lon="4.0740847587585"><ele>482</ele><time>2026-4-28T11:47:24Z</time></trkpt>
<trkpt lat="46.954864501953" lon="4.0740523338318"><ele>482</ele><time>2026-4-28T11:47:27Z</time></trkpt>
<trkpt lat="46.954864501953" lon="4.0740523338318"><ele>482</ele><time>2026-4-28T11:47:30Z</time></trkpt>
<trkpt lat="46.954864501953" lon="4.0740523338318"><ele>482</ele><time>2026-4-28T11:47:33Z</time></trkpt>
<trkpt lat="46.954898834229" lon="4.0739912986755"><ele>482</ele><time>2026-4-28T11:47:36Z</time></trkpt>
<trkpt lat="46.954925537109" lon="4.0739517211914"><ele>483</ele><time>2026-4-28T11:47:39Z</time></trkpt>
<trkpt lat="46.954948425293" lon="4.0738911628723"><ele>483</ele><time>2026-4-28T11:47:42Z</time></trkpt>
<trkpt lat="46.954963684082" lon="4.0738530158997"><ele>484</ele><time>2026-4-28T11:47:45Z</time></trkpt>
<trkpt lat="46.954963684082" lon="4.0738530158997"><ele>484</ele><time>2026-4-28T11:47:48Z</time></trkpt>
<trkpt lat="46.954986572266" lon="4.0738072395325"><ele>484</ele><time>2026-4-28T11:47:51Z</time></trkpt>
<trkpt lat="46.955009460449" lon="4.0737700462341"><ele>484</ele><time>2026-4-28T11:47:54Z</time></trkpt>
<trkpt lat="46.955028533936" lon="4.0737347602844"><ele>484</ele><time>2026-4-28T11:47:57Z</time></trkpt>
<trkpt lat="46.955047607422" lon="4.0736985206604"><ele>484</ele><time>2026-4-28T11:48:0Z</time></trkpt>
<trkpt lat="46.955047607422" lon="4.0736985206604"><ele>484</ele><time>2026-4-28T11:48:3Z</time></trkpt>
<trkpt lat="46.955047607422" lon="4.0736985206604"><ele>484</ele><time>2026-4-28T11:48:6Z</time></trkpt>
<trkpt lat="46.955047607422" lon="4.0736985206604"><ele>484</ele><time>2026-4-28T11:48:9Z</time></trkpt>
<trkpt lat="46.955066680908" lon="4.0736284255981"><ele>486</ele><time>2026-4-28T11:48:12Z</time></trkpt>
<trkpt lat="46.955078125" lon="4.073579788208"><ele>486</ele><time>2026-4-28T11:48:15Z</time></trkpt>
<trkpt lat="46.955078125" lon="4.073579788208"><ele>486</ele><time>2026-4-28T11:48:18Z</time></trkpt>
<trkpt lat="46.955078125" lon="4.073579788208"><ele>486</ele><time>2026-4-28T11:48:21Z</time></trkpt>
<trkpt lat="46.955078125" lon="4.073579788208"><ele>486</ele><time>2026-4-28T11:48:24Z</time></trkpt>
<trkpt lat="46.955078125" lon="4.073579788208"><ele>486</ele><time>2026-4-28T11:48:27Z</time></trkpt>
<trkpt lat="46.955081939697" lon="4.0734815597534"><ele>486</ele><time>2026-4-28T11:48:30Z</time></trkpt>
<trkpt lat="46.955081939697" lon="4.0734815597534"><ele>486</ele><time>2026-4-28T11:48:33Z</time></trkpt>
<trkpt lat="46.955089569092" lon="4.0734095573425"><ele>486</ele><time>2026-4-28T11:48:36Z</time></trkpt>
<trkpt lat="46.955101013184" lon="4.0733571052551"><ele>486</ele><time>2026-4-28T11:48:39Z</time></trkpt>
<trkpt lat="46.955101013184" lon="4.0733571052551"><ele>486</ele><time>2026-4-28T11:48:42Z</time></trkpt>
<trkpt lat="46.955112457275" lon="4.0733127593994"><ele>486</ele><time>2026-4-28T11:48:45Z</time></trkpt>
<trkpt lat="46.955112457275" lon="4.0733127593994"><ele>486</ele><time>2026-4-28T11:48:48Z</time></trkpt>
<trkpt lat="46.955112457275" lon="4.0733127593994"><ele>486</ele><time>2026-4-28T11:48:51Z</time></trkpt>
<trkpt lat="46.955093383789" lon="4.0732264518738"><ele>486</ele><time>2026-4-28T11:48:54Z</time></trkpt>
<trkpt lat="46.955078125" lon="4.0731720924377"><ele>486</ele><time>2026-4-28T11:48:57Z</time></trkpt>
<trkpt lat="46.955078125" lon="4.0731720924377"><ele>486</ele><time>2026-4-28T11:49:0Z</time></trkpt>
<trkpt lat="46.955055236816" lon="4.073127746582"><ele>486</ele><time>2026-4-28T11:49:3Z</time></trkpt>
<trkpt lat="46.955055236816" lon="4.073127746582"><ele>486</ele><time>2026-4-28T11:49:6Z</time></trkpt>
<trkpt lat="46.955028533936" lon="4.0730895996094"><ele>486</ele><time>2026-4-28T11:49:9Z</time></trkpt>
<trkpt lat="46.955005645752" lon="4.0730586051941"><ele>485</ele><time>2026-4-28T11:49:12Z</time></trkpt>
<trkpt lat="46.955005645752" lon="4.0730586051941"><ele>485</ele><time>2026-4-28T11:49:15Z</time></trkpt>
<trkpt lat="46.955005645752" lon="4.0730586051941"><ele>485</ele><time>2026-4-28T11:49:18Z</time></trkpt>
<trkpt lat="46.954963684082" lon="4.0730009078979"><ele>486</ele><time>2026-4-28T11:49:21Z</time></trkpt>
<trkpt lat="46.954933166504" lon="4.0729603767395"><ele>486</ele><time>2026-4-28T11:49:24Z</time></trkpt>
<trkpt lat="46.954933166504" lon="4.0729603767395"><ele>486</ele><time>2026-4-28T11:49:27Z</time></trkpt>
<trkpt lat="46.95491027832" lon="4.0729298591614"><ele>486</ele><time>2026-4-28T11:49:30Z</time></trkpt>
<trkpt lat="46.95491027832" lon="4.0729298591614"><ele>486</ele><time>2026-4-28T11:49:33Z</time></trkpt>
<trkpt lat="46.954883575439" lon="4.0729079246521"><ele>486</ele><time>2026-4-28T11:49:36Z</time></trkpt>
<trkpt lat="46.954883575439" lon="4.0729079246521"><ele>486</ele><time>2026-4-28T11:49:39Z</time></trkpt>
<trkpt lat="46.954845428467" lon="4.0728778839111"><ele>486</ele><time>2026-4-28T11:49:42Z</time></trkpt>
<trkpt lat="46.954845428467" lon="4.0728778839111"><ele>486</ele><time>2026-4-28T11:49:45Z</time></trkpt>
<trkpt lat="46.954845428467" lon="4.0728778839111"><ele>486</ele><time>2026-4-28T11:49:48Z</time></trkpt>
<trkpt lat="46.954845428467" lon="4.0728778839111"><ele>486</ele><time>2026-4-28T11:49:51Z</time></trkpt>
<trkpt lat="46.954845428467" lon="4.0728778839111"><ele>486</ele><time>2026-4-28T11:49:54Z</time></trkpt>
<trkpt lat="46.954807281494" lon="4.0727548599243"><ele>487</ele><time>2026-4-28T11:49:57Z</time></trkpt>
<trkpt lat="46.954776763916" lon="4.0726709365845"><ele>488</ele><time>2026-4-28T11:50:0Z</time></trkpt>
<trkpt lat="46.954753875732" lon="4.0726146697998"><ele>488</ele><time>2026-4-28T11:50:3Z</time></trkpt>
<trkpt lat="46.954753875732" lon="4.0726146697998"><ele>488</ele><time>2026-4-28T11:50:6Z</time></trkpt>
<trkpt lat="46.954753875732" lon="4.0726146697998"><ele>488</ele><time>2026-4-28T11:50:9Z</time></trkpt>
<trkpt lat="46.954769134521" lon="4.0726633071899"><ele>489</ele><time>2026-4-28T11:50:12Z</time></trkpt>
<trkpt lat="46.954792022705" lon="4.0727047920227"><ele>489</ele><time>2026-4-28T11:50:15Z</time></trkpt>
<trkpt lat="46.954792022705" lon="4.0727047920227"><ele>489</ele><time>2026-4-28T11:50:18Z</time></trkpt>
<trkpt lat="46.954818725586" lon="4.0727319717407"><ele>489</ele><time>2026-4-28T11:50:21Z</time></trkpt>
<trkpt lat="46.954845428467" lon="4.0727443695068"><ele>489</ele><time>2026-4-28T11:50:24Z</time></trkpt>
<trkpt lat="46.954875946045" lon="4.0727491378784"><ele>489</ele><time>2026-4-28T11:50:27Z</time></trkpt>
<trkpt lat="46.954875946045" lon="4.0727491378784"><ele>489</ele><time>2026-4-28T11:50:30Z</time></trkpt>
<trkpt lat="46.954940795898" lon="4.0727529525757"><ele>489</ele><time>2026-4-28T11:50:33Z</time></trkpt>
<trkpt lat="46.955024719238" lon="4.0727667808533"><ele>490</ele><time>2026-4-28T11:50:36Z</time></trkpt>
<trkpt lat="46.955024719238" lon="4.0727667808533"><ele>490</ele><time>2026-4-28T11:50:39Z</time></trkpt>
<trkpt lat="46.955116271973" lon="4.072808265686"><ele>490</ele><time>2026-4-28T11:50:42Z</time></trkpt>
<trkpt lat="46.955116271973" lon="4.072808265686"><ele>490</ele><time>2026-4-28T11:50:45Z</time></trkpt>
<trkpt lat="46.955116271973" lon="4.072808265686"><ele>490</ele><time>2026-4-28T11:50:48Z</time></trkpt>
<trkpt lat="46.955177307129" lon="4.0728406906128"><ele>490</ele><time>2026-4-28T11:50:51Z</time></trkpt>
<trkpt lat="46.955177307129" lon="4.0728406906128"><ele>490</ele><time>2026-4-28T11:50:54Z</time></trkpt>
<trkpt lat="46.955230712891" lon="4.072874546051"><ele>490</ele><time>2026-4-28T11:50:57Z</time></trkpt>
<trkpt lat="46.955230712891" lon="4.072874546051"><ele>490</ele><time>2026-4-28T11:51:0Z</time></trkpt>
<trkpt lat="46.955230712891" lon="4.072874546051"><ele>490</ele><time>2026-4-28T11:51:3Z</time></trkpt>
<trkpt lat="46.955230712891" lon="4.072874546051"><ele>490</ele><time>2026-4-28T11:51:6Z</time></trkpt>
<trkpt lat="46.955196380615" lon="4.0727968215942"><ele>491</ele><time>2026-4-28T11:51:9Z</time></trkpt>
<trkpt lat="46.955215454102" lon="4.072624206543"><ele>492</ele><time>2026-4-28T11:51:12Z</time></trkpt>
<trkpt lat="46.955215454102" lon="4.072624206543"><ele>492</ele><time>2026-4-28T11:51:15Z</time></trkpt>
<trkpt lat="46.955165863037" lon="4.0725574493408"><ele>492</ele><time>2026-4-28T11:51:18Z</time></trkpt>
<trkpt lat="46.955165863037" lon="4.0725574493408"><ele>492</ele><time>2026-4-28T11:51:21Z</time></trkpt>
<trkpt lat="46.955085754395" lon="4.0724534988403"><ele>492</ele><time>2026-4-28T11:51:24Z</time></trkpt>
<trkpt lat="46.955078125" lon="4.0723309516907"><ele>493</ele><time>2026-4-28T11:51:27Z</time></trkpt>
<trkpt lat="46.955123901367" lon="4.0722908973694"><ele>493</ele><time>2026-4-28T11:51:30Z</time></trkpt>
<trkpt lat="46.955123901367" lon="4.0722908973694"><ele>493</ele><time>2026-4-28T11:51:33Z</time></trkpt>
<trkpt lat="46.955123901367" lon="4.0722908973694"><ele>493</ele><time>2026-4-28T11:51:36Z</time></trkpt>
<trkpt lat="46.955123901367" lon="4.0722908973694"><ele>493</ele><time>2026-4-28T11:51:39Z</time></trkpt>
<trkpt lat="46.955123901367" lon="4.0722908973694"><ele>493</ele><time>2026-4-28T11:51:42Z</time></trkpt>
<trkpt lat="46.955123901367" lon="4.0722908973694"><ele>493</ele><time>2026-4-28T11:51:45Z</time></trkpt>
<trkpt lat="46.955123901367" lon="4.0722908973694"><ele>493</ele><time>2026-4-28T11:51:48Z</time></trkpt>
<trkpt lat="46.955123901367" lon="4.0722908973694"><ele>493</ele><time>2026-4-28T11:51:51Z</time></trkpt>
<trkpt lat="46.955123901367" lon="4.0722908973694"><ele>493</ele><time>2026-4-28T11:51:54Z</time></trkpt>
<trkpt lat="46.955123901367" lon="4.0722908973694"><ele>493</ele><time>2026-4-28T11:51:57Z</time></trkpt>
<trkpt lat="46.955123901367" lon="4.0722908973694"><ele>493</ele><time>2026-4-28T11:52:0Z</time></trkpt>
<trkpt lat="46.955123901367" lon="4.0722908973694"><ele>493</ele><time>2026-4-28T11:52:3Z</time></trkpt>
<trkpt lat="46.955123901367" lon="4.0722908973694"><ele>493</ele><time>2026-4-28T11:52:6Z</time></trkpt>
<trkpt lat="46.955123901367" lon="4.0722908973694"><ele>493</ele><time>2026-4-28T11:52:9Z</time></trkpt>
<trkpt lat="46.955123901367" lon="4.0722908973694"><ele>493</ele><time>2026-4-28T11:52:12Z</time></trkpt>
<trkpt lat="46.955066680908" lon="4.0723261833191"><ele>496</ele><time>2026-4-28T11:52:15Z</time></trkpt>
<trkpt lat="46.955066680908" lon="4.0723261833191"><ele>496</ele><time>2026-4-28T11:52:18Z</time></trkpt>
<trkpt lat="46.955017089844" lon="4.0723524093628"><ele>496</ele><time>2026-4-28T11:52:21Z</time></trkpt>
<trkpt lat="46.954959869385" lon="4.0723695755005"><ele>496</ele><time>2026-4-28T11:52:24Z</time></trkpt>
<trkpt lat="46.954902648926" lon="4.0723810195923"><ele>496</ele><time>2026-4-28T11:52:27Z</time></trkpt>
<trkpt lat="46.954902648926" lon="4.0723810195923"><ele>496</ele><time>2026-4-28T11:52:30Z</time></trkpt>
<trkpt lat="46.954837799072" lon="4.072386264801"><ele>496</ele><time>2026-4-28T11:52:33Z</time></trkpt>
<trkpt lat="46.95471572876" lon="4.0723786354065"><ele>496</ele><time>2026-4-28T11:52:36Z</time></trkpt>
<trkpt lat="46.954658508301" lon="4.0723562240601"><ele>497</ele><time>2026-4-28T11:52:39Z</time></trkpt>
<trkpt lat="46.954658508301" lon="4.0723562240601"><ele>497</ele><time>2026-4-28T11:52:42Z</time></trkpt>
<trkpt lat="46.954597473145" lon="4.0723161697388"><ele>497</ele><time>2026-4-28T11:52:45Z</time></trkpt>
<trkpt lat="46.954540252686" lon="4.0722279548645"><ele>497</ele><time>2026-4-28T11:52:48Z</time></trkpt>
<trkpt lat="46.954502105713" lon="4.0721507072449"><ele>497</ele><time>2026-4-28T11:52:51Z</time></trkpt>
<trkpt lat="46.954502105713" lon="4.0721507072449"><ele>497</ele><time>2026-4-28T11:52:54Z</time></trkpt>
<trkpt lat="46.954460144043" lon="4.0720481872559"><ele>497</ele><time>2026-4-28T11:52:57Z</time></trkpt>
<trkpt lat="46.954460144043" lon="4.0720481872559"><ele>497</ele><time>2026-4-28T11:53:0Z</time></trkpt>
<trkpt lat="46.954460144043" lon="4.0720481872559"><ele>497</ele><time>2026-4-28T11:53:3Z</time></trkpt>
<trkpt lat="46.9543800354" lon="4.0719304084778"><ele>497</ele><time>2026-4-28T11:53:6Z</time></trkpt>
<trkpt lat="46.95433807373" lon="4.0718545913696"><ele>497</ele><time>2026-4-28T11:53:9Z</time></trkpt>
<trkpt lat="46.95433807373" lon="4.0718545913696"><ele>497</ele><time>2026-4-28T11:53:12Z</time></trkpt>
<trkpt lat="46.954250335693" lon="4.0717496871948"><ele>497</ele><time>2026-4-28T11:53:15Z</time></trkpt>
<trkpt lat="46.954204559326" lon="4.0716814994812"><ele>498</ele><time>2026-4-28T11:53:18Z</time></trkpt>
<trkpt lat="46.954154968262" lon="4.0716061592102"><ele>498</ele><time>2026-4-28T11:53:21Z</time></trkpt>
<trkpt lat="46.954154968262" lon="4.0716061592102"><ele>498</ele><time>2026-4-28T11:53:24Z</time></trkpt>
<trkpt lat="46.954105377197" lon="4.0715279579163"><ele>498</ele><time>2026-4-28T11:53:27Z</time></trkpt>
<trkpt lat="46.954051971436" lon="4.0714468955994"><ele>497</ele><time>2026-4-28T11:53:30Z</time></trkpt>
<trkpt lat="46.953990936279" lon="4.0713496208191"><ele>497</ele><time>2026-4-28T11:53:33Z</time></trkpt>
<trkpt lat="46.953990936279" lon="4.0713496208191"><ele>497</ele><time>2026-4-28T11:53:36Z</time></trkpt>
<trkpt lat="46.953937530518" lon="4.0712480545044"><ele>497</ele><time>2026-4-28T11:53:39Z</time></trkpt>
<trkpt lat="46.953884124756" lon="4.0711460113525"><ele>496</ele><time>2026-4-28T11:53:42Z</time></trkpt>
<trkpt lat="46.953826904297" lon="4.0710401535034"><ele>496</ele><time>2026-4-28T11:53:45Z</time></trkpt>
<trkpt lat="46.953826904297" lon="4.0710401535034"><ele>496</ele><time>2026-4-28T11:53:48Z</time></trkpt>
<trkpt lat="46.953769683838" lon="4.0709266662598"><ele>495</ele><time>2026-4-28T11:53:51Z</time></trkpt>
<trkpt lat="46.953712463379" lon="4.070812702179"><ele>496</ele><time>2026-4-28T11:53:54Z</time></trkpt>
<trkpt lat="46.95365524292" lon="4.0707058906555"><ele>496</ele><time>2026-4-28T11:53:57Z</time></trkpt>
<trkpt lat="46.95365524292" lon="4.0707058906555"><ele>496</ele><time>2026-4-28T11:54:0Z</time></trkpt>
<trkpt lat="46.953605651855" lon="4.0706014633179"><ele>495</ele><time>2026-4-28T11:54:3Z</time></trkpt>
<trkpt lat="46.953540802002" lon="4.0704741477966"><ele>495</ele><time>2026-4-28T11:54:6Z</time></trkpt>
<trkpt lat="46.953479766846" lon="4.0703482627869"><ele>494</ele><time>2026-4-28T11:54:9Z</time></trkpt>
<trkpt lat="46.953479766846" lon="4.0703482627869"><ele>494</ele><time>2026-4-28T11:54:12Z</time></trkpt>
<trkpt lat="46.953418731689" lon="4.0702180862427"><ele>494</ele><time>2026-4-28T11:54:15Z</time></trkpt>
<trkpt lat="46.95336151123" lon="4.0700926780701"><ele>494</ele><time>2026-4-28T11:54:18Z</time></trkpt>
<trkpt lat="46.953319549561" lon="4.0699777603149"><ele>493</ele><time>2026-4-28T11:54:21Z</time></trkpt>
<trkpt lat="46.953319549561" lon="4.0699777603149"><ele>493</ele><time>2026-4-28T11:54:24Z</time></trkpt>
<trkpt lat="46.953273773193" lon="4.0698580741882"><ele>492</ele><time>2026-4-28T11:54:27Z</time></trkpt>
<trkpt lat="46.953243255615" lon="4.0697622299194"><ele>492</ele><time>2026-4-28T11:54:30Z</time></trkpt>
<trkpt lat="46.953201293945" lon="4.0696396827698"><ele>492</ele><time>2026-4-28T11:54:33Z</time></trkpt>
<trkpt lat="46.953201293945" lon="4.0696396827698"><ele>492</ele><time>2026-4-28T11:54:36Z</time></trkpt>
<trkpt lat="46.953159332275" lon="4.0695104598999"><ele>491</ele><time>2026-4-28T11:54:39Z</time></trkpt>
<trkpt lat="46.953109741211" lon="4.0693535804749"><ele>490</ele><time>2026-4-28T11:54:42Z</time></trkpt>
<trkpt lat="46.953056335449" lon="4.0692009925842"><ele>489</ele><time>2026-4-28T11:54:45Z</time></trkpt>
<trkpt lat="46.953056335449" lon="4.0692009925842"><ele>489</ele><time>2026-4-28T11:54:48Z</time></trkpt>
<trkpt lat="46.953002929688" lon="4.069052696228"><ele>488</ele><time>2026-4-28T11:54:51Z</time></trkpt>
<trkpt lat="46.952953338623" lon="4.0689077377319"><ele>487</ele><time>2026-4-28T11:54:54Z</time></trkpt>
<trkpt lat="46.952903747559" lon="4.0687618255615"><ele>487</ele><time>2026-4-28T11:54:57Z</time></trkpt>
<trkpt lat="46.952903747559" lon="4.0687618255615"><ele>487</ele><time>2026-4-28T11:55:0Z</time></trkpt>
<trkpt lat="46.9528465271" lon="4.0686111450195"><ele>486</ele><time>2026-4-28T11:55:3Z</time></trkpt>
<trkpt lat="46.952796936035" lon="4.068461894989"><ele>485</ele><time>2026-4-28T11:55:6Z</time></trkpt>
<trkpt lat="46.952743530273" lon="4.0683116912842"><ele>485</ele><time>2026-4-28T11:55:9Z</time></trkpt>
<trkpt lat="46.952743530273" lon="4.0683116912842"><ele>485</ele><time>2026-4-28T11:55:12Z</time></trkpt>
<trkpt lat="46.952697753906" lon="4.0681314468384"><ele>484</ele><time>2026-4-28T11:55:15Z</time></trkpt>
<trkpt lat="46.95267868042" lon="4.0679507255554"><ele>483</ele><time>2026-4-28T11:55:18Z</time></trkpt>
<trkpt lat="46.952701568604" lon="4.067813873291"><ele>483</ele><time>2026-4-28T11:55:21Z</time></trkpt>
<trkpt lat="46.952701568604" lon="4.067813873291"><ele>483</ele><time>2026-4-28T11:55:24Z</time></trkpt>
<trkpt lat="46.952758789062" lon="4.0676522254944"><ele>483</ele><time>2026-4-28T11:55:27Z</time></trkpt>
<trkpt lat="46.952857971191" lon="4.0675196647644"><ele>481</ele><time>2026-4-28T11:55:30Z</time></trkpt>
<trkpt lat="46.952953338623" lon="4.0673909187317"><ele>480</ele><time>2026-4-28T11:55:33Z</time></trkpt>
<trkpt lat="46.952953338623" lon="4.0673909187317"><ele>480</ele><time>2026-4-28T11:55:36Z</time></trkpt>
<trkpt lat="46.953025817871" lon="4.0672397613525"><ele>480</ele><time>2026-4-28T11:55:39Z</time></trkpt>
<trkpt lat="46.953071594238" lon="4.0670800209045"><ele>480</ele><time>2026-4-28T11:55:42Z</time></trkpt>
<trkpt lat="46.953086853027" lon="4.0669164657593"><ele>482</ele><time>2026-4-28T11:55:45Z</time></trkpt>
<trkpt lat="46.953086853027" lon="4.0669164657593"><ele>482</ele><time>2026-4-28T11:55:48Z</time></trkpt>
<trkpt lat="46.953067779541" lon="4.0667304992676"><ele>482</ele><time>2026-4-28T11:55:51Z</time></trkpt>
<trkpt lat="46.953010559082" lon="4.0665602684021"><ele>482</ele><time>2026-4-28T11:55:54Z</time></trkpt>
<trkpt lat="46.952938079834" lon="4.066424369812"><ele>481</ele><time>2026-4-28T11:55:57Z</time></trkpt>
<trkpt lat="46.952938079834" lon="4.066424369812"><ele>481</ele><time>2026-4-28T11:56:0Z</time></trkpt>
<trkpt lat="46.952861785889" lon="4.0663032531738"><ele>480</ele><time>2026-4-28T11:56:3Z</time></trkpt>
<trkpt lat="46.952777862549" lon="4.0661945343018"><ele>479</ele><time>2026-4-28T11:56:6Z</time></trkpt>
<trkpt lat="46.952697753906" lon="4.066107749939"><ele>479</ele><time>2026-4-28T11:56:9Z</time></trkpt>
<trkpt lat="46.952697753906" lon="4.066107749939"><ele>479</ele><time>2026-4-28T11:56:12Z</time></trkpt>
<trkpt lat="46.952610015869" lon="4.0660319328308"><ele>478</ele><time>2026-4-28T11:56:15Z</time></trkpt>
<trkpt lat="46.952522277832" lon="4.0659728050232"><ele>478</ele><time>2026-4-28T11:56:18Z</time></trkpt>
<trkpt lat="46.952423095703" lon="4.0659141540527"><ele>479</ele><time>2026-4-28T11:56:21Z</time></trkpt>
<trkpt lat="46.952423095703" lon="4.0659141540527"><ele>479</ele><time>2026-4-28T11:56:24Z</time></trkpt>
<trkpt lat="46.952327728271" lon="4.0658555030823"><ele>480</ele><time>2026-4-28T11:56:27Z</time></trkpt>
<trkpt lat="46.952243804932" lon="4.0657992362976"><ele>481</ele><time>2026-4-28T11:56:30Z</time></trkpt>
<trkpt lat="46.952163696289" lon="4.0657501220703"><ele>482</ele><time>2026-4-28T11:56:33Z</time></trkpt>
<trkpt lat="46.952163696289" lon="4.0657501220703"><ele>482</ele><time>2026-4-28T11:56:36Z</time></trkpt>
<trkpt lat="46.952098846436" lon="4.065703868866"><ele>482</ele><time>2026-4-28T11:56:39Z</time></trkpt>
<trkpt lat="46.952045440674" lon="4.0656638145447"><ele>482</ele><time>2026-4-28T11:56:42Z</time></trkpt>
<trkpt lat="46.952045440674" lon="4.0656638145447"><ele>482</ele><time>2026-4-28T11:56:45Z</time></trkpt>
<trkpt lat="46.952045440674" lon="4.0656638145447"><ele>482</ele><time>2026-4-28T11:56:48Z</time></trkpt>
<trkpt lat="46.951961517334" lon="4.0656061172485"><ele>483</ele><time>2026-4-28T11:56:51Z</time></trkpt>
<trkpt lat="46.951961517334" lon="4.0656061172485"><ele>483</ele><time>2026-4-28T11:56:54Z</time></trkpt>
<trkpt lat="46.951885223389" lon="4.0655574798584"><ele>483</ele><time>2026-4-28T11:56:57Z</time></trkpt>
<trkpt lat="46.951885223389" lon="4.0655574798584"><ele>483</ele><time>2026-4-28T11:57:0Z</time></trkpt>
<trkpt lat="46.951885223389" lon="4.0655574798584"><ele>483</ele><time>2026-4-28T11:57:3Z</time></trkpt>
<trkpt lat="46.951816558838" lon="4.0655126571655"><ele>483</ele><time>2026-4-28T11:57:6Z</time></trkpt>
<trkpt lat="46.951816558838" lon="4.0655126571655"><ele>483</ele><time>2026-4-28T11:57:9Z</time></trkpt>
<trkpt lat="46.951816558838" lon="4.0655126571655"><ele>483</ele><time>2026-4-28T11:57:12Z</time></trkpt>
<trkpt lat="46.951763153076" lon="4.0654735565186"><ele>484</ele><time>2026-4-28T11:57:15Z</time></trkpt>
<trkpt lat="46.951763153076" lon="4.0654735565186"><ele>484</ele><time>2026-4-28T11:57:18Z</time></trkpt>
<trkpt lat="46.951763153076" lon="4.0654735565186"><ele>484</ele><time>2026-4-28T11:57:21Z</time></trkpt>
<trkpt lat="46.951763153076" lon="4.0654735565186"><ele>484</ele><time>2026-4-28T11:57:24Z</time></trkpt>
<trkpt lat="46.951675415039" lon="4.065417766571"><ele>484</ele><time>2026-4-28T11:57:27Z</time></trkpt>
<trkpt lat="46.951675415039" lon="4.065417766571"><ele>484</ele><time>2026-4-28T11:57:30Z</time></trkpt>
<trkpt lat="46.951622009277" lon="4.0653777122498"><ele>485</ele><time>2026-4-28T11:57:33Z</time></trkpt>
<trkpt lat="46.951622009277" lon="4.0653777122498"><ele>485</ele><time>2026-4-28T11:57:36Z</time></trkpt>
<trkpt lat="46.951622009277" lon="4.0653777122498"><ele>485</ele><time>2026-4-28T11:57:39Z</time></trkpt>
<trkpt lat="46.951564788818" lon="4.0653405189514"><ele>486</ele><time>2026-4-28T11:57:42Z</time></trkpt>
<trkpt lat="46.951564788818" lon="4.0653405189514"><ele>486</ele><time>2026-4-28T11:57:45Z</time></trkpt>
<trkpt lat="46.951564788818" lon="4.0653405189514"><ele>486</ele><time>2026-4-28T11:57:48Z</time></trkpt>
<trkpt lat="46.951496124268" lon="4.0653018951416"><ele>486</ele><time>2026-4-28T11:57:51Z</time></trkpt>
<trkpt lat="46.951496124268" lon="4.0653018951416"><ele>486</ele><time>2026-4-28T11:57:54Z</time></trkpt>
<trkpt lat="46.951496124268" lon="4.0653018951416"><ele>486</ele><time>2026-4-28T11:57:57Z</time></trkpt>
<trkpt lat="46.951496124268" lon="4.0653018951416"><ele>486</ele><time>2026-4-28T11:58:0Z</time></trkpt>
<trkpt lat="46.951496124268" lon="4.0653018951416"><ele>486</ele><time>2026-4-28T11:58:3Z</time></trkpt>
<trkpt lat="46.951496124268" lon="4.0653018951416"><ele>486</ele><time>2026-4-28T11:58:6Z</time></trkpt>
<trkpt lat="46.951496124268" lon="4.0653018951416"><ele>486</ele><time>2026-4-28T11:58:9Z</time></trkpt>
<trkpt lat="46.951496124268" lon="4.0653018951416"><ele>486</ele><time>2026-4-28T11:58:12Z</time></trkpt>
<trkpt lat="46.951496124268" lon="4.0653018951416"><ele>486</ele><time>2026-4-28T11:58:15Z</time></trkpt>
<trkpt lat="46.951347351074" lon="4.0652780532837"><ele>488</ele><time>2026-4-28T11:58:18Z</time></trkpt>
<trkpt lat="46.951347351074" lon="4.0652780532837"><ele>488</ele><time>2026-4-28T11:58:21Z</time></trkpt>
<trkpt lat="46.951267242432" lon="4.0652422904968"><ele>488</ele><time>2026-4-28T11:58:24Z</time></trkpt>
<trkpt lat="46.951267242432" lon="4.0652422904968"><ele>488</ele><time>2026-4-28T11:58:27Z</time></trkpt>
<trkpt lat="46.951198577881" lon="4.0652112960815"><ele>489</ele><time>2026-4-28T11:58:30Z</time></trkpt>
<trkpt lat="46.951198577881" lon="4.0652112960815"><ele>489</ele><time>2026-4-28T11:58:33Z</time></trkpt>
<trkpt lat="46.95112991333" lon="4.06520652771"><ele>490</ele><time>2026-4-28T11:58:36Z</time></trkpt>
<trkpt lat="46.95112991333" lon="4.06520652771"><ele>490</ele><time>2026-4-28T11:58:39Z</time></trkpt>
<trkpt lat="46.951057434082" lon="4.0652046203613"><ele>490</ele><time>2026-4-28T11:58:42Z</time></trkpt>
<trkpt lat="46.950984954834" lon="4.0651955604553"><ele>491</ele><time>2026-4-28T11:58:45Z</time></trkpt>
<trkpt lat="46.950984954834" lon="4.0651955604553"><ele>491</ele><time>2026-4-28T11:58:48Z</time></trkpt>
<trkpt lat="46.950901031494" lon="4.0651884078979"><ele>492</ele><time>2026-4-28T11:58:51Z</time></trkpt>
<trkpt lat="46.950839996338" lon="4.065185546875"><ele>492</ele><time>2026-4-28T11:58:54Z</time></trkpt>
<trkpt lat="46.950839996338" lon="4.065185546875"><ele>492</ele><time>2026-4-28T11:58:57Z</time></trkpt>
<trkpt lat="46.950775146484" lon="4.0651512145996"><ele>493</ele><time>2026-4-28T11:59:0Z</time></trkpt>
<trkpt lat="46.950710296631" lon="4.0651392936707"><ele>493</ele><time>2026-4-28T11:59:3Z</time></trkpt>
<trkpt lat="46.950710296631" lon="4.0651392936707"><ele>493</ele><time>2026-4-28T11:59:6Z</time></trkpt>
<trkpt lat="46.950710296631" lon="4.0651392936707"><ele>493</ele><time>2026-4-28T11:59:9Z</time></trkpt>
<trkpt lat="46.950622558594" lon="4.0651121139526"><ele>494</ele><time>2026-4-28T11:59:12Z</time></trkpt>
<trkpt lat="46.950561523438" lon="4.0650677680969"><ele>494</ele><time>2026-4-28T11:59:15Z</time></trkpt>
<trkpt lat="46.950561523438" lon="4.0650677680969"><ele>494</ele><time>2026-4-28T11:59:18Z</time></trkpt>
<trkpt lat="46.950508117676" lon="4.0650320053101"><ele>494</ele><time>2026-4-28T11:59:21Z</time></trkpt>
<trkpt lat="46.950508117676" lon="4.0650320053101"><ele>494</ele><time>2026-4-28T11:59:24Z</time></trkpt>
<trkpt lat="46.9504737854" lon="4.0650129318237"><ele>495</ele><time>2026-4-28T11:59:27Z</time></trkpt>
<trkpt lat="46.950443267822" lon="4.064995765686"><ele>495</ele><time>2026-4-28T11:59:30Z</time></trkpt>
<trkpt lat="46.950412750244" lon="4.0649814605713"><ele>496</ele><time>2026-4-28T11:59:33Z</time></trkpt>
<trkpt lat="46.950412750244" lon="4.0649814605713"><ele>496</ele><time>2026-4-28T11:59:36Z</time></trkpt>
<trkpt lat="46.950386047363" lon="4.064968585968"><ele>496</ele><time>2026-4-28T11:59:39Z</time></trkpt>
<trkpt lat="46.950351715088" lon="4.0649538040161"><ele>496</ele><time>2026-4-28T11:59:42Z</time></trkpt>
<trkpt lat="46.950286865234" lon="4.0649251937866"><ele>496</ele><time>2026-4-28T11:59:45Z</time></trkpt>
<trkpt lat="46.950286865234" lon="4.0649251937866"><ele>496</ele><time>2026-4-28T11:59:48Z</time></trkpt>
<trkpt lat="46.950225830078" lon="4.0648875236511"><ele>496</ele><time>2026-4-28T11:59:51Z</time></trkpt>
<trkpt lat="46.950225830078" lon="4.0648875236511"><ele>496</ele><time>2026-4-28T11:59:54Z</time></trkpt>
<trkpt lat="46.950225830078" lon="4.0648875236511"><ele>496</ele><time>2026-4-28T11:59:57Z</time></trkpt>
<trkpt lat="46.950157165527" lon="4.0648722648621"><ele>496</ele><time>2026-4-28T12:0:0Z</time></trkpt>
<trkpt lat="46.950157165527" lon="4.0648722648621"><ele>496</ele><time>2026-4-28T12:0:3Z</time></trkpt>
<trkpt lat="46.950099945068" lon="4.0648608207703"><ele>496</ele><time>2026-4-28T12:0:6Z</time></trkpt>
<trkpt lat="46.950099945068" lon="4.0648608207703"><ele>496</ele><time>2026-4-28T12:0:9Z</time></trkpt>
<trkpt lat="46.950099945068" lon="4.0648608207703"><ele>496</ele><time>2026-4-28T12:0:12Z</time></trkpt>
<trkpt lat="46.950031280518" lon="4.0648593902588"><ele>496</ele><time>2026-4-28T12:0:15Z</time></trkpt>
<trkpt lat="46.950031280518" lon="4.0648593902588"><ele>496</ele><time>2026-4-28T12:0:18Z</time></trkpt>
<trkpt lat="46.949966430664" lon="4.0648574829102"><ele>496</ele><time>2026-4-28T12:0:21Z</time></trkpt>
<trkpt lat="46.949897766113" lon="4.0648636817932"><ele>496</ele><time>2026-4-28T12:0:24Z</time></trkpt>
<trkpt lat="46.949897766113" lon="4.0648636817932"><ele>496</ele><time>2026-4-28T12:0:27Z</time></trkpt>
<trkpt lat="46.949897766113" lon="4.0648636817932"><ele>496</ele><time>2026-4-28T12:0:30Z</time></trkpt>
<trkpt lat="46.949836730957" lon="4.0648708343506"><ele>496</ele><time>2026-4-28T12:0:33Z</time></trkpt>
<trkpt lat="46.949836730957" lon="4.0648708343506"><ele>496</ele><time>2026-4-28T12:0:36Z</time></trkpt>
<trkpt lat="46.949836730957" lon="4.0648708343506"><ele>496</ele><time>2026-4-28T12:0:39Z</time></trkpt>
<trkpt lat="46.949771881104" lon="4.0648822784424"><ele>496</ele><time>2026-4-28T12:0:42Z</time></trkpt>
<trkpt lat="46.949771881104" lon="4.0648822784424"><ele>496</ele><time>2026-4-28T12:0:45Z</time></trkpt>
<trkpt lat="46.949710845947" lon="4.0648851394653"><ele>497</ele><time>2026-4-28T12:0:48Z</time></trkpt>
<trkpt lat="46.949710845947" lon="4.0648851394653"><ele>497</ele><time>2026-4-28T12:0:51Z</time></trkpt>
<trkpt lat="46.949710845947" lon="4.0648851394653"><ele>497</ele><time>2026-4-28T12:0:54Z</time></trkpt>
<trkpt lat="46.949645996094" lon="4.06489610672"><ele>497</ele><time>2026-4-28T12:0:57Z</time></trkpt>
<trkpt lat="46.949645996094" lon="4.06489610672"><ele>497</ele><time>2026-4-28T12:1:0Z</time></trkpt>
<trkpt lat="46.949573516846" lon="4.0649094581604"><ele>498</ele><time>2026-4-28T12:1:3Z</time></trkpt>
<trkpt lat="46.949489593506" lon="4.0649089813232"><ele>499</ele><time>2026-4-28T12:1:6Z</time></trkpt>
<trkpt lat="46.949489593506" lon="4.0649089813232"><ele>499</ele><time>2026-4-28T12:1:9Z</time></trkpt>
<trkpt lat="46.949489593506" lon="4.0649089813232"><ele>499</ele><time>2026-4-28T12:1:12Z</time></trkpt>
<trkpt lat="46.949424743652" lon="4.0649037361145"><ele>500</ele><time>2026-4-28T12:1:15Z</time></trkpt>
<trkpt lat="46.949424743652" lon="4.0649037361145"><ele>500</ele><time>2026-4-28T12:1:18Z</time></trkpt>
<trkpt lat="46.949424743652" lon="4.0649037361145"><ele>500</ele><time>2026-4-28T12:1:21Z</time></trkpt>
<trkpt lat="46.949363708496" lon="4.0648789405823"><ele>501</ele><time>2026-4-28T12:1:24Z</time></trkpt>
<trkpt lat="46.949310302734" lon="4.0648274421692"><ele>502</ele><time>2026-4-28T12:1:27Z</time></trkpt>
<trkpt lat="46.949310302734" lon="4.0648274421692"><ele>502</ele><time>2026-4-28T12:1:30Z</time></trkpt>
<trkpt lat="46.949253082275" lon="4.0647592544556"><ele>502</ele><time>2026-4-28T12:1:33Z</time></trkpt>
<trkpt lat="46.949253082275" lon="4.0647592544556"><ele>502</ele><time>2026-4-28T12:1:36Z</time></trkpt>
<trkpt lat="46.949253082275" lon="4.0647592544556"><ele>502</ele><time>2026-4-28T12:1:39Z</time></trkpt>
<trkpt lat="46.949188232422" lon="4.0646533966064"><ele>503</ele><time>2026-4-28T12:1:42Z</time></trkpt>
<trkpt lat="46.949142456055" lon="4.0645432472229"><ele>503</ele><time>2026-4-28T12:1:45Z</time></trkpt>
<trkpt lat="46.949142456055" lon="4.0645432472229"><ele>503</ele><time>2026-4-28T12:1:48Z</time></trkpt>
<trkpt lat="46.949108123779" lon="4.0644516944885"><ele>503</ele><time>2026-4-28T12:1:51Z</time></trkpt>
<trkpt lat="46.949108123779" lon="4.0644516944885"><ele>503</ele><time>2026-4-28T12:1:54Z</time></trkpt>
<trkpt lat="46.949108123779" lon="4.0644516944885"><ele>503</ele><time>2026-4-28T12:1:57Z</time></trkpt>
<trkpt lat="46.949085235596" lon="4.0643720626831"><ele>503</ele><time>2026-4-28T12:2:0Z</time></trkpt>
<trkpt lat="46.949085235596" lon="4.0643720626831"><ele>503</ele><time>2026-4-28T12:2:3Z</time></trkpt>
<trkpt lat="46.949066162109" lon="4.0642800331116"><ele>504</ele><time>2026-4-28T12:2:6Z</time></trkpt>
<trkpt lat="46.949058532715" lon="4.0641932487488"><ele>503</ele><time>2026-4-28T12:2:9Z</time></trkpt>
<trkpt lat="46.949058532715" lon="4.0641932487488"><ele>503</ele><time>2026-4-28T12:2:12Z</time></trkpt>
<trkpt lat="46.949058532715" lon="4.0641932487488"><ele>503</ele><time>2026-4-28T12:2:15Z</time></trkpt>
<trkpt lat="46.949039459229" lon="4.0640797615051"><ele>504</ele><time>2026-4-28T12:2:18Z</time></trkpt>
<trkpt lat="46.949039459229" lon="4.0640797615051"><ele>504</ele><time>2026-4-28T12:2:21Z</time></trkpt>
<trkpt lat="46.949039459229" lon="4.0640797615051"><ele>504</ele><time>2026-4-28T12:2:24Z</time></trkpt>
<trkpt lat="46.949039459229" lon="4.0640797615051"><ele>504</ele><time>2026-4-28T12:2:27Z</time></trkpt>
<trkpt lat="46.949039459229" lon="4.0640797615051"><ele>504</ele><time>2026-4-28T12:2:30Z</time></trkpt>
<trkpt lat="46.949039459229" lon="4.0640797615051"><ele>504</ele><time>2026-4-28T12:2:33Z</time></trkpt>
<trkpt lat="46.949039459229" lon="4.0640797615051"><ele>504</ele><time>2026-4-28T12:2:36Z</time></trkpt>
<trkpt lat="46.949039459229" lon="4.0640797615051"><ele>504</ele><time>2026-4-28T12:2:39Z</time></trkpt>
<trkpt lat="46.949039459229" lon="4.0640797615051"><ele>504</ele><time>2026-4-28T12:2:42Z</time></trkpt>
<trkpt lat="46.949039459229" lon="4.0640797615051"><ele>504</ele><time>2026-4-28T12:2:45Z</time></trkpt>
<trkpt lat="46.949039459229" lon="4.0640797615051"><ele>504</ele><time>2026-4-28T12:2:48Z</time></trkpt>
<trkpt lat="46.949039459229" lon="4.0640797615051"><ele>504</ele><time>2026-4-28T12:2:51Z</time></trkpt>
<trkpt lat="46.949039459229" lon="4.0640797615051"><ele>504</ele><time>2026-4-28T12:2:54Z</time></trkpt>
<trkpt lat="46.949039459229" lon="4.0640797615051"><ele>504</ele><time>2026-4-28T12:2:57Z</time></trkpt>
<trkpt lat="46.949039459229" lon="4.0640797615051"><ele>504</ele><time>2026-4-28T12:3:0Z</time></trkpt>
<trkpt lat="46.949039459229" lon="4.0640797615051"><ele>504</ele><time>2026-4-28T12:3:3Z</time></trkpt>
<trkpt lat="46.949039459229" lon="4.0640797615051"><ele>504</ele><time>2026-4-28T12:3:6Z</time></trkpt>
<trkpt lat="46.949039459229" lon="4.0640797615051"><ele>504</ele><time>2026-4-28T12:3:9Z</time></trkpt>
<trkpt lat="46.949039459229" lon="4.0640797615051"><ele>504</ele><time>2026-4-28T12:3:12Z</time></trkpt>
<trkpt lat="46.949039459229" lon="4.0640797615051"><ele>504</ele><time>2026-4-28T12:3:15Z</time></trkpt>
<trkpt lat="46.949039459229" lon="4.0640797615051"><ele>504</ele><time>2026-4-28T12:3:18Z</time></trkpt>
<trkpt lat="46.949039459229" lon="4.0640797615051"><ele>504</ele><time>2026-4-28T12:3:21Z</time></trkpt>
<trkpt lat="46.949039459229" lon="4.0640797615051"><ele>504</ele><time>2026-4-28T12:3:24Z</time></trkpt>
<trkpt lat="46.949039459229" lon="4.0640797615051"><ele>504</ele><time>2026-4-28T12:3:27Z</time></trkpt>
<trkpt lat="46.949039459229" lon="4.0640797615051"><ele>504</ele><time>2026-4-28T12:3:30Z</time></trkpt>
<trkpt lat="46.949039459229" lon="4.0640797615051"><ele>504</ele><time>2026-4-28T12:3:33Z</time></trkpt>
<trkpt lat="46.949039459229" lon="4.0640797615051"><ele>504</ele><time>2026-4-28T12:3:36Z</time></trkpt>
<trkpt lat="46.948978424072" lon="4.0640172958374"><ele>510</ele><time>2026-4-28T12:3:39Z</time></trkpt>
<trkpt lat="46.948951721191" lon="4.0639657974243"><ele>510</ele><time>2026-4-28T12:3:42Z</time></trkpt>
<trkpt lat="46.948936462402" lon="4.0639152526855"><ele>510</ele><time>2026-4-28T12:3:45Z</time></trkpt>
<trkpt lat="46.948925018311" lon="4.0638456344604"><ele>510</ele><time>2026-4-28T12:3:48Z</time></trkpt>
<trkpt lat="46.948917388916" lon="4.0637822151184"><ele>511</ele><time>2026-4-28T12:3:51Z</time></trkpt>
<trkpt lat="46.948909759521" lon="4.0636773109436"><ele>511</ele><time>2026-4-28T12:3:54Z</time></trkpt>
<trkpt lat="46.948913574219" lon="4.0635747909546"><ele>511</ele><time>2026-4-28T12:3:57Z</time></trkpt>
<trkpt lat="46.948913574219" lon="4.0635747909546"><ele>511</ele><time>2026-4-28T12:4:0Z</time></trkpt>
<trkpt lat="46.948905944824" lon="4.0634689331055"><ele>512</ele><time>2026-4-28T12:4:3Z</time></trkpt>
<trkpt lat="46.948905944824" lon="4.0634689331055"><ele>512</ele><time>2026-4-28T12:4:6Z</time></trkpt>
<trkpt lat="46.948902130127" lon="4.0633454322815"><ele>512</ele><time>2026-4-28T12:4:9Z</time></trkpt>
<trkpt lat="46.948902130127" lon="4.0633454322815"><ele>512</ele><time>2026-4-28T12:4:12Z</time></trkpt>
<trkpt lat="46.948890686035" lon="4.063259601593"><ele>512</ele><time>2026-4-28T12:4:15Z</time></trkpt>
<trkpt lat="46.948890686035" lon="4.063259601593"><ele>512</ele><time>2026-4-28T12:4:18Z</time></trkpt>
<trkpt lat="46.948890686035" lon="4.063259601593"><ele>512</ele><time>2026-4-28T12:4:21Z</time></trkpt>
<trkpt lat="46.948863983154" lon="4.0631456375122"><ele>512</ele><time>2026-4-28T12:4:24Z</time></trkpt>
<trkpt lat="46.948863983154" lon="4.0631456375122"><ele>512</ele><time>2026-4-28T12:4:27Z</time></trkpt>
<trkpt lat="46.948863983154" lon="4.0631456375122"><ele>512</ele><time>2026-4-28T12:4:30Z</time></trkpt>
<trkpt lat="46.948829650879" lon="4.0630431175232"><ele>513</ele><time>2026-4-28T12:4:33Z</time></trkpt>
<trkpt lat="46.948829650879" lon="4.0630431175232"><ele>513</ele><time>2026-4-28T12:4:36Z</time></trkpt>
<trkpt lat="46.948787689209" lon="4.0629739761353"><ele>514</ele><time>2026-4-28T12:4:39Z</time></trkpt>
<trkpt lat="46.948787689209" lon="4.0629739761353"><ele>514</ele><time>2026-4-28T12:4:42Z</time></trkpt>
<trkpt lat="46.948738098145" lon="4.0628886222839"><ele>515</ele><time>2026-4-28T12:4:45Z</time></trkpt>
<trkpt lat="46.948738098145" lon="4.0628886222839"><ele>515</ele><time>2026-4-28T12:4:48Z</time></trkpt>
<trkpt lat="46.948684692383" lon="4.0628366470337"><ele>517</ele><time>2026-4-28T12:4:51Z</time></trkpt>
<trkpt lat="46.948684692383" lon="4.0628366470337"><ele>517</ele><time>2026-4-28T12:4:54Z</time></trkpt>
<trkpt lat="46.948616027832" lon="4.0628147125244"><ele>518</ele><time>2026-4-28T12:4:57Z</time></trkpt>
<trkpt lat="46.948616027832" lon="4.0628147125244"><ele>518</ele><time>2026-4-28T12:5:0Z</time></trkpt>
<trkpt lat="46.948539733887" lon="4.0627951622009"><ele>519</ele><time>2026-4-28T12:5:3Z</time></trkpt>
<trkpt lat="46.948539733887" lon="4.0627951622009"><ele>519</ele><time>2026-4-28T12:5:6Z</time></trkpt>
<trkpt lat="46.948539733887" lon="4.0627951622009"><ele>519</ele><time>2026-4-28T12:5:9Z</time></trkpt>
<trkpt lat="46.948455810547" lon="4.0627746582031"><ele>520</ele><time>2026-4-28T12:5:12Z</time></trkpt>
<trkpt lat="46.948390960693" lon="4.0627703666687"><ele>520</ele><time>2026-4-28T12:5:15Z</time></trkpt>
<trkpt lat="46.948329925537" lon="4.0627665519714"><ele>520</ele><time>2026-4-28T12:5:18Z</time></trkpt>
<trkpt lat="46.948329925537" lon="4.0627665519714"><ele>520</ele><time>2026-4-28T12:5:21Z</time></trkpt>
<trkpt lat="46.948261260986" lon="4.0627512931824"><ele>520</ele><time>2026-4-28T12:5:24Z</time></trkpt>
<trkpt lat="46.948261260986" lon="4.0627512931824"><ele>520</ele><time>2026-4-28T12:5:27Z</time></trkpt>
<trkpt lat="46.948261260986" lon="4.0627512931824"><ele>520</ele><time>2026-4-28T12:5:30Z</time></trkpt>
<trkpt lat="46.94820022583" lon="4.0627241134644"><ele>521</ele><time>2026-4-28T12:5:33Z</time></trkpt>
<trkpt lat="46.94820022583" lon="4.0627241134644"><ele>521</ele><time>2026-4-28T12:5:36Z</time></trkpt>
<trkpt lat="46.948139190674" lon="4.0626883506775"><ele>521</ele><time>2026-4-28T12:5:39Z</time></trkpt>
<trkpt lat="46.948139190674" lon="4.0626883506775"><ele>521</ele><time>2026-4-28T12:5:42Z</time></trkpt>
<trkpt lat="46.94807434082" lon="4.0626268386841"><ele>521</ele><time>2026-4-28T12:5:45Z</time></trkpt>
<trkpt lat="46.94807434082" lon="4.0626268386841"><ele>521</ele><time>2026-4-28T12:5:48Z</time></trkpt>
<trkpt lat="46.94807434082" lon="4.0626268386841"><ele>521</ele><time>2026-4-28T12:5:51Z</time></trkpt>
<trkpt lat="46.948040008545" lon="4.062536239624"><ele>521</ele><time>2026-4-28T12:5:54Z</time></trkpt>
<trkpt lat="46.948040008545" lon="4.062536239624"><ele>521</ele><time>2026-4-28T12:5:57Z</time></trkpt>
<trkpt lat="46.948040008545" lon="4.062536239624"><ele>521</ele><time>2026-4-28T12:6:0Z</time></trkpt>
<trkpt lat="46.948017120361" lon="4.0624966621399"><ele>521</ele><time>2026-4-28T12:6:3Z</time></trkpt>
<trkpt lat="46.94799041748" lon="4.0624532699585"><ele>521</ele><time>2026-4-28T12:6:6Z</time></trkpt>
<trkpt lat="46.947959899902" lon="4.0623970031738"><ele>521</ele><time>2026-4-28T12:6:9Z</time></trkpt>
<trkpt lat="46.947933197021" lon="4.0623412132263"><ele>521</ele><time>2026-4-28T12:6:12Z</time></trkpt>
<trkpt lat="46.947906494141" lon="4.0622892379761"><ele>521</ele><time>2026-4-28T12:6:15Z</time></trkpt>
<trkpt lat="46.947853088379" lon="4.0621957778931"><ele>521</ele><time>2026-4-28T12:6:18Z</time></trkpt>
<trkpt lat="46.947853088379" lon="4.0621957778931"><ele>521</ele><time>2026-4-28T12:6:21Z</time></trkpt>
<trkpt lat="46.947803497314" lon="4.0621395111084"><ele>521</ele><time>2026-4-28T12:6:24Z</time></trkpt>
<trkpt lat="46.947803497314" lon="4.0621395111084"><ele>521</ele><time>2026-4-28T12:6:27Z</time></trkpt>
<trkpt lat="46.947746276855" lon="4.0620517730713"><ele>521</ele><time>2026-4-28T12:6:30Z</time></trkpt>
<trkpt lat="46.947704315186" lon="4.0619716644287"><ele>522</ele><time>2026-4-28T12:6:33Z</time></trkpt>
<trkpt lat="46.947650909424" lon="4.0618600845337"><ele>522</ele><time>2026-4-28T12:6:36Z</time></trkpt>
<trkpt lat="46.947608947754" lon="4.0617799758911"><ele>523</ele><time>2026-4-28T12:6:39Z</time></trkpt>
<trkpt lat="46.947608947754" lon="4.0617799758911"><ele>523</ele><time>2026-4-28T12:6:42Z</time></trkpt>
<trkpt lat="46.947574615479" lon="4.0616827011108"><ele>523</ele><time>2026-4-28T12:6:45Z</time></trkpt>
<trkpt lat="46.947574615479" lon="4.0616827011108"><ele>523</ele><time>2026-4-28T12:6:48Z</time></trkpt>
<trkpt lat="46.947528839111" lon="4.0615663528442"><ele>523</ele><time>2026-4-28T12:6:51Z</time></trkpt>
<trkpt lat="46.947498321533" lon="4.0614628791809"><ele>523</ele><time>2026-4-28T12:6:54Z</time></trkpt>
<trkpt lat="46.947498321533" lon="4.0614628791809"><ele>523</ele><time>2026-4-28T12:6:57Z</time></trkpt>
<trkpt lat="46.94747543335" lon="4.0613703727722"><ele>523</ele><time>2026-4-28T12:7:0Z</time></trkpt>
<trkpt lat="46.94747543335" lon="4.0613703727722"><ele>523</ele><time>2026-4-28T12:7:3Z</time></trkpt>
<trkpt lat="46.947456359863" lon="4.0612788200378"><ele>523</ele><time>2026-4-28T12:7:6Z</time></trkpt>
<trkpt lat="46.947456359863" lon="4.0612788200378"><ele>523</ele><time>2026-4-28T12:7:9Z</time></trkpt>
<trkpt lat="46.947441101074" lon="4.0611939430237"><ele>524</ele><time>2026-4-28T12:7:12Z</time></trkpt>
<trkpt lat="46.947425842285" lon="4.0611019134521"><ele>524</ele><time>2026-4-28T12:7:15Z</time></trkpt>
<trkpt lat="46.947425842285" lon="4.0611019134521"><ele>524</ele><time>2026-4-28T12:7:18Z</time></trkpt>
<trkpt lat="46.947410583496" lon="4.0610198974609"><ele>524</ele><time>2026-4-28T12:7:21Z</time></trkpt>
<trkpt lat="46.947410583496" lon="4.0610198974609"><ele>524</ele><time>2026-4-28T12:7:24Z</time></trkpt>
<trkpt lat="46.94739151001" lon="4.0609154701233"><ele>524</ele><time>2026-4-28T12:7:27Z</time></trkpt>
<trkpt lat="46.94739151001" lon="4.0609154701233"><ele>524</ele><time>2026-4-28T12:7:30Z</time></trkpt>
<trkpt lat="46.94739151001" lon="4.0609154701233"><ele>524</ele><time>2026-4-28T12:7:33Z</time></trkpt>
<trkpt lat="46.947372436523" lon="4.0608353614807"><ele>524</ele><time>2026-4-28T12:7:36Z</time></trkpt>
<trkpt lat="46.947372436523" lon="4.0608353614807"><ele>524</ele><time>2026-4-28T12:7:39Z</time></trkpt>
<trkpt lat="46.947372436523" lon="4.0608353614807"><ele>524</ele><time>2026-4-28T12:7:42Z</time></trkpt>
<trkpt lat="46.947372436523" lon="4.0608353614807"><ele>524</ele><time>2026-4-28T12:7:45Z</time></trkpt>
<trkpt lat="46.947345733643" lon="4.0607085227966"><ele>524</ele><time>2026-4-28T12:7:48Z</time></trkpt>
<trkpt lat="46.947345733643" lon="4.0607085227966"><ele>524</ele><time>2026-4-28T12:7:51Z</time></trkpt>
<trkpt lat="46.947345733643" lon="4.0607085227966"><ele>524</ele><time>2026-4-28T12:7:54Z</time></trkpt>
<trkpt lat="46.947345733643" lon="4.0607085227966"><ele>524</ele><time>2026-4-28T12:7:57Z</time></trkpt>
<trkpt lat="46.947322845459" lon="4.0605974197388"><ele>524</ele><time>2026-4-28T12:8:0Z</time></trkpt>
<trkpt lat="46.947322845459" lon="4.0605974197388"><ele>524</ele><time>2026-4-28T12:8:3Z</time></trkpt>
<trkpt lat="46.947303771973" lon="4.0604972839355"><ele>525</ele><time>2026-4-28T12:8:6Z</time></trkpt>
<trkpt lat="46.947303771973" lon="4.0604972839355"><ele>525</ele><time>2026-4-28T12:8:9Z</time></trkpt>
<trkpt lat="46.947303771973" lon="4.0604972839355"><ele>525</ele><time>2026-4-28T12:8:12Z</time></trkpt>
<trkpt lat="46.947288513184" lon="4.0603966712952"><ele>525</ele><time>2026-4-28T12:8:15Z</time></trkpt>
<trkpt lat="46.947288513184" lon="4.0603966712952"><ele>525</ele><time>2026-4-28T12:8:18Z</time></trkpt>
<trkpt lat="46.947269439697" lon="4.0603055953979"><ele>526</ele><time>2026-4-28T12:8:21Z</time></trkpt>
<trkpt lat="46.947269439697" lon="4.0603055953979"><ele>526</ele><time>2026-4-28T12:8:24Z</time></trkpt>
<trkpt lat="46.947254180908" lon="4.060197353363"><ele>527</ele><time>2026-4-28T12:8:27Z</time></trkpt>
<trkpt lat="46.947246551514" lon="4.0600972175598"><ele>528</ele><time>2026-4-28T12:8:30Z</time></trkpt>
<trkpt lat="46.947246551514" lon="4.0600972175598"><ele>528</ele><time>2026-4-28T12:8:33Z</time></trkpt>
<trkpt lat="46.947238922119" lon="4.059965133667"><ele>528</ele><time>2026-4-28T12:8:36Z</time></trkpt>
<trkpt lat="46.947238922119" lon="4.059965133667"><ele>528</ele><time>2026-4-28T12:8:39Z</time></trkpt>
<trkpt lat="46.947238922119" lon="4.0599050521851"><ele>529</ele><time>2026-4-28T12:8:42Z</time></trkpt>
<trkpt lat="46.947238922119" lon="4.0598564147949"><ele>529</ele><time>2026-4-28T12:8:45Z</time></trkpt>
<trkpt lat="46.947238922119" lon="4.0598564147949"><ele>529</ele><time>2026-4-28T12:8:48Z</time></trkpt>
<trkpt lat="46.947242736816" lon="4.0598125457764"><ele>529</ele><time>2026-4-28T12:8:51Z</time></trkpt>
<trkpt lat="46.947242736816" lon="4.059769153595"><ele>530</ele><time>2026-4-28T12:8:54Z</time></trkpt>
<trkpt lat="46.947242736816" lon="4.059769153595"><ele>530</ele><time>2026-4-28T12:8:57Z</time></trkpt>
<trkpt lat="46.947242736816" lon="4.059769153595"><ele>530</ele><time>2026-4-28T12:9:0Z</time></trkpt>
<trkpt lat="46.947238922119" lon="4.0597100257874"><ele>530</ele><time>2026-4-28T12:9:3Z</time></trkpt>
<trkpt lat="46.947238922119" lon="4.0596604347229"><ele>531</ele><time>2026-4-28T12:9:6Z</time></trkpt>
<trkpt lat="46.947238922119" lon="4.0596141815186"><ele>531</ele><time>2026-4-28T12:9:9Z</time></trkpt>
<trkpt lat="46.947238922119" lon="4.0596141815186"><ele>531</ele><time>2026-4-28T12:9:12Z</time></trkpt>
<trkpt lat="46.947238922119" lon="4.0595693588257"><ele>531</ele><time>2026-4-28T12:9:15Z</time></trkpt>
<trkpt lat="46.947235107422" lon="4.0595259666443"><ele>532</ele><time>2026-4-28T12:9:18Z</time></trkpt>
<trkpt lat="46.947235107422" lon="4.0595259666443"><ele>532</ele><time>2026-4-28T12:9:21Z</time></trkpt>
<trkpt lat="46.947235107422" lon="4.0595259666443"><ele>532</ele><time>2026-4-28T12:9:24Z</time></trkpt>
<trkpt lat="46.947227478027" lon="4.0594120025635"><ele>532</ele><time>2026-4-28T12:9:27Z</time></trkpt>
<trkpt lat="46.947227478027" lon="4.0594120025635"><ele>532</ele><time>2026-4-28T12:9:30Z</time></trkpt>
<trkpt lat="46.947227478027" lon="4.0594120025635"><ele>532</ele><time>2026-4-28T12:9:33Z</time></trkpt>
<trkpt lat="46.947227478027" lon="4.0594120025635"><ele>532</ele><time>2026-4-28T12:9:36Z</time></trkpt>
<trkpt lat="46.947212219238" lon="4.0593137741089"><ele>533</ele><time>2026-4-28T12:9:39Z</time></trkpt>
<trkpt lat="46.947212219238" lon="4.0593137741089"><ele>533</ele><time>2026-4-28T12:9:42Z</time></trkpt>
<trkpt lat="46.947212219238" lon="4.0593137741089"><ele>533</ele><time>2026-4-28T12:9:45Z</time></trkpt>
<trkpt lat="46.947189331055" lon="4.0592107772827"><ele>533</ele><time>2026-4-28T12:9:48Z</time></trkpt>
<trkpt lat="46.947189331055" lon="4.0592107772827"><ele>533</ele><time>2026-4-28T12:9:51Z</time></trkpt>
<trkpt lat="46.947162628174" lon="4.0591187477112"><ele>534</ele><time>2026-4-28T12:9:54Z</time></trkpt>
<trkpt lat="46.947162628174" lon="4.0591187477112"><ele>534</ele><time>2026-4-28T12:9:57Z</time></trkpt>
<trkpt lat="46.947162628174" lon="4.0591187477112"><ele>534</ele><time>2026-4-28T12:10:0Z</time></trkpt>
<trkpt lat="46.947162628174" lon="4.0591187477112"><ele>534</ele><time>2026-4-28T12:10:3Z</time></trkpt>
<trkpt lat="46.946998596191" lon="4.0587258338928"><ele>539</ele><time>2026-4-28T12:10:6Z</time></trkpt>
<trkpt lat="46.946968078613" lon="4.0586462020874"><ele>540</ele><time>2026-4-28T12:10:9Z</time></trkpt>
<trkpt lat="46.946926116943" lon="4.0585317611694"><ele>541</ele><time>2026-4-28T12:10:12Z</time></trkpt>
<trkpt lat="46.946926116943" lon="4.0585317611694"><ele>541</ele><time>2026-4-28T12:10:15Z</time></trkpt>
<trkpt lat="46.946884155273" lon="4.0584344863892"><ele>542</ele><time>2026-4-28T12:10:18Z</time></trkpt>
<trkpt lat="46.946849822998" lon="4.0583305358887"><ele>543</ele><time>2026-4-28T12:10:21Z</time></trkpt>
<trkpt lat="46.946792602539" lon="4.0582575798035"><ele>543</ele><time>2026-4-28T12:10:24Z</time></trkpt>
<trkpt lat="46.946784973145" lon="4.0581579208374"><ele>544</ele><time>2026-4-28T12:10:27Z</time></trkpt>
<trkpt lat="46.946784973145" lon="4.0581579208374"><ele>544</ele><time>2026-4-28T12:10:30Z</time></trkpt>
<trkpt lat="46.946784973145" lon="4.0581579208374"><ele>544</ele><time>2026-4-28T12:10:33Z</time></trkpt>
<trkpt lat="46.946784973145" lon="4.0581579208374"><ele>544</ele><time>2026-4-28T12:10:36Z</time></trkpt>
<trkpt lat="46.946739196777" lon="4.058084487915"><ele>544</ele><time>2026-4-28T12:10:39Z</time></trkpt>
<trkpt lat="46.946739196777" lon="4.058084487915"><ele>544</ele><time>2026-4-28T12:10:42Z</time></trkpt>
<trkpt lat="46.946739196777" lon="4.058084487915"><ele>544</ele><time>2026-4-28T12:10:45Z</time></trkpt>
<trkpt lat="46.946681976318" lon="4.0580067634583"><ele>544</ele><time>2026-4-28T12:10:48Z</time></trkpt>
<trkpt lat="46.946681976318" lon="4.0580067634583"><ele>544</ele><time>2026-4-28T12:10:51Z</time></trkpt>
<trkpt lat="46.946681976318" lon="4.0580067634583"><ele>544</ele><time>2026-4-28T12:10:54Z</time></trkpt>
<trkpt lat="46.946666717529" lon="4.0579056739807"><ele>543</ele><time>2026-4-28T12:10:57Z</time></trkpt>
<trkpt lat="46.946666717529" lon="4.0579056739807"><ele>543</ele><time>2026-4-28T12:11:0Z</time></trkpt>
<trkpt lat="46.946666717529" lon="4.0579056739807"><ele>543</ele><time>2026-4-28T12:11:3Z</time></trkpt>
<trkpt lat="46.946666717529" lon="4.0579056739807"><ele>543</ele><time>2026-4-28T12:11:6Z</time></trkpt>
<trkpt lat="46.94669342041" lon="4.0577421188354"><ele>542</ele><time>2026-4-28T12:11:9Z</time></trkpt>
<trkpt lat="46.946701049805" lon="4.0576195716858"><ele>543</ele><time>2026-4-28T12:11:12Z</time></trkpt>
<trkpt lat="46.94669342041" lon="4.0575065612793"><ele>543</ele><time>2026-4-28T12:11:15Z</time></trkpt>
<trkpt lat="46.946678161621" lon="4.0574045181274"><ele>544</ele><time>2026-4-28T12:11:18Z</time></trkpt>
<trkpt lat="46.946662902832" lon="4.05730676651"><ele>544</ele><time>2026-4-28T12:11:21Z</time></trkpt>
<trkpt lat="46.946624755859" lon="4.0571246147156"><ele>545</ele><time>2026-4-28T12:11:24Z</time></trkpt>
<trkpt lat="46.94660949707" lon="4.0569453239441"><ele>546</ele><time>2026-4-28T12:11:27Z</time></trkpt>
<trkpt lat="46.94660949707" lon="4.0568552017212"><ele>546</ele><time>2026-4-28T12:11:30Z</time></trkpt>
<trkpt lat="46.946605682373" lon="4.0567526817322"><ele>547</ele><time>2026-4-28T12:11:33Z</time></trkpt>
<trkpt lat="46.946605682373" lon="4.0567526817322"><ele>547</ele><time>2026-4-28T12:11:36Z</time></trkpt>
<trkpt lat="46.946601867676" lon="4.056667804718"><ele>547</ele><time>2026-4-28T12:11:39Z</time></trkpt>
<trkpt lat="46.946601867676" lon="4.056667804718"><ele>547</ele><time>2026-4-28T12:11:42Z</time></trkpt>
<trkpt lat="46.946601867676" lon="4.056667804718"><ele>547</ele><time>2026-4-28T12:11:45Z</time></trkpt>
<trkpt lat="46.946601867676" lon="4.056667804718"><ele>547</ele><time>2026-4-28T12:11:48Z</time></trkpt>
<trkpt lat="46.946598052979" lon="4.0565428733826"><ele>549</ele><time>2026-4-28T12:11:51Z</time></trkpt>
<trkpt lat="46.946598052979" lon="4.0565428733826"><ele>549</ele><time>2026-4-28T12:11:54Z</time></trkpt>
<trkpt lat="46.946578979492" lon="4.0564532279968"><ele>550</ele><time>2026-4-28T12:11:57Z</time></trkpt>
<trkpt lat="46.946578979492" lon="4.0564532279968"><ele>550</ele><time>2026-4-28T12:12:0Z</time></trkpt>
<trkpt lat="46.9465675354" lon="4.0563549995422"><ele>552</ele><time>2026-4-28T12:12:3Z</time></trkpt>
<trkpt lat="46.9465675354" lon="4.0563549995422"><ele>552</ele><time>2026-4-28T12:12:6Z</time></trkpt>
<trkpt lat="46.9465675354" lon="4.0563549995422"><ele>552</ele><time>2026-4-28T12:12:9Z</time></trkpt>
<trkpt lat="46.9465675354" lon="4.0563549995422"><ele>552</ele><time>2026-4-28T12:12:12Z</time></trkpt>
<trkpt lat="46.946544647217" lon="4.0562047958374"><ele>554</ele><time>2026-4-28T12:12:15Z</time></trkpt>
<trkpt lat="46.946544647217" lon="4.0562047958374"><ele>554</ele><time>2026-4-28T12:12:18Z</time></trkpt>
<trkpt lat="46.946544647217" lon="4.0562047958374"><ele>554</ele><time>2026-4-28T12:12:21Z</time></trkpt>
<trkpt lat="46.946537017822" lon="4.056010723114"><ele>556</ele><time>2026-4-28T12:12:24Z</time></trkpt>
<trkpt lat="46.946506500244" lon="4.0559086799622"><ele>558</ele><time>2026-4-28T12:12:27Z</time></trkpt>
<trkpt lat="46.946506500244" lon="4.0559086799622"><ele>558</ele><time>2026-4-28T12:12:30Z</time></trkpt>
<trkpt lat="46.946479797363" lon="4.0558142662048"><ele>559</ele><time>2026-4-28T12:12:33Z</time></trkpt>
<trkpt lat="46.946479797363" lon="4.0558142662048"><ele>559</ele><time>2026-4-28T12:12:36Z</time></trkpt>
<trkpt lat="46.946479797363" lon="4.0558142662048"><ele>559</ele><time>2026-4-28T12:12:39Z</time></trkpt>
<trkpt lat="46.946472167969" lon="4.0557126998901"><ele>561</ele><time>2026-4-28T12:12:42Z</time></trkpt>
<trkpt lat="46.946491241455" lon="4.0556297302246"><ele>562</ele><time>2026-4-28T12:12:45Z</time></trkpt>
<trkpt lat="46.946502685547" lon="4.055543422699"><ele>562</ele><time>2026-4-28T12:12:48Z</time></trkpt>
<trkpt lat="46.946510314941" lon="4.0554127693176"><ele>563</ele><time>2026-4-28T12:12:51Z</time></trkpt>
<trkpt lat="46.946510314941" lon="4.0554127693176"><ele>563</ele><time>2026-4-28T12:12:54Z</time></trkpt>
<trkpt lat="46.946514129639" lon="4.0553140640259"><ele>563</ele><time>2026-4-28T12:12:57Z</time></trkpt>
<trkpt lat="46.946514129639" lon="4.0553140640259"><ele>563</ele><time>2026-4-28T12:13:0Z</time></trkpt>
<trkpt lat="46.946517944336" lon="4.0551419258118"><ele>563</ele><time>2026-4-28T12:13:3Z</time></trkpt>
<trkpt lat="46.946517944336" lon="4.0551419258118"><ele>563</ele><time>2026-4-28T12:13:6Z</time></trkpt>
<trkpt lat="46.946510314941" lon="4.0550360679626"><ele>562</ele><time>2026-4-28T12:13:9Z</time></trkpt>
<trkpt lat="46.946510314941" lon="4.0550360679626"><ele>562</ele><time>2026-4-28T12:13:12Z</time></trkpt>
<trkpt lat="46.946487426758" lon="4.054922580719"><ele>563</ele><time>2026-4-28T12:13:15Z</time></trkpt>
<trkpt lat="46.946460723877" lon="4.0548167228699"><ele>564</ele><time>2026-4-28T12:13:18Z</time></trkpt>
<trkpt lat="46.946460723877" lon="4.0548167228699"><ele>564</ele><time>2026-4-28T12:13:21Z</time></trkpt>
<trkpt lat="46.946437835693" lon="4.0546793937683"><ele>564</ele><time>2026-4-28T12:13:24Z</time></trkpt>
<trkpt lat="46.946437835693" lon="4.0546793937683"><ele>564</ele><time>2026-4-28T12:13:27Z</time></trkpt>
<trkpt lat="46.946437835693" lon="4.0545873641968"><ele>564</ele><time>2026-4-28T12:13:30Z</time></trkpt>
<trkpt lat="46.946437835693" lon="4.0545101165771"><ele>564</ele><time>2026-4-28T12:13:33Z</time></trkpt>
<trkpt lat="46.946434020996" lon="4.0544352531433"><ele>564</ele><time>2026-4-28T12:13:36Z</time></trkpt>
<trkpt lat="46.946430206299" lon="4.0543575286865"><ele>564</ele><time>2026-4-28T12:13:39Z</time></trkpt>
<trkpt lat="46.946426391602" lon="4.0542826652527"><ele>564</ele><time>2026-4-28T12:13:42Z</time></trkpt>
<trkpt lat="46.946418762207" lon="4.0541472434998"><ele>564</ele><time>2026-4-28T12:13:45Z</time></trkpt>
<trkpt lat="46.946418762207" lon="4.0540452003479"><ele>564</ele><time>2026-4-28T12:13:48Z</time></trkpt>
<trkpt lat="46.946403503418" lon="4.0539083480835"><ele>564</ele><time>2026-4-28T12:13:51Z</time></trkpt>
<trkpt lat="46.946403503418" lon="4.0539083480835"><ele>564</ele><time>2026-4-28T12:13:54Z</time></trkpt>
<trkpt lat="46.946403503418" lon="4.0538158416748"><ele>564</ele><time>2026-4-28T12:13:57Z</time></trkpt>
<trkpt lat="46.946403503418" lon="4.0538158416748"><ele>564</ele><time>2026-4-28T12:14:0Z</time></trkpt>
<trkpt lat="46.946403503418" lon="4.0537300109863"><ele>564</ele><time>2026-4-28T12:14:3Z</time></trkpt>
<trkpt lat="46.946407318115" lon="4.0536322593689"><ele>564</ele><time>2026-4-28T12:14:6Z</time></trkpt>
<trkpt lat="46.946403503418" lon="4.0535321235657"><ele>563</ele><time>2026-4-28T12:14:9Z</time></trkpt>
<trkpt lat="46.946403503418" lon="4.0535321235657"><ele>563</ele><time>2026-4-28T12:14:12Z</time></trkpt>
<trkpt lat="46.946399688721" lon="4.0534243583679"><ele>563</ele><time>2026-4-28T12:14:15Z</time></trkpt>
<trkpt lat="46.946395874023" lon="4.0533170700073"><ele>562</ele><time>2026-4-28T12:14:18Z</time></trkpt>
<trkpt lat="46.946388244629" lon="4.053204536438"><ele>562</ele><time>2026-4-28T12:14:21Z</time></trkpt>
<trkpt lat="46.946388244629" lon="4.053204536438"><ele>562</ele><time>2026-4-28T12:14:24Z</time></trkpt>
<trkpt lat="46.946376800537" lon="4.0530796051025"><ele>562</ele><time>2026-4-28T12:14:27Z</time></trkpt>
<trkpt lat="46.94637298584" lon="4.0529789924622"><ele>562</ele><time>2026-4-28T12:14:30Z</time></trkpt>
<trkpt lat="46.946365356445" lon="4.0528445243835"><ele>563</ele><time>2026-4-28T12:14:33Z</time></trkpt>
<trkpt lat="46.946365356445" lon="4.0528445243835"><ele>563</ele><time>2026-4-28T12:14:36Z</time></trkpt>
<trkpt lat="46.946365356445" lon="4.0527272224426"><ele>563</ele><time>2026-4-28T12:14:39Z</time></trkpt>
<trkpt lat="46.946357727051" lon="4.0526099205017"><ele>563</ele><time>2026-4-28T12:14:42Z</time></trkpt>
<trkpt lat="46.946350097656" lon="4.0524826049805"><ele>563</ele><time>2026-4-28T12:14:45Z</time></trkpt>
<trkpt lat="46.946350097656" lon="4.0524826049805"><ele>563</ele><time>2026-4-28T12:14:48Z</time></trkpt>
<trkpt lat="46.946338653564" lon="4.0523552894592"><ele>563</ele><time>2026-4-28T12:14:51Z</time></trkpt>
<trkpt lat="46.946323394775" lon="4.052237033844"><ele>564</ele><time>2026-4-28T12:14:54Z</time></trkpt>
<trkpt lat="46.946319580078" lon="4.052122592926"><ele>564</ele><time>2026-4-28T12:14:57Z</time></trkpt>
<trkpt lat="46.946319580078" lon="4.052122592926"><ele>564</ele><time>2026-4-28T12:15:0Z</time></trkpt>
<trkpt lat="46.946311950684" lon="4.0520133972168"><ele>564</ele><time>2026-4-28T12:15:3Z</time></trkpt>
<trkpt lat="46.946311950684" lon="4.0520133972168"><ele>564</ele><time>2026-4-28T12:15:6Z</time></trkpt>
<trkpt lat="46.946311950684" lon="4.0520133972168"><ele>564</ele><time>2026-4-28T12:15:9Z</time></trkpt>
<trkpt lat="46.946300506592" lon="4.0519142150879"><ele>565</ele><time>2026-4-28T12:15:12Z</time></trkpt>
<trkpt lat="46.946300506592" lon="4.0519142150879"><ele>565</ele><time>2026-4-28T12:15:15Z</time></trkpt>
<trkpt lat="46.9462890625" lon="4.0518040657043"><ele>566</ele><time>2026-4-28T12:15:18Z</time></trkpt>
<trkpt lat="46.9462890625" lon="4.0518040657043"><ele>566</ele><time>2026-4-28T12:15:21Z</time></trkpt>
<trkpt lat="46.946281433105" lon="4.0516800880432"><ele>566</ele><time>2026-4-28T12:15:24Z</time></trkpt>
<trkpt lat="46.946281433105" lon="4.0516800880432"><ele>566</ele><time>2026-4-28T12:15:27Z</time></trkpt>
<trkpt lat="46.946281433105" lon="4.0516800880432"><ele>566</ele><time>2026-4-28T12:15:30Z</time></trkpt>
<trkpt lat="46.946273803711" lon="4.0515613555908"><ele>567</ele><time>2026-4-28T12:15:33Z</time></trkpt>
<trkpt lat="46.946273803711" lon="4.0515613555908"><ele>567</ele><time>2026-4-28T12:15:36Z</time></trkpt>
<trkpt lat="46.946273803711" lon="4.0514597892761"><ele>567</ele><time>2026-4-28T12:15:39Z</time></trkpt>
<trkpt lat="46.946273803711" lon="4.0514597892761"><ele>567</ele><time>2026-4-28T12:15:42Z</time></trkpt>
<trkpt lat="46.946273803711" lon="4.0514597892761"><ele>567</ele><time>2026-4-28T12:15:45Z</time></trkpt>
<trkpt lat="46.946273803711" lon="4.0514597892761"><ele>567</ele><time>2026-4-28T12:15:48Z</time></trkpt>
<trkpt lat="46.946273803711" lon="4.0514597892761"><ele>567</ele><time>2026-4-28T12:15:51Z</time></trkpt>
<trkpt lat="46.946273803711" lon="4.0514597892761"><ele>567</ele><time>2026-4-28T12:15:54Z</time></trkpt>
<trkpt lat="46.946266174316" lon="4.0512986183167"><ele>567</ele><time>2026-4-28T12:15:57Z</time></trkpt>
<trkpt lat="46.946266174316" lon="4.0512986183167"><ele>567</ele><time>2026-4-28T12:16:0Z</time></trkpt>
<trkpt lat="46.946254730225" lon="4.0511927604675"><ele>567</ele><time>2026-4-28T12:16:3Z</time></trkpt>
<trkpt lat="46.946254730225" lon="4.0511927604675"><ele>567</ele><time>2026-4-28T12:16:6Z</time></trkpt>
<trkpt lat="46.946254730225" lon="4.0511927604675"><ele>567</ele><time>2026-4-28T12:16:9Z</time></trkpt>
<trkpt lat="46.946250915527" lon="4.0511245727539"><ele>567</ele><time>2026-4-28T12:16:12Z</time></trkpt>
<trkpt lat="46.946250915527" lon="4.051064491272"><ele>567</ele><time>2026-4-28T12:16:15Z</time></trkpt>
<trkpt lat="46.946250915527" lon="4.051064491272"><ele>567</ele><time>2026-4-28T12:16:18Z</time></trkpt>
<trkpt lat="46.946254730225" lon="4.0510063171387"><ele>567</ele><time>2026-4-28T12:16:21Z</time></trkpt>
<trkpt lat="46.946266174316" lon="4.0509443283081"><ele>567</ele><time>2026-4-28T12:16:24Z</time></trkpt>
<trkpt lat="46.946281433105" lon="4.0508804321289"><ele>567</ele><time>2026-4-28T12:16:27Z</time></trkpt>
<trkpt lat="46.946281433105" lon="4.0508804321289"><ele>567</ele><time>2026-4-28T12:16:30Z</time></trkpt>
<trkpt lat="46.946308135986" lon="4.050751209259"><ele>567</ele><time>2026-4-28T12:16:33Z</time></trkpt>
<trkpt lat="46.946319580078" lon="4.0506477355957"><ele>567</ele><time>2026-4-28T12:16:36Z</time></trkpt>
<trkpt lat="46.946319580078" lon="4.0506477355957"><ele>567</ele><time>2026-4-28T12:16:39Z</time></trkpt>
<trkpt lat="46.946334838867" lon="4.0505218505859"><ele>566</ele><time>2026-4-28T12:16:42Z</time></trkpt>
<trkpt lat="46.946346282959" lon="4.0504369735718"><ele>567</ele><time>2026-4-28T12:16:45Z</time></trkpt>
<trkpt lat="46.946346282959" lon="4.0504369735718"><ele>567</ele><time>2026-4-28T12:16:48Z</time></trkpt>
<trkpt lat="46.946346282959" lon="4.0503015518188"><ele>567</ele><time>2026-4-28T12:16:51Z</time></trkpt>
<trkpt lat="46.946346282959" lon="4.0503015518188"><ele>567</ele><time>2026-4-28T12:16:54Z</time></trkpt>
<trkpt lat="46.946353912354" lon="4.0501761436462"><ele>567</ele><time>2026-4-28T12:16:57Z</time></trkpt>
<trkpt lat="46.946353912354" lon="4.0501761436462"><ele>567</ele><time>2026-4-28T12:17:0Z</time></trkpt>
<trkpt lat="46.946353912354" lon="4.0501761436462"><ele>567</ele><time>2026-4-28T12:17:3Z</time></trkpt>
<trkpt lat="46.946353912354" lon="4.0501761436462"><ele>567</ele><time>2026-4-28T12:17:6Z</time></trkpt>
<trkpt lat="46.946353912354" lon="4.0501761436462"><ele>567</ele><time>2026-4-28T12:17:9Z</time></trkpt>
<trkpt lat="46.946353912354" lon="4.0501761436462"><ele>567</ele><time>2026-4-28T12:17:12Z</time></trkpt>
<trkpt lat="46.946353912354" lon="4.0501761436462"><ele>567</ele><time>2026-4-28T12:17:15Z</time></trkpt>
<trkpt lat="46.946353912354" lon="4.0501761436462"><ele>567</ele><time>2026-4-28T12:17:18Z</time></trkpt>
<trkpt lat="46.946353912354" lon="4.0501761436462"><ele>567</ele><time>2026-4-28T12:17:21Z</time></trkpt>
<trkpt lat="46.946353912354" lon="4.0501761436462"><ele>567</ele><time>2026-4-28T12:17:24Z</time></trkpt>
<trkpt lat="46.946353912354" lon="4.0501761436462"><ele>567</ele><time>2026-4-28T12:17:27Z</time></trkpt>
<trkpt lat="46.946353912354" lon="4.0501761436462"><ele>567</ele><time>2026-4-28T12:17:30Z</time></trkpt>
<trkpt lat="46.946353912354" lon="4.0501761436462"><ele>567</ele><time>2026-4-28T12:17:33Z</time></trkpt>
<trkpt lat="46.946353912354" lon="4.0501761436462"><ele>567</ele><time>2026-4-28T12:17:36Z</time></trkpt>
<trkpt lat="46.946353912354" lon="4.0501761436462"><ele>567</ele><time>2026-4-28T12:17:39Z</time></trkpt>
<trkpt lat="46.946353912354" lon="4.0501761436462"><ele>567</ele><time>2026-4-28T12:17:42Z</time></trkpt>
<trkpt lat="46.946353912354" lon="4.0501761436462"><ele>567</ele><time>2026-4-28T12:17:45Z</time></trkpt>
<trkpt lat="46.946353912354" lon="4.0501761436462"><ele>567</ele><time>2026-4-28T12:17:48Z</time></trkpt>
<trkpt lat="46.946353912354" lon="4.0501761436462"><ele>567</ele><time>2026-4-28T12:17:51Z</time></trkpt>
<trkpt lat="46.946388244629" lon="4.0500793457031"><ele>569</ele><time>2026-4-28T12:17:54Z</time></trkpt>
<trkpt lat="46.946418762207" lon="4.0500030517578"><ele>569</ele><time>2026-4-28T12:17:57Z</time></trkpt>
<trkpt lat="46.946441650391" lon="4.0499353408813"><ele>569</ele><time>2026-4-28T12:18:0Z</time></trkpt>
<trkpt lat="46.946464538574" lon="4.0498690605164"><ele>569</ele><time>2026-4-28T12:18:3Z</time></trkpt>
<trkpt lat="46.946483612061" lon="4.0498051643372"><ele>569</ele><time>2026-4-28T12:18:6Z</time></trkpt>
<trkpt lat="46.946521759033" lon="4.0496859550476"><ele>569</ele><time>2026-4-28T12:18:9Z</time></trkpt>
<trkpt lat="46.946521759033" lon="4.0496859550476"><ele>569</ele><time>2026-4-28T12:18:12Z</time></trkpt>
<trkpt lat="46.946556091309" lon="4.0495624542236"><ele>569</ele><time>2026-4-28T12:18:15Z</time></trkpt>
<trkpt lat="46.946575164795" lon="4.0494780540466"><ele>570</ele><time>2026-4-28T12:18:18Z</time></trkpt>
<trkpt lat="46.946594238281" lon="4.0493745803833"><ele>570</ele><time>2026-4-28T12:18:21Z</time></trkpt>
<trkpt lat="46.946617126465" lon="4.0492839813232"><ele>570</ele><time>2026-4-28T12:18:24Z</time></trkpt>
<trkpt lat="46.946632385254" lon="4.0491986274719"><ele>570</ele><time>2026-4-28T12:18:27Z</time></trkpt>
<trkpt lat="46.946647644043" lon="4.0491108894348"><ele>570</ele><time>2026-4-28T12:18:30Z</time></trkpt>
<trkpt lat="46.946655273438" lon="4.0490045547485"><ele>570</ele><time>2026-4-28T12:18:33Z</time></trkpt>
<trkpt lat="46.946670532227" lon="4.0488948822021"><ele>571</ele><time>2026-4-28T12:18:36Z</time></trkpt>
<trkpt lat="46.946681976318" lon="4.0488123893738"><ele>571</ele><time>2026-4-28T12:18:39Z</time></trkpt>
<trkpt lat="46.946701049805" lon="4.0486755371094"><ele>571</ele><time>2026-4-28T12:18:42Z</time></trkpt>
<trkpt lat="46.946701049805" lon="4.0486755371094"><ele>571</ele><time>2026-4-28T12:18:45Z</time></trkpt>
<trkpt lat="46.946723937988" lon="4.048544883728"><ele>572</ele><time>2026-4-28T12:18:48Z</time></trkpt>
<trkpt lat="46.946723937988" lon="4.048544883728"><ele>572</ele><time>2026-4-28T12:18:51Z</time></trkpt>
<trkpt lat="46.946739196777" lon="4.048412322998"><ele>572</ele><time>2026-4-28T12:18:54Z</time></trkpt>
<trkpt lat="46.946739196777" lon="4.048412322998"><ele>572</ele><time>2026-4-28T12:18:57Z</time></trkpt>
<trkpt lat="46.946781158447" lon="4.0482811927795"><ele>573</ele><time>2026-4-28T12:19:0Z</time></trkpt>
<trkpt lat="46.946781158447" lon="4.0482811927795"><ele>573</ele><time>2026-4-28T12:19:3Z</time></trkpt>
<trkpt lat="46.946868896484" lon="4.0483336448669"><ele>573</ele><time>2026-4-28T12:19:6Z</time></trkpt>
<trkpt lat="46.946868896484" lon="4.0483336448669"><ele>573</ele><time>2026-4-28T12:19:9Z</time></trkpt>
<trkpt lat="46.946899414062" lon="4.0484566688538"><ele>573</ele><time>2026-4-28T12:19:12Z</time></trkpt>
<trkpt lat="46.946899414062" lon="4.0484566688538"><ele>573</ele><time>2026-4-28T12:19:15Z</time></trkpt>
<trkpt lat="46.946899414062" lon="4.0485754013062"><ele>573</ele><time>2026-4-28T12:19:18Z</time></trkpt>
<trkpt lat="46.946899414062" lon="4.0485754013062"><ele>573</ele><time>2026-4-28T12:19:21Z</time></trkpt>
<trkpt lat="46.94690322876" lon="4.0486845970154"><ele>573</ele><time>2026-4-28T12:19:24Z</time></trkpt>
<trkpt lat="46.94690322876" lon="4.0486845970154"><ele>573</ele><time>2026-4-28T12:19:27Z</time></trkpt>
<trkpt lat="46.94690322876" lon="4.048773765564"><ele>573</ele><time>2026-4-28T12:19:30Z</time></trkpt>
<trkpt lat="46.94690322876" lon="4.048773765564"><ele>573</ele><time>2026-4-28T12:19:33Z</time></trkpt>
<trkpt lat="46.946918487549" lon="4.0488595962524"><ele>573</ele><time>2026-4-28T12:19:36Z</time></trkpt>
<trkpt lat="46.946918487549" lon="4.0488595962524"><ele>573</ele><time>2026-4-28T12:19:39Z</time></trkpt>
<trkpt lat="46.946918487549" lon="4.0488595962524"><ele>573</ele><time>2026-4-28T12:19:42Z</time></trkpt>
<trkpt lat="46.946926116943" lon="4.0489816665649"><ele>573</ele><time>2026-4-28T12:19:45Z</time></trkpt>
<trkpt lat="46.946926116943" lon="4.0489816665649"><ele>573</ele><time>2026-4-28T12:19:48Z</time></trkpt>
<trkpt lat="46.946926116943" lon="4.0490775108337"><ele>574</ele><time>2026-4-28T12:19:51Z</time></trkpt>
<trkpt lat="46.946926116943" lon="4.0490775108337"><ele>574</ele><time>2026-4-28T12:19:54Z</time></trkpt>
<trkpt lat="46.946933746338" lon="4.0491676330566"><ele>574</ele><time>2026-4-28T12:19:57Z</time></trkpt>
<trkpt lat="46.946933746338" lon="4.0491676330566"><ele>574</ele><time>2026-4-28T12:20:0Z</time></trkpt>
<trkpt lat="46.946949005127" lon="4.0492568016052"><ele>574</ele><time>2026-4-28T12:20:3Z</time></trkpt>
<trkpt lat="46.946949005127" lon="4.0492568016052"><ele>574</ele><time>2026-4-28T12:20:6Z</time></trkpt>
<trkpt lat="46.946971893311" lon="4.0493416786194"><ele>574</ele><time>2026-4-28T12:20:9Z</time></trkpt>
<trkpt lat="46.946971893311" lon="4.0493416786194"><ele>574</ele><time>2026-4-28T12:20:12Z</time></trkpt>
<trkpt lat="46.946998596191" lon="4.0494265556335"><ele>574</ele><time>2026-4-28T12:20:15Z</time></trkpt>
<trkpt lat="46.946998596191" lon="4.0494265556335"><ele>574</ele><time>2026-4-28T12:20:18Z</time></trkpt>
<trkpt lat="46.947036743164" lon="4.0494985580444"><ele>575</ele><time>2026-4-28T12:20:21Z</time></trkpt>
<trkpt lat="46.947036743164" lon="4.0494985580444"><ele>575</ele><time>2026-4-28T12:20:24Z</time></trkpt>
<trkpt lat="46.947090148926" lon="4.0495557785034"><ele>575</ele><time>2026-4-28T12:20:27Z</time></trkpt>
<trkpt lat="46.947154998779" lon="4.0495762825012"><ele>575</ele><time>2026-4-28T12:20:30Z</time></trkpt>
<trkpt lat="46.947154998779" lon="4.0495762825012"><ele>575</ele><time>2026-4-28T12:20:33Z</time></trkpt>
<trkpt lat="46.947208404541" lon="4.0495462417603"><ele>575</ele><time>2026-4-28T12:20:36Z</time></trkpt>
<trkpt lat="46.947208404541" lon="4.0495462417603"><ele>575</ele><time>2026-4-28T12:20:39Z</time></trkpt>
<trkpt lat="46.947257995605" lon="4.04949426651"><ele>575</ele><time>2026-4-28T12:20:42Z</time></trkpt>
<trkpt lat="46.947296142578" lon="4.049418926239"><ele>576</ele><time>2026-4-28T12:20:45Z</time></trkpt>
<trkpt lat="46.947296142578" lon="4.049418926239"><ele>576</ele><time>2026-4-28T12:20:48Z</time></trkpt>
<trkpt lat="46.947315216064" lon="4.049334526062"><ele>577</ele><time>2026-4-28T12:20:51Z</time></trkpt>
<trkpt lat="46.947315216064" lon="4.049334526062"><ele>577</ele><time>2026-4-28T12:20:54Z</time></trkpt>
<trkpt lat="46.947322845459" lon="4.0491967201233"><ele>578</ele><time>2026-4-28T12:20:57Z</time></trkpt>
<trkpt lat="46.947326660156" lon="4.0490889549255"><ele>578</ele><time>2026-4-28T12:21:0Z</time></trkpt>
<trkpt lat="46.947334289551" lon="4.0489959716797"><ele>579</ele><time>2026-4-28T12:21:3Z</time></trkpt>
<trkpt lat="46.947334289551" lon="4.0489959716797"><ele>579</ele><time>2026-4-28T12:21:6Z</time></trkpt>
<trkpt lat="46.947360992432" lon="4.0489230155945"><ele>580</ele><time>2026-4-28T12:21:9Z</time></trkpt>
<trkpt lat="46.947380065918" lon="4.0488834381104"><ele>580</ele><time>2026-4-28T12:21:12Z</time></trkpt>
<trkpt lat="46.947395324707" lon="4.0488457679749"><ele>581</ele><time>2026-4-28T12:21:15Z</time></trkpt>
<trkpt lat="46.947410583496" lon="4.0488076210022"><ele>581</ele><time>2026-4-28T12:21:18Z</time></trkpt>
<trkpt lat="46.947410583496" lon="4.0488076210022"><ele>581</ele><time>2026-4-28T12:21:21Z</time></trkpt>
<trkpt lat="46.947437286377" lon="4.0487594604492"><ele>581</ele><time>2026-4-28T12:21:24Z</time></trkpt>
<trkpt lat="46.947460174561" lon="4.0487189292908"><ele>581</ele><time>2026-4-28T12:21:27Z</time></trkpt>
<trkpt lat="46.947479248047" lon="4.0486793518066"><ele>582</ele><time>2026-4-28T12:21:30Z</time></trkpt>
<trkpt lat="46.947498321533" lon="4.0486421585083"><ele>582</ele><time>2026-4-28T12:21:33Z</time></trkpt>
<trkpt lat="46.94751739502" lon="4.0486078262329"><ele>582</ele><time>2026-4-28T12:21:36Z</time></trkpt>
<trkpt lat="46.94751739502" lon="4.0486078262329"><ele>582</ele><time>2026-4-28T12:21:39Z</time></trkpt>
<trkpt lat="46.947570800781" lon="4.0485043525696"><ele>582</ele><time>2026-4-28T12:21:42Z</time></trkpt>
<trkpt lat="46.947608947754" lon="4.0484189987183"><ele>583</ele><time>2026-4-28T12:21:45Z</time></trkpt>
<trkpt lat="46.947647094727" lon="4.0483355522156"><ele>583</ele><time>2026-4-28T12:21:48Z</time></trkpt>
<trkpt lat="46.947647094727" lon="4.0483355522156"><ele>583</ele><time>2026-4-28T12:21:51Z</time></trkpt>
<trkpt lat="46.947685241699" lon="4.0482487678528"><ele>584</ele><time>2026-4-28T12:21:54Z</time></trkpt>
<trkpt lat="46.947685241699" lon="4.0482487678528"><ele>584</ele><time>2026-4-28T12:21:57Z</time></trkpt>
<trkpt lat="46.947685241699" lon="4.0482487678528"><ele>584</ele><time>2026-4-28T12:22:0Z</time></trkpt>
<trkpt lat="46.947727203369" lon="4.0481634140015"><ele>584</ele><time>2026-4-28T12:22:3Z</time></trkpt>
<trkpt lat="46.947727203369" lon="4.0481634140015"><ele>584</ele><time>2026-4-28T12:22:6Z</time></trkpt>
<trkpt lat="46.947765350342" lon="4.0480680465698"><ele>584</ele><time>2026-4-28T12:22:9Z</time></trkpt>
<trkpt lat="46.947765350342" lon="4.0480680465698"><ele>584</ele><time>2026-4-28T12:22:12Z</time></trkpt>
<trkpt lat="46.947780609131" lon="4.0479559898376"><ele>585</ele><time>2026-4-28T12:22:15Z</time></trkpt>
<trkpt lat="46.947780609131" lon="4.0479559898376"><ele>585</ele><time>2026-4-28T12:22:18Z</time></trkpt>
<trkpt lat="46.947788238525" lon="4.0478658676147"><ele>586</ele><time>2026-4-28T12:22:21Z</time></trkpt>
<trkpt lat="46.947788238525" lon="4.0478658676147"><ele>586</ele><time>2026-4-28T12:22:24Z</time></trkpt>
<trkpt lat="46.947788238525" lon="4.0478658676147"><ele>586</ele><time>2026-4-28T12:22:27Z</time></trkpt>
<trkpt lat="46.947776794434" lon="4.0477595329285"><ele>586</ele><time>2026-4-28T12:22:30Z</time></trkpt>
<trkpt lat="46.947776794434" lon="4.0477595329285"><ele>586</ele><time>2026-4-28T12:22:33Z</time></trkpt>
<trkpt lat="46.947761535645" lon="4.0476770401001"><ele>586</ele><time>2026-4-28T12:22:36Z</time></trkpt>
<trkpt lat="46.947761535645" lon="4.0476770401001"><ele>586</ele><time>2026-4-28T12:22:39Z</time></trkpt>
<trkpt lat="46.947734832764" lon="4.0475921630859"><ele>586</ele><time>2026-4-28T12:22:42Z</time></trkpt>
<trkpt lat="46.947734832764" lon="4.0475921630859"><ele>586</ele><time>2026-4-28T12:22:45Z</time></trkpt>
<trkpt lat="46.947704315186" lon="4.0474858283997"><ele>587</ele><time>2026-4-28T12:22:48Z</time></trkpt>
<trkpt lat="46.947681427002" lon="4.0473880767822"><ele>587</ele><time>2026-4-28T12:22:51Z</time></trkpt>
<trkpt lat="46.947673797607" lon="4.0472974777222"><ele>587</ele><time>2026-4-28T12:22:54Z</time></trkpt>
<trkpt lat="46.947673797607" lon="4.0472974777222"><ele>587</ele><time>2026-4-28T12:22:57Z</time></trkpt>
<trkpt lat="46.947654724121" lon="4.0471982955933"><ele>588</ele><time>2026-4-28T12:23:0Z</time></trkpt>
<trkpt lat="46.947635650635" lon="4.0471029281616"><ele>588</ele><time>2026-4-28T12:23:3Z</time></trkpt>
<trkpt lat="46.947635650635" lon="4.0471029281616"><ele>588</ele><time>2026-4-28T12:23:6Z</time></trkpt>
<trkpt lat="46.947631835938" lon="4.0470061302185"><ele>589</ele><time>2026-4-28T12:23:9Z</time></trkpt>
<trkpt lat="46.947631835938" lon="4.0470061302185"><ele>589</ele><time>2026-4-28T12:23:12Z</time></trkpt>
<trkpt lat="46.947639465332" lon="4.0469093322754"><ele>589</ele><time>2026-4-28T12:23:15Z</time></trkpt>
<trkpt lat="46.947639465332" lon="4.0469093322754"><ele>589</ele><time>2026-4-28T12:23:18Z</time></trkpt>
<trkpt lat="46.947654724121" lon="4.0468220710754"><ele>590</ele><time>2026-4-28T12:23:21Z</time></trkpt>
<trkpt lat="46.947654724121" lon="4.0468220710754"><ele>590</ele><time>2026-4-28T12:23:24Z</time></trkpt>
<trkpt lat="46.947654724121" lon="4.0468220710754"><ele>590</ele><time>2026-4-28T12:23:27Z</time></trkpt>
<trkpt lat="46.947654724121" lon="4.0468220710754"><ele>590</ele><time>2026-4-28T12:23:30Z</time></trkpt>
<trkpt lat="46.947677612305" lon="4.0467176437378"><ele>591</ele><time>2026-4-28T12:23:33Z</time></trkpt>
<trkpt lat="46.947677612305" lon="4.0467176437378"><ele>591</ele><time>2026-4-28T12:23:36Z</time></trkpt>
<trkpt lat="46.947692871094" lon="4.0466227531433"><ele>592</ele><time>2026-4-28T12:23:39Z</time></trkpt>
<trkpt lat="46.947692871094" lon="4.0466227531433"><ele>592</ele><time>2026-4-28T12:23:42Z</time></trkpt>
<trkpt lat="46.947708129883" lon="4.0465145111084"><ele>592</ele><time>2026-4-28T12:23:45Z</time></trkpt>
<trkpt lat="46.947708129883" lon="4.0465145111084"><ele>592</ele><time>2026-4-28T12:23:48Z</time></trkpt>
<trkpt lat="46.947731018066" lon="4.0464286804199"><ele>593</ele><time>2026-4-28T12:23:51Z</time></trkpt>
<trkpt lat="46.947731018066" lon="4.0464286804199"><ele>593</ele><time>2026-4-28T12:23:54Z</time></trkpt>
<trkpt lat="46.947731018066" lon="4.0464286804199"><ele>593</ele><time>2026-4-28T12:23:57Z</time></trkpt>
<trkpt lat="46.947731018066" lon="4.0464286804199"><ele>593</ele><time>2026-4-28T12:24:0Z</time></trkpt>
<trkpt lat="46.947750091553" lon="4.0463342666626"><ele>593</ele><time>2026-4-28T12:24:3Z</time></trkpt>
<trkpt lat="46.947750091553" lon="4.0463342666626"><ele>593</ele><time>2026-4-28T12:24:6Z</time></trkpt>
<trkpt lat="46.947750091553" lon="4.0463342666626"><ele>593</ele><time>2026-4-28T12:24:9Z</time></trkpt>
<trkpt lat="46.947750091553" lon="4.0463342666626"><ele>593</ele><time>2026-4-28T12:24:12Z</time></trkpt>
<trkpt lat="46.947769165039" lon="4.0462870597839"><ele>594</ele><time>2026-4-28T12:24:15Z</time></trkpt>
<trkpt lat="46.947788238525" lon="4.0462408065796"><ele>594</ele><time>2026-4-28T12:24:18Z</time></trkpt>
<trkpt lat="46.947803497314" lon="4.0461945533752"><ele>595</ele><time>2026-4-28T12:24:21Z</time></trkpt>
<trkpt lat="46.947803497314" lon="4.0461945533752"><ele>595</ele><time>2026-4-28T12:24:24Z</time></trkpt>
<trkpt lat="46.947814941406" lon="4.0461554527283"><ele>595</ele><time>2026-4-28T12:24:27Z</time></trkpt>
<trkpt lat="46.947830200195" lon="4.0461173057556"><ele>595</ele><time>2026-4-28T12:24:30Z</time></trkpt>
<trkpt lat="46.947864532471" lon="4.0460376739502"><ele>595</ele><time>2026-4-28T12:24:33Z</time></trkpt>
<trkpt lat="46.947864532471" lon="4.0460376739502"><ele>595</ele><time>2026-4-28T12:24:36Z</time></trkpt>
<trkpt lat="46.947864532471" lon="4.0460376739502"><ele>595</ele><time>2026-4-28T12:24:39Z</time></trkpt>
<trkpt lat="46.947902679443" lon="4.0459651947021"><ele>595</ele><time>2026-4-28T12:24:42Z</time></trkpt>
<trkpt lat="46.947902679443" lon="4.0459651947021"><ele>595</ele><time>2026-4-28T12:24:45Z</time></trkpt>
<trkpt lat="46.947902679443" lon="4.0459651947021"><ele>595</ele><time>2026-4-28T12:24:48Z</time></trkpt>
<trkpt lat="46.947933197021" lon="4.0458889007568"><ele>596</ele><time>2026-4-28T12:24:51Z</time></trkpt>
<trkpt lat="46.947933197021" lon="4.0458889007568"><ele>596</ele><time>2026-4-28T12:24:54Z</time></trkpt>
<trkpt lat="46.947967529297" lon="4.0458226203918"><ele>596</ele><time>2026-4-28T12:24:57Z</time></trkpt>
<trkpt lat="46.947967529297" lon="4.0458226203918"><ele>596</ele><time>2026-4-28T12:25:0Z</time></trkpt>
<trkpt lat="46.947967529297" lon="4.0458226203918"><ele>596</ele><time>2026-4-28T12:25:3Z</time></trkpt>
<trkpt lat="46.947967529297" lon="4.0458226203918"><ele>596</ele><time>2026-4-28T12:25:6Z</time></trkpt>
<trkpt lat="46.948013305664" lon="4.0457291603088"><ele>597</ele><time>2026-4-28T12:25:9Z</time></trkpt>
<trkpt lat="46.948013305664" lon="4.0457291603088"><ele>597</ele><time>2026-4-28T12:25:12Z</time></trkpt>
<trkpt lat="46.948013305664" lon="4.0457291603088"><ele>597</ele><time>2026-4-28T12:25:15Z</time></trkpt>
<trkpt lat="46.948059082031" lon="4.0456643104553"><ele>598</ele><time>2026-4-28T12:25:18Z</time></trkpt>
<trkpt lat="46.948059082031" lon="4.0456643104553"><ele>598</ele><time>2026-4-28T12:25:21Z</time></trkpt>
<trkpt lat="46.948059082031" lon="4.0456643104553"><ele>598</ele><time>2026-4-28T12:25:24Z</time></trkpt>
<trkpt lat="46.948104858398" lon="4.0456037521362"><ele>598</ele><time>2026-4-28T12:25:27Z</time></trkpt>
<trkpt lat="46.948146820068" lon="4.0455327033997"><ele>599</ele><time>2026-4-28T12:25:30Z</time></trkpt>
<trkpt lat="46.948146820068" lon="4.0455327033997"><ele>599</ele><time>2026-4-28T12:25:33Z</time></trkpt>
<trkpt lat="46.948188781738" lon="4.0454611778259"><ele>600</ele><time>2026-4-28T12:25:36Z</time></trkpt>
<trkpt lat="46.948188781738" lon="4.0454611778259"><ele>600</ele><time>2026-4-28T12:25:39Z</time></trkpt>
<trkpt lat="46.948188781738" lon="4.0454611778259"><ele>600</ele><time>2026-4-28T12:25:42Z</time></trkpt>
<trkpt lat="46.948226928711" lon="4.0453972816467"><ele>600</ele><time>2026-4-28T12:25:45Z</time></trkpt>
<trkpt lat="46.948226928711" lon="4.0453972816467"><ele>600</ele><time>2026-4-28T12:25:48Z</time></trkpt>
<trkpt lat="46.948268890381" lon="4.0453400611877"><ele>601</ele><time>2026-4-28T12:25:51Z</time></trkpt>
<trkpt lat="46.948268890381" lon="4.0453400611877"><ele>601</ele><time>2026-4-28T12:25:54Z</time></trkpt>
<trkpt lat="46.948268890381" lon="4.0453400611877"><ele>601</ele><time>2026-4-28T12:25:57Z</time></trkpt>
<trkpt lat="46.948268890381" lon="4.0453400611877"><ele>601</ele><time>2026-4-28T12:26:0Z</time></trkpt>
<trkpt lat="46.948322296143" lon="4.0452556610107"><ele>603</ele><time>2026-4-28T12:26:3Z</time></trkpt>
<trkpt lat="46.948322296143" lon="4.0452556610107"><ele>603</ele><time>2026-4-28T12:26:6Z</time></trkpt>
<trkpt lat="46.948322296143" lon="4.0452556610107"><ele>603</ele><time>2026-4-28T12:26:9Z</time></trkpt>
<trkpt lat="46.948371887207" lon="4.0451850891113"><ele>604</ele><time>2026-4-28T12:26:12Z</time></trkpt>
<trkpt lat="46.948371887207" lon="4.0451850891113"><ele>604</ele><time>2026-4-28T12:26:15Z</time></trkpt>
<trkpt lat="46.948421478271" lon="4.0451231002808"><ele>604</ele><time>2026-4-28T12:26:18Z</time></trkpt>
<trkpt lat="46.948467254639" lon="4.0450649261475"><ele>605</ele><time>2026-4-28T12:26:21Z</time></trkpt>
<trkpt lat="46.948467254639" lon="4.0450649261475"><ele>605</ele><time>2026-4-28T12:26:24Z</time></trkpt>
<trkpt lat="46.948467254639" lon="4.0450649261475"><ele>605</ele><time>2026-4-28T12:26:27Z</time></trkpt>
<trkpt lat="46.948467254639" lon="4.0450649261475"><ele>605</ele><time>2026-4-28T12:26:30Z</time></trkpt>
<trkpt lat="46.948467254639" lon="4.0450649261475"><ele>605</ele><time>2026-4-28T12:26:33Z</time></trkpt>
<trkpt lat="46.948467254639" lon="4.0450649261475"><ele>605</ele><time>2026-4-28T12:26:36Z</time></trkpt>
<trkpt lat="46.948467254639" lon="4.0450649261475"><ele>605</ele><time>2026-4-28T12:26:39Z</time></trkpt>
<trkpt lat="46.948467254639" lon="4.0450649261475"><ele>605</ele><time>2026-4-28T12:26:42Z</time></trkpt>
<trkpt lat="46.948467254639" lon="4.0450649261475"><ele>605</ele><time>2026-4-28T12:26:45Z</time></trkpt>
<trkpt lat="46.948467254639" lon="4.0450649261475"><ele>605</ele><time>2026-4-28T12:26:48Z</time></trkpt>
<trkpt lat="46.948467254639" lon="4.0450649261475"><ele>605</ele><time>2026-4-28T12:26:51Z</time></trkpt>
<trkpt lat="46.948467254639" lon="4.0450649261475"><ele>605</ele><time>2026-4-28T12:26:54Z</time></trkpt>
<trkpt lat="46.948467254639" lon="4.0450649261475"><ele>605</ele><time>2026-4-28T12:26:57Z</time></trkpt>
<trkpt lat="46.948467254639" lon="4.0450649261475"><ele>605</ele><time>2026-4-28T12:27:0Z</time></trkpt>
<trkpt lat="46.948467254639" lon="4.0450649261475"><ele>605</ele><time>2026-4-28T12:27:3Z</time></trkpt>
<trkpt lat="46.948467254639" lon="4.0450649261475"><ele>605</ele><time>2026-4-28T12:27:6Z</time></trkpt>
<trkpt lat="46.948467254639" lon="4.0450649261475"><ele>605</ele><time>2026-4-28T12:27:9Z</time></trkpt>
<trkpt lat="46.948467254639" lon="4.0450649261475"><ele>605</ele><time>2026-4-28T12:27:12Z</time></trkpt>
<trkpt lat="46.948467254639" lon="4.0450649261475"><ele>605</ele><time>2026-4-28T12:27:15Z</time></trkpt>
<trkpt lat="46.948467254639" lon="4.0450649261475"><ele>605</ele><time>2026-4-28T12:27:18Z</time></trkpt>
<trkpt lat="46.948467254639" lon="4.0450649261475"><ele>605</ele><time>2026-4-28T12:27:21Z</time></trkpt>
<trkpt lat="46.948467254639" lon="4.0450649261475"><ele>605</ele><time>2026-4-28T12:27:24Z</time></trkpt>
<trkpt lat="46.948467254639" lon="4.0450649261475"><ele>605</ele><time>2026-4-28T12:27:27Z</time></trkpt>
<trkpt lat="46.948467254639" lon="4.0450649261475"><ele>605</ele><time>2026-4-28T12:27:30Z</time></trkpt>
<trkpt lat="46.948467254639" lon="4.0450649261475"><ele>605</ele><time>2026-4-28T12:27:33Z</time></trkpt>
<trkpt lat="46.948467254639" lon="4.0450649261475"><ele>605</ele><time>2026-4-28T12:27:36Z</time></trkpt>
<trkpt lat="46.948467254639" lon="4.0450649261475"><ele>605</ele><time>2026-4-28T12:27:39Z</time></trkpt>
<trkpt lat="46.948467254639" lon="4.0450649261475"><ele>605</ele><time>2026-4-28T12:27:42Z</time></trkpt>
<trkpt lat="46.948467254639" lon="4.0450649261475"><ele>605</ele><time>2026-4-28T12:27:45Z</time></trkpt>
<trkpt lat="46.948577880859" lon="4.0446910858154"><ele>610</ele><time>2026-4-28T12:27:48Z</time></trkpt>
<trkpt lat="46.948638916016" lon="4.0444922447205"><ele>610</ele><time>2026-4-28T12:27:51Z</time></trkpt>
<trkpt lat="46.948638916016" lon="4.0444922447205"><ele>610</ele><time>2026-4-28T12:27:54Z</time></trkpt>
<trkpt lat="46.948638916016" lon="4.0444922447205"><ele>610</ele><time>2026-4-28T12:27:57Z</time></trkpt>
<trkpt lat="46.948638916016" lon="4.0444922447205"><ele>610</ele><time>2026-4-28T12:28:0Z</time></trkpt>
<trkpt lat="46.948638916016" lon="4.0444922447205"><ele>610</ele><time>2026-4-28T12:28:3Z</time></trkpt>
<trkpt lat="46.948638916016" lon="4.0444922447205"><ele>610</ele><time>2026-4-28T12:28:6Z</time></trkpt>
<trkpt lat="46.948638916016" lon="4.0444922447205"><ele>610</ele><time>2026-4-28T12:28:9Z</time></trkpt>
<trkpt lat="46.948638916016" lon="4.0444922447205"><ele>610</ele><time>2026-4-28T12:28:12Z</time></trkpt>
<trkpt lat="46.948638916016" lon="4.0444922447205"><ele>610</ele><time>2026-4-28T12:28:15Z</time></trkpt>
<trkpt lat="46.948638916016" lon="4.0444922447205"><ele>610</ele><time>2026-4-28T12:28:18Z</time></trkpt>
<trkpt lat="46.948638916016" lon="4.0444922447205"><ele>610</ele><time>2026-4-28T12:28:21Z</time></trkpt>
<trkpt lat="46.948638916016" lon="4.0444922447205"><ele>610</ele><time>2026-4-28T12:28:24Z</time></trkpt>
<trkpt lat="46.94877243042" lon="4.0440406799316"><ele>618</ele><time>2026-4-28T12:28:27Z</time></trkpt>
<trkpt lat="46.94877243042" lon="4.0440406799316"><ele>618</ele><time>2026-4-28T12:28:30Z</time></trkpt>
<trkpt lat="46.94877243042" lon="4.0440406799316"><ele>618</ele><time>2026-4-28T12:28:33Z</time></trkpt>
<trkpt lat="46.94877243042" lon="4.0440406799316"><ele>618</ele><time>2026-4-28T12:28:36Z</time></trkpt>
<trkpt lat="46.94877243042" lon="4.0440406799316"><ele>618</ele><time>2026-4-28T12:28:39Z</time></trkpt>
<trkpt lat="46.94877243042" lon="4.0440406799316"><ele>618</ele><time>2026-4-28T12:28:42Z</time></trkpt>
<trkpt lat="46.94877243042" lon="4.0440406799316"><ele>618</ele><time>2026-4-28T12:28:45Z</time></trkpt>
<trkpt lat="46.94877243042" lon="4.0440406799316"><ele>618</ele><time>2026-4-28T12:28:48Z</time></trkpt>
<trkpt lat="46.948867797852" lon="4.043662071228"><ele>619</ele><time>2026-4-28T12:28:51Z</time></trkpt>
<trkpt lat="46.948925018311" lon="4.0434584617615"><ele>619</ele><time>2026-4-28T12:28:54Z</time></trkpt>
<trkpt lat="46.948955535889" lon="4.0433444976807"><ele>619</ele><time>2026-4-28T12:28:57Z</time></trkpt>
<trkpt lat="46.948974609375" lon="4.0432739257812"><ele>619</ele><time>2026-4-28T12:29:0Z</time></trkpt>
<trkpt lat="46.948974609375" lon="4.0432739257812"><ele>619</ele><time>2026-4-28T12:29:3Z</time></trkpt>
<trkpt lat="46.948974609375" lon="4.0432739257812"><ele>619</ele><time>2026-4-28T12:29:6Z</time></trkpt>
<trkpt lat="46.948993682861" lon="4.0431814193726"><ele>619</ele><time>2026-4-28T12:29:9Z</time></trkpt>
<trkpt lat="46.949005126953" lon="4.0431208610535"><ele>619</ele><time>2026-4-28T12:29:12Z</time></trkpt>
<trkpt lat="46.949020385742" lon="4.0430665016174"><ele>619</ele><time>2026-4-28T12:29:15Z</time></trkpt>
<trkpt lat="46.949028015137" lon="4.0430278778076"><ele>619</ele><time>2026-4-28T12:29:18Z</time></trkpt>
<trkpt lat="46.949039459229" lon="4.0429720878601"><ele>620</ele><time>2026-4-28T12:29:21Z</time></trkpt>
<trkpt lat="46.949058532715" lon="4.0429000854492"><ele>620</ele><time>2026-4-28T12:29:24Z</time></trkpt>
<trkpt lat="46.949073791504" lon="4.042845249176"><ele>621</ele><time>2026-4-28T12:29:27Z</time></trkpt>
<trkpt lat="46.949073791504" lon="4.042845249176"><ele>621</ele><time>2026-4-28T12:29:30Z</time></trkpt>
<trkpt lat="46.949073791504" lon="4.042845249176"><ele>621</ele><time>2026-4-28T12:29:33Z</time></trkpt>
<trkpt lat="46.949073791504" lon="4.042845249176"><ele>621</ele><time>2026-4-28T12:29:36Z</time></trkpt>
<trkpt lat="46.949073791504" lon="4.042845249176"><ele>621</ele><time>2026-4-28T12:29:39Z</time></trkpt>
<trkpt lat="46.949073791504" lon="4.042845249176"><ele>621</ele><time>2026-4-28T12:29:42Z</time></trkpt>
<trkpt lat="46.949073791504" lon="4.042845249176"><ele>621</ele><time>2026-4-28T12:29:45Z</time></trkpt>
<trkpt lat="46.949073791504" lon="4.042845249176"><ele>621</ele><time>2026-4-28T12:29:48Z</time></trkpt>
<trkpt lat="46.949073791504" lon="4.042845249176"><ele>621</ele><time>2026-4-28T12:29:51Z</time></trkpt>
<trkpt lat="46.949073791504" lon="4.042845249176"><ele>621</ele><time>2026-4-28T12:29:54Z</time></trkpt>
<trkpt lat="46.949073791504" lon="4.042845249176"><ele>621</ele><time>2026-4-28T12:29:57Z</time></trkpt>
<trkpt lat="46.949073791504" lon="4.042845249176"><ele>621</ele><time>2026-4-28T12:30:0Z</time></trkpt>
<trkpt lat="46.949073791504" lon="4.042845249176"><ele>621</ele><time>2026-4-28T12:30:3Z</time></trkpt>
<trkpt lat="46.949073791504" lon="4.042845249176"><ele>621</ele><time>2026-4-28T12:30:6Z</time></trkpt>
<trkpt lat="46.949241638184" lon="4.0422883033752"><ele>633</ele><time>2026-4-28T12:30:9Z</time></trkpt>
<trkpt lat="46.949241638184" lon="4.0422883033752"><ele>633</ele><time>2026-4-28T12:30:12Z</time></trkpt>
<trkpt lat="46.949325561523" lon="4.0419998168945"><ele>633</ele><time>2026-4-28T12:30:15Z</time></trkpt>
<trkpt lat="46.949325561523" lon="4.0419998168945"><ele>633</ele><time>2026-4-28T12:30:18Z</time></trkpt>
<trkpt lat="46.949325561523" lon="4.0419998168945"><ele>633</ele><time>2026-4-28T12:30:21Z</time></trkpt>
<trkpt lat="46.949390411377" lon="4.0418133735657"><ele>632</ele><time>2026-4-28T12:30:24Z</time></trkpt>
<trkpt lat="46.949432373047" lon="4.0416965484619"><ele>632</ele><time>2026-4-28T12:30:27Z</time></trkpt>
<trkpt lat="46.949459075928" lon="4.0416140556335"><ele>632</ele><time>2026-4-28T12:30:30Z</time></trkpt>
<trkpt lat="46.949459075928" lon="4.0416140556335"><ele>632</ele><time>2026-4-28T12:30:33Z</time></trkpt>
<trkpt lat="46.949481964111" lon="4.0415463447571"><ele>632</ele><time>2026-4-28T12:30:36Z</time></trkpt>
<trkpt lat="46.949501037598" lon="4.0414876937866"><ele>632</ele><time>2026-4-28T12:30:39Z</time></trkpt>
<trkpt lat="46.949542999268" lon="4.0413928031921"><ele>632</ele><time>2026-4-28T12:30:42Z</time></trkpt>
<trkpt lat="46.949542999268" lon="4.0413928031921"><ele>632</ele><time>2026-4-28T12:30:45Z</time></trkpt>
<trkpt lat="46.949588775635" lon="4.0412998199463"><ele>632</ele><time>2026-4-28T12:30:48Z</time></trkpt>
<trkpt lat="46.949588775635" lon="4.0412998199463"><ele>632</ele><time>2026-4-28T12:30:51Z</time></trkpt>
<trkpt lat="46.949588775635" lon="4.0412998199463"><ele>632</ele><time>2026-4-28T12:30:54Z</time></trkpt>
<trkpt lat="46.949588775635" lon="4.0412998199463"><ele>632</ele><time>2026-4-28T12:30:57Z</time></trkpt>
<trkpt lat="46.949588775635" lon="4.0412998199463"><ele>632</ele><time>2026-4-28T12:31:0Z</time></trkpt>
<trkpt lat="46.949600219727" lon="4.041163444519"><ele>632</ele><time>2026-4-28T12:31:3Z</time></trkpt>
<trkpt lat="46.949600219727" lon="4.041163444519"><ele>632</ele><time>2026-4-28T12:31:6Z</time></trkpt>
<trkpt lat="46.949600219727" lon="4.041163444519"><ele>632</ele><time>2026-4-28T12:31:9Z</time></trkpt>
<trkpt lat="46.949638366699" lon="4.041063785553"><ele>633</ele><time>2026-4-28T12:31:12Z</time></trkpt>
<trkpt lat="46.949672698975" lon="4.0409927368164"><ele>634</ele><time>2026-4-28T12:31:15Z</time></trkpt>
<trkpt lat="46.949672698975" lon="4.0409927368164"><ele>634</ele><time>2026-4-28T12:31:18Z</time></trkpt>
<trkpt lat="46.949710845947" lon="4.0409030914307"><ele>634</ele><time>2026-4-28T12:31:21Z</time></trkpt>
<trkpt lat="46.949710845947" lon="4.0409030914307"><ele>634</ele><time>2026-4-28T12:31:24Z</time></trkpt>
<trkpt lat="46.949710845947" lon="4.0409030914307"><ele>634</ele><time>2026-4-28T12:31:27Z</time></trkpt>
<trkpt lat="46.949745178223" lon="4.0408148765564"><ele>634</ele><time>2026-4-28T12:31:30Z</time></trkpt>
<trkpt lat="46.949745178223" lon="4.0408148765564"><ele>634</ele><time>2026-4-28T12:31:33Z</time></trkpt>
<trkpt lat="46.949787139893" lon="4.0407271385193"><ele>635</ele><time>2026-4-28T12:31:36Z</time></trkpt>
<trkpt lat="46.949817657471" lon="4.0406575202942"><ele>635</ele><time>2026-4-28T12:31:39Z</time></trkpt>
<trkpt lat="46.949817657471" lon="4.0406575202942"><ele>635</ele><time>2026-4-28T12:31:42Z</time></trkpt>
<trkpt lat="46.949817657471" lon="4.0406575202942"><ele>635</ele><time>2026-4-28T12:31:45Z</time></trkpt>
<trkpt lat="46.949817657471" lon="4.0406575202942"><ele>635</ele><time>2026-4-28T12:31:48Z</time></trkpt>
<trkpt lat="46.949840545654" lon="4.0405716896057"><ele>635</ele><time>2026-4-28T12:31:51Z</time></trkpt>
<trkpt lat="46.949840545654" lon="4.0405716896057"><ele>635</ele><time>2026-4-28T12:31:54Z</time></trkpt>
<trkpt lat="46.949840545654" lon="4.0405716896057"><ele>635</ele><time>2026-4-28T12:31:57Z</time></trkpt>
<trkpt lat="46.949840545654" lon="4.0405716896057"><ele>635</ele><time>2026-4-28T12:32:0Z</time></trkpt>
<trkpt lat="46.949867248535" lon="4.040488243103"><ele>636</ele><time>2026-4-28T12:32:3Z</time></trkpt>
<trkpt lat="46.949867248535" lon="4.040488243103"><ele>636</ele><time>2026-4-28T12:32:6Z</time></trkpt>
<trkpt lat="46.949867248535" lon="4.040488243103"><ele>636</ele><time>2026-4-28T12:32:9Z</time></trkpt>
<trkpt lat="46.949901580811" lon="4.0403985977173"><ele>636</ele><time>2026-4-28T12:32:12Z</time></trkpt>
<trkpt lat="46.949901580811" lon="4.0403985977173"><ele>636</ele><time>2026-4-28T12:32:15Z</time></trkpt>
<trkpt lat="46.949901580811" lon="4.0403985977173"><ele>636</ele><time>2026-4-28T12:32:18Z</time></trkpt>
<trkpt lat="46.94994354248" lon="4.040328502655"><ele>635</ele><time>2026-4-28T12:32:21Z</time></trkpt>
<trkpt lat="46.94994354248" lon="4.040328502655"><ele>635</ele><time>2026-4-28T12:32:24Z</time></trkpt>
<trkpt lat="46.94994354248" lon="4.040328502655"><ele>635</ele><time>2026-4-28T12:32:27Z</time></trkpt>
<trkpt lat="46.949977874756" lon="4.0402393341064"><ele>635</ele><time>2026-4-28T12:32:30Z</time></trkpt>
<trkpt lat="46.949977874756" lon="4.0402393341064"><ele>635</ele><time>2026-4-28T12:32:33Z</time></trkpt>
<trkpt lat="46.950000762939" lon="4.0402007102966"><ele>635</ele><time>2026-4-28T12:32:36Z</time></trkpt>
<trkpt lat="46.950000762939" lon="4.0402007102966"><ele>635</ele><time>2026-4-28T12:32:39Z</time></trkpt>
<trkpt lat="46.950019836426" lon="4.0401573181152"><ele>635</ele><time>2026-4-28T12:32:42Z</time></trkpt>
<trkpt lat="46.950019836426" lon="4.0401573181152"><ele>635</ele><time>2026-4-28T12:32:45Z</time></trkpt>
<trkpt lat="46.950035095215" lon="4.0401148796082"><ele>635</ele><time>2026-4-28T12:32:48Z</time></trkpt>
<trkpt lat="46.950035095215" lon="4.0401148796082"><ele>635</ele><time>2026-4-28T12:32:51Z</time></trkpt>
<trkpt lat="46.950054168701" lon="4.0400686264038"><ele>635</ele><time>2026-4-28T12:32:54Z</time></trkpt>
<trkpt lat="46.950054168701" lon="4.0400686264038"><ele>635</ele><time>2026-4-28T12:32:57Z</time></trkpt>
<trkpt lat="46.95006942749" lon="4.040020942688"><ele>636</ele><time>2026-4-28T12:33:0Z</time></trkpt>
<trkpt lat="46.950084686279" lon="4.0399785041809"><ele>636</ele><time>2026-4-28T12:33:3Z</time></trkpt>
<trkpt lat="46.950084686279" lon="4.0399785041809"><ele>636</ele><time>2026-4-28T12:33:6Z</time></trkpt>
<trkpt lat="46.950099945068" lon="4.0399413108826"><ele>636</ele><time>2026-4-28T12:33:9Z</time></trkpt>
<trkpt lat="46.950099945068" lon="4.0399413108826"><ele>636</ele><time>2026-4-28T12:33:12Z</time></trkpt>
<trkpt lat="46.950119018555" lon="4.0398983955383"><ele>637</ele><time>2026-4-28T12:33:15Z</time></trkpt>
<trkpt lat="46.950119018555" lon="4.0398983955383"><ele>637</ele><time>2026-4-28T12:33:18Z</time></trkpt>
<trkpt lat="46.950138092041" lon="4.0398569107056"><ele>637</ele><time>2026-4-28T12:33:21Z</time></trkpt>
<trkpt lat="46.950138092041" lon="4.0398569107056"><ele>637</ele><time>2026-4-28T12:33:24Z</time></trkpt>
<trkpt lat="46.950164794922" lon="4.0398254394531"><ele>638</ele><time>2026-4-28T12:33:27Z</time></trkpt>
<trkpt lat="46.950164794922" lon="4.0398254394531"><ele>638</ele><time>2026-4-28T12:33:30Z</time></trkpt>
<trkpt lat="46.950191497803" lon="4.0397968292236"><ele>638</ele><time>2026-4-28T12:33:33Z</time></trkpt>
<trkpt lat="46.950222015381" lon="4.0397667884827"><ele>639</ele><time>2026-4-28T12:33:36Z</time></trkpt>
<trkpt lat="46.950244903564" lon="4.0397419929504"><ele>639</ele><time>2026-4-28T12:33:39Z</time></trkpt>
<trkpt lat="46.950283050537" lon="4.0397057533264"><ele>639</ele><time>2026-4-28T12:33:42Z</time></trkpt>
<trkpt lat="46.950317382812" lon="4.0396757125854"><ele>638</ele><time>2026-4-28T12:33:45Z</time></trkpt>
<trkpt lat="46.950347900391" lon="4.0396504402161"><ele>638</ele><time>2026-4-28T12:33:48Z</time></trkpt>
<trkpt lat="46.950378417969" lon="4.0396213531494"><ele>638</ele><time>2026-4-28T12:33:51Z</time></trkpt>
<trkpt lat="46.950378417969" lon="4.0396213531494"><ele>638</ele><time>2026-4-28T12:33:54Z</time></trkpt>
<trkpt lat="46.950408935547" lon="4.0395879745483"><ele>638</ele><time>2026-4-28T12:33:57Z</time></trkpt>
<trkpt lat="46.950408935547" lon="4.0395879745483"><ele>638</ele><time>2026-4-28T12:34:0Z</time></trkpt>
<trkpt lat="46.950428009033" lon="4.0395536422729"><ele>637</ele><time>2026-4-28T12:34:3Z</time></trkpt>
<trkpt lat="46.950428009033" lon="4.0395536422729"><ele>637</ele><time>2026-4-28T12:34:6Z</time></trkpt>
<trkpt lat="46.950428009033" lon="4.0395536422729"><ele>637</ele><time>2026-4-28T12:34:9Z</time></trkpt>
<trkpt lat="46.950428009033" lon="4.0395536422729"><ele>637</ele><time>2026-4-28T12:34:12Z</time></trkpt>
<trkpt lat="46.950428009033" lon="4.0395536422729"><ele>637</ele><time>2026-4-28T12:34:15Z</time></trkpt>
<trkpt lat="46.950428009033" lon="4.0395536422729"><ele>637</ele><time>2026-4-28T12:34:18Z</time></trkpt>
<trkpt lat="46.950428009033" lon="4.0395536422729"><ele>637</ele><time>2026-4-28T12:34:21Z</time></trkpt>
<trkpt lat="46.950477600098" lon="4.0394520759583"><ele>638</ele><time>2026-4-28T12:34:24Z</time></trkpt>
<trkpt lat="46.950511932373" lon="4.0393948554993"><ele>638</ele><time>2026-4-28T12:34:27Z</time></trkpt>
<trkpt lat="46.950542449951" lon="4.039354801178"><ele>638</ele><time>2026-4-28T12:34:30Z</time></trkpt>
<trkpt lat="46.950572967529" lon="4.0393290519714"><ele>639</ele><time>2026-4-28T12:34:33Z</time></trkpt>
<trkpt lat="46.95059967041" lon="4.0393128395081"><ele>639</ele><time>2026-4-28T12:34:36Z</time></trkpt>
<trkpt lat="46.95068359375" lon="4.0392842292786"><ele>639</ele><time>2026-4-28T12:34:39Z</time></trkpt>
<trkpt lat="46.95068359375" lon="4.0392842292786"><ele>639</ele><time>2026-4-28T12:34:42Z</time></trkpt>
<trkpt lat="46.950748443604" lon="4.0392770767212"><ele>639</ele><time>2026-4-28T12:34:45Z</time></trkpt>
<trkpt lat="46.950748443604" lon="4.0392770767212"><ele>639</ele><time>2026-4-28T12:34:48Z</time></trkpt>
<trkpt lat="46.950748443604" lon="4.0392770767212"><ele>639</ele><time>2026-4-28T12:34:51Z</time></trkpt>
<trkpt lat="46.950828552246" lon="4.0392651557922"><ele>640</ele><time>2026-4-28T12:34:54Z</time></trkpt>
<trkpt lat="46.950828552246" lon="4.0392651557922"><ele>640</ele><time>2026-4-28T12:34:57Z</time></trkpt>
<trkpt lat="46.950828552246" lon="4.0392651557922"><ele>640</ele><time>2026-4-28T12:35:0Z</time></trkpt>
<trkpt lat="46.9508934021" lon="4.0392632484436"><ele>641</ele><time>2026-4-28T12:35:3Z</time></trkpt>
<trkpt lat="46.9508934021" lon="4.0392632484436"><ele>641</ele><time>2026-4-28T12:35:6Z</time></trkpt>
<trkpt lat="46.950958251953" lon="4.0392508506775"><ele>642</ele><time>2026-4-28T12:35:9Z</time></trkpt>
<trkpt lat="46.950958251953" lon="4.0392508506775"><ele>642</ele><time>2026-4-28T12:35:12Z</time></trkpt>
<trkpt lat="46.950958251953" lon="4.0392508506775"><ele>642</ele><time>2026-4-28T12:35:15Z</time></trkpt>
<trkpt lat="46.951015472412" lon="4.0392436981201"><ele>643</ele><time>2026-4-28T12:35:18Z</time></trkpt>
<trkpt lat="46.951080322266" lon="4.0392179489136"><ele>643</ele><time>2026-4-28T12:35:21Z</time></trkpt>
<trkpt lat="46.951145172119" lon="4.0391821861267"><ele>644</ele><time>2026-4-28T12:35:24Z</time></trkpt>
<trkpt lat="46.951145172119" lon="4.0391821861267"><ele>644</ele><time>2026-4-28T12:35:27Z</time></trkpt>
<trkpt lat="46.951221466064" lon="4.0391540527344"><ele>645</ele><time>2026-4-28T12:35:30Z</time></trkpt>
<trkpt lat="46.951221466064" lon="4.0391540527344"><ele>645</ele><time>2026-4-28T12:35:33Z</time></trkpt>
<trkpt lat="46.951274871826" lon="4.0391263961792"><ele>645</ele><time>2026-4-28T12:35:36Z</time></trkpt>
<trkpt lat="46.951274871826" lon="4.0391263961792"><ele>645</ele><time>2026-4-28T12:35:39Z</time></trkpt>
<trkpt lat="46.951274871826" lon="4.0391263961792"><ele>645</ele><time>2026-4-28T12:35:42Z</time></trkpt>
<trkpt lat="46.951347351074" lon="4.0390930175781"><ele>646</ele><time>2026-4-28T12:35:45Z</time></trkpt>
<trkpt lat="46.951347351074" lon="4.0390930175781"><ele>646</ele><time>2026-4-28T12:35:48Z</time></trkpt>
<trkpt lat="46.951400756836" lon="4.0390577316284"><ele>647</ele><time>2026-4-28T12:35:51Z</time></trkpt>
<trkpt lat="46.951469421387" lon="4.0390419960022"><ele>648</ele><time>2026-4-28T12:35:54Z</time></trkpt>
<trkpt lat="46.951469421387" lon="4.0390419960022"><ele>648</ele><time>2026-4-28T12:35:57Z</time></trkpt>
<trkpt lat="46.951469421387" lon="4.0390419960022"><ele>648</ele><time>2026-4-28T12:36:0Z</time></trkpt>
<trkpt lat="46.951545715332" lon="4.0390110015869"><ele>648</ele><time>2026-4-28T12:36:3Z</time></trkpt>
<trkpt lat="46.951614379883" lon="4.0389842987061"><ele>648</ele><time>2026-4-28T12:36:6Z</time></trkpt>
<trkpt lat="46.951614379883" lon="4.0389842987061"><ele>648</ele><time>2026-4-28T12:36:9Z</time></trkpt>
<trkpt lat="46.951614379883" lon="4.0389842987061"><ele>648</ele><time>2026-4-28T12:36:12Z</time></trkpt>
<trkpt lat="46.951698303223" lon="4.0389504432678"><ele>648</ele><time>2026-4-28T12:36:15Z</time></trkpt>
<trkpt lat="46.951770782471" lon="4.0389180183411"><ele>648</ele><time>2026-4-28T12:36:18Z</time></trkpt>
<trkpt lat="46.951770782471" lon="4.0389180183411"><ele>648</ele><time>2026-4-28T12:36:21Z</time></trkpt>
<trkpt lat="46.951850891113" lon="4.0388774871826"><ele>648</ele><time>2026-4-28T12:36:24Z</time></trkpt>
<trkpt lat="46.951850891113" lon="4.0388774871826"><ele>648</ele><time>2026-4-28T12:36:27Z</time></trkpt>
<trkpt lat="46.951850891113" lon="4.0388774871826"><ele>648</ele><time>2026-4-28T12:36:30Z</time></trkpt>
<trkpt lat="46.951881408691" lon="4.0388584136963"><ele>648</ele><time>2026-4-28T12:36:33Z</time></trkpt>
<trkpt lat="46.951881408691" lon="4.0388584136963"><ele>648</ele><time>2026-4-28T12:36:36Z</time></trkpt>
<trkpt lat="46.951919555664" lon="4.0388417243958"><ele>648</ele><time>2026-4-28T12:36:39Z</time></trkpt>
<trkpt lat="46.951950073242" lon="4.0388312339783"><ele>648</ele><time>2026-4-28T12:36:42Z</time></trkpt>
<trkpt lat="46.951976776123" lon="4.0388188362122"><ele>648</ele><time>2026-4-28T12:36:45Z</time></trkpt>
<trkpt lat="46.951976776123" lon="4.0388188362122"><ele>648</ele><time>2026-4-28T12:36:48Z</time></trkpt>
<trkpt lat="46.95202255249" lon="4.038791179657"><ele>648</ele><time>2026-4-28T12:36:51Z</time></trkpt>
<trkpt lat="46.952060699463" lon="4.0387687683105"><ele>648</ele><time>2026-4-28T12:36:54Z</time></trkpt>
<trkpt lat="46.952095031738" lon="4.0387535095215"><ele>647</ele><time>2026-4-28T12:36:57Z</time></trkpt>
<trkpt lat="46.952125549316" lon="4.0387411117554"><ele>647</ele><time>2026-4-28T12:37:0Z</time></trkpt>
<trkpt lat="46.952156066895" lon="4.0387282371521"><ele>647</ele><time>2026-4-28T12:37:3Z</time></trkpt>
<trkpt lat="46.952220916748" lon="4.0386924743652"><ele>647</ele><time>2026-4-28T12:37:6Z</time></trkpt>
<trkpt lat="46.952220916748" lon="4.0386924743652"><ele>647</ele><time>2026-4-28T12:37:9Z</time></trkpt>
<trkpt lat="46.952289581299" lon="4.0386581420898"><ele>646</ele><time>2026-4-28T12:37:12Z</time></trkpt>
<trkpt lat="46.952289581299" lon="4.0386581420898"><ele>646</ele><time>2026-4-28T12:37:15Z</time></trkpt>
<trkpt lat="46.952373504639" lon="4.0386319160461"><ele>646</ele><time>2026-4-28T12:37:18Z</time></trkpt>
<trkpt lat="46.952434539795" lon="4.0385947227478"><ele>645</ele><time>2026-4-28T12:37:21Z</time></trkpt>
<trkpt lat="46.952503204346" lon="4.0385522842407"><ele>645</ele><time>2026-4-28T12:37:24Z</time></trkpt>
<trkpt lat="46.952564239502" lon="4.038516998291"><ele>645</ele><time>2026-4-28T12:37:27Z</time></trkpt>
<trkpt lat="46.952564239502" lon="4.038516998291"><ele>645</ele><time>2026-4-28T12:37:30Z</time></trkpt>
<trkpt lat="46.952621459961" lon="4.0384864807129"><ele>646</ele><time>2026-4-28T12:37:33Z</time></trkpt>
<trkpt lat="46.952621459961" lon="4.0384864807129"><ele>646</ele><time>2026-4-28T12:37:36Z</time></trkpt>
<trkpt lat="46.952690124512" lon="4.0384402275085"><ele>646</ele><time>2026-4-28T12:37:39Z</time></trkpt>
<trkpt lat="46.952690124512" lon="4.0384402275085"><ele>646</ele><time>2026-4-28T12:37:42Z</time></trkpt>
<trkpt lat="46.952754974365" lon="4.0384130477905"><ele>646</ele><time>2026-4-28T12:37:45Z</time></trkpt>
<trkpt lat="46.952754974365" lon="4.0384130477905"><ele>646</ele><time>2026-4-28T12:37:48Z</time></trkpt>
<trkpt lat="46.952754974365" lon="4.0384130477905"><ele>646</ele><time>2026-4-28T12:37:51Z</time></trkpt>
<trkpt lat="46.952754974365" lon="4.0384130477905"><ele>646</ele><time>2026-4-28T12:37:54Z</time></trkpt>
<trkpt lat="46.952838897705" lon="4.0383734703064"><ele>646</ele><time>2026-4-28T12:37:57Z</time></trkpt>
<trkpt lat="46.952838897705" lon="4.0383734703064"><ele>646</ele><time>2026-4-28T12:38:0Z</time></trkpt>
<trkpt lat="46.952838897705" lon="4.0383734703064"><ele>646</ele><time>2026-4-28T12:38:3Z</time></trkpt>
<trkpt lat="46.95291519165" lon="4.0383386611938"><ele>646</ele><time>2026-4-28T12:38:6Z</time></trkpt>
<trkpt lat="46.95291519165" lon="4.0383386611938"><ele>646</ele><time>2026-4-28T12:38:9Z</time></trkpt>
<trkpt lat="46.952972412109" lon="4.0383043289185"><ele>647</ele><time>2026-4-28T12:38:12Z</time></trkpt>
<trkpt lat="46.952972412109" lon="4.0383043289185"><ele>647</ele><time>2026-4-28T12:38:15Z</time></trkpt>
<trkpt lat="46.952972412109" lon="4.0383043289185"><ele>647</ele><time>2026-4-28T12:38:18Z</time></trkpt>
<trkpt lat="46.952972412109" lon="4.0383043289185"><ele>647</ele><time>2026-4-28T12:38:21Z</time></trkpt>
<trkpt lat="46.953037261963" lon="4.0382704734802"><ele>647</ele><time>2026-4-28T12:38:24Z</time></trkpt>
<trkpt lat="46.953037261963" lon="4.0382704734802"><ele>647</ele><time>2026-4-28T12:38:27Z</time></trkpt>
<trkpt lat="46.953090667725" lon="4.0382361412048"><ele>647</ele><time>2026-4-28T12:38:30Z</time></trkpt>
<trkpt lat="46.953090667725" lon="4.0382361412048"><ele>647</ele><time>2026-4-28T12:38:33Z</time></trkpt>
<trkpt lat="46.953163146973" lon="4.0381817817688"><ele>647</ele><time>2026-4-28T12:38:36Z</time></trkpt>
<trkpt lat="46.953163146973" lon="4.0381817817688"><ele>647</ele><time>2026-4-28T12:38:39Z</time></trkpt>
<trkpt lat="46.953239440918" lon="4.0381369590759"><ele>648</ele><time>2026-4-28T12:38:42Z</time></trkpt>
<trkpt lat="46.953239440918" lon="4.0381369590759"><ele>648</ele><time>2026-4-28T12:38:45Z</time></trkpt>
<trkpt lat="46.953239440918" lon="4.0381369590759"><ele>648</ele><time>2026-4-28T12:38:48Z</time></trkpt>
<trkpt lat="46.953239440918" lon="4.0381369590759"><ele>648</ele><time>2026-4-28T12:38:51Z</time></trkpt>
<trkpt lat="46.953308105469" lon="4.0381011962891"><ele>648</ele><time>2026-4-28T12:38:54Z</time></trkpt>
<trkpt lat="46.953308105469" lon="4.0381011962891"><ele>648</ele><time>2026-4-28T12:38:57Z</time></trkpt>
<trkpt lat="46.953308105469" lon="4.0381011962891"><ele>648</ele><time>2026-4-28T12:39:0Z</time></trkpt>
<trkpt lat="46.953308105469" lon="4.0381011962891"><ele>648</ele><time>2026-4-28T12:39:3Z</time></trkpt>
<trkpt lat="46.953308105469" lon="4.0381011962891"><ele>648</ele><time>2026-4-28T12:39:6Z</time></trkpt>
<trkpt lat="46.953308105469" lon="4.0381011962891"><ele>648</ele><time>2026-4-28T12:39:9Z</time></trkpt>
<trkpt lat="46.953308105469" lon="4.0381011962891"><ele>648</ele><time>2026-4-28T12:39:12Z</time></trkpt>
<trkpt lat="46.953308105469" lon="4.0381011962891"><ele>648</ele><time>2026-4-28T12:39:15Z</time></trkpt>
<trkpt lat="46.953380584717" lon="4.0380783081055"><ele>650</ele><time>2026-4-28T12:39:18Z</time></trkpt>
<trkpt lat="46.953430175781" lon="4.0380582809448"><ele>650</ele><time>2026-4-28T12:39:21Z</time></trkpt>
<trkpt lat="46.953460693359" lon="4.0380434989929"><ele>650</ele><time>2026-4-28T12:39:24Z</time></trkpt>
<trkpt lat="46.953460693359" lon="4.0380434989929"><ele>650</ele><time>2026-4-28T12:39:27Z</time></trkpt>
<trkpt lat="46.953498840332" lon="4.0380206108093"><ele>651</ele><time>2026-4-28T12:39:30Z</time></trkpt>
<trkpt lat="46.95352935791" lon="4.0380010604858"><ele>651</ele><time>2026-4-28T12:39:33Z</time></trkpt>
<trkpt lat="46.95352935791" lon="4.0380010604858"><ele>651</ele><time>2026-4-28T12:39:36Z</time></trkpt>
<trkpt lat="46.953556060791" lon="4.0379853248596"><ele>651</ele><time>2026-4-28T12:39:39Z</time></trkpt>
<trkpt lat="46.953586578369" lon="4.0379695892334"><ele>652</ele><time>2026-4-28T12:39:42Z</time></trkpt>
<trkpt lat="46.953586578369" lon="4.0379695892334"><ele>652</ele><time>2026-4-28T12:39:45Z</time></trkpt>
<trkpt lat="46.953586578369" lon="4.0379695892334"><ele>652</ele><time>2026-4-28T12:39:48Z</time></trkpt>
<trkpt lat="46.953586578369" lon="4.0379695892334"><ele>652</ele><time>2026-4-28T12:39:51Z</time></trkpt>
<trkpt lat="46.953586578369" lon="4.0379695892334"><ele>652</ele><time>2026-4-28T12:39:54Z</time></trkpt>
<trkpt lat="46.953586578369" lon="4.0379695892334"><ele>652</ele><time>2026-4-28T12:39:57Z</time></trkpt>
<trkpt lat="46.953586578369" lon="4.0379695892334"><ele>652</ele><time>2026-4-28T12:40:0Z</time></trkpt>
<trkpt lat="46.953586578369" lon="4.0379695892334"><ele>652</ele><time>2026-4-28T12:40:3Z</time></trkpt>
<trkpt lat="46.953586578369" lon="4.0379695892334"><ele>652</ele><time>2026-4-28T12:40:6Z</time></trkpt>
<trkpt lat="46.953586578369" lon="4.0379695892334"><ele>652</ele><time>2026-4-28T12:40:9Z</time></trkpt>
<trkpt lat="46.953586578369" lon="4.0379695892334"><ele>652</ele><time>2026-4-28T12:40:12Z</time></trkpt>
<trkpt lat="46.953586578369" lon="4.0379695892334"><ele>652</ele><time>2026-4-28T12:40:15Z</time></trkpt>
<trkpt lat="46.953586578369" lon="4.0379695892334"><ele>652</ele><time>2026-4-28T12:40:18Z</time></trkpt>
<trkpt lat="46.953586578369" lon="4.0379695892334"><ele>652</ele><time>2026-4-28T12:40:21Z</time></trkpt>
<trkpt lat="46.953586578369" lon="4.0379695892334"><ele>652</ele><time>2026-4-28T12:40:24Z</time></trkpt>
<trkpt lat="46.953586578369" lon="4.0379695892334"><ele>652</ele><time>2026-4-28T12:40:27Z</time></trkpt>
<trkpt lat="46.953586578369" lon="4.0379695892334"><ele>652</ele><time>2026-4-28T12:40:30Z</time></trkpt>
<trkpt lat="46.953586578369" lon="4.0379695892334"><ele>652</ele><time>2026-4-28T12:40:33Z</time></trkpt>
<trkpt lat="46.953651428223" lon="4.0379438400269"><ele>653</ele><time>2026-4-28T12:40:36Z</time></trkpt>
<trkpt lat="46.95369720459" lon="4.0379242897034"><ele>653</ele><time>2026-4-28T12:40:39Z</time></trkpt>
<trkpt lat="46.953727722168" lon="4.0379099845886"><ele>654</ele><time>2026-4-28T12:40:42Z</time></trkpt>
<trkpt lat="46.953727722168" lon="4.0379099845886"><ele>654</ele><time>2026-4-28T12:40:45Z</time></trkpt>
<trkpt lat="46.953727722168" lon="4.0379099845886"><ele>654</ele><time>2026-4-28T12:40:48Z</time></trkpt>
<trkpt lat="46.953727722168" lon="4.0379099845886"><ele>654</ele><time>2026-4-28T12:40:51Z</time></trkpt>
<trkpt lat="46.953727722168" lon="4.0379099845886"><ele>654</ele><time>2026-4-28T12:40:54Z</time></trkpt>
<trkpt lat="46.953727722168" lon="4.0379099845886"><ele>654</ele><time>2026-4-28T12:40:57Z</time></trkpt>
<trkpt lat="46.953727722168" lon="4.0379099845886"><ele>654</ele><time>2026-4-28T12:41:0Z</time></trkpt>
<trkpt lat="46.953727722168" lon="4.0379099845886"><ele>654</ele><time>2026-4-28T12:41:3Z</time></trkpt>
<trkpt lat="46.953727722168" lon="4.0379099845886"><ele>654</ele><time>2026-4-28T12:41:6Z</time></trkpt>
<trkpt lat="46.953819274902" lon="4.0378546714783"><ele>656</ele><time>2026-4-28T12:41:9Z</time></trkpt>
<trkpt lat="46.953876495361" lon="4.0378184318542"><ele>656</ele><time>2026-4-28T12:41:12Z</time></trkpt>
<trkpt lat="46.953910827637" lon="4.0377912521362"><ele>656</ele><time>2026-4-28T12:41:15Z</time></trkpt>
<trkpt lat="46.953937530518" lon="4.0377702713013"><ele>656</ele><time>2026-4-28T12:41:18Z</time></trkpt>
<trkpt lat="46.953937530518" lon="4.0377702713013"><ele>656</ele><time>2026-4-28T12:41:21Z</time></trkpt>
<trkpt lat="46.953964233398" lon="4.0377440452576"><ele>657</ele><time>2026-4-28T12:41:24Z</time></trkpt>
<trkpt lat="46.953998565674" lon="4.0377168655396"><ele>657</ele><time>2026-4-28T12:41:27Z</time></trkpt>
<trkpt lat="46.954025268555" lon="4.0376987457275"><ele>658</ele><time>2026-4-28T12:41:30Z</time></trkpt>
<trkpt lat="46.954063415527" lon="4.0376811027527"><ele>658</ele><time>2026-4-28T12:41:33Z</time></trkpt>
<trkpt lat="46.954093933105" lon="4.0376677513123"><ele>658</ele><time>2026-4-28T12:41:36Z</time></trkpt>
<trkpt lat="46.954124450684" lon="4.0376496315002"><ele>659</ele><time>2026-4-28T12:41:39Z</time></trkpt>
<trkpt lat="46.954151153564" lon="4.0376286506653"><ele>659</ele><time>2026-4-28T12:41:42Z</time></trkpt>
<trkpt lat="46.954174041748" lon="4.0376052856445"><ele>659</ele><time>2026-4-28T12:41:45Z</time></trkpt>
<trkpt lat="46.954174041748" lon="4.0376052856445"><ele>659</ele><time>2026-4-28T12:41:48Z</time></trkpt>
<trkpt lat="46.954204559326" lon="4.0375761985779"><ele>660</ele><time>2026-4-28T12:41:51Z</time></trkpt>
<trkpt lat="46.954238891602" lon="4.0375437736511"><ele>660</ele><time>2026-4-28T12:41:54Z</time></trkpt>
<trkpt lat="46.954265594482" lon="4.0375185012817"><ele>660</ele><time>2026-4-28T12:41:57Z</time></trkpt>
<trkpt lat="46.954292297363" lon="4.0374999046326"><ele>660</ele><time>2026-4-28T12:42:0Z</time></trkpt>
<trkpt lat="46.954292297363" lon="4.0374999046326"><ele>660</ele><time>2026-4-28T12:42:3Z</time></trkpt>
<trkpt lat="46.954322814941" lon="4.0374774932861"><ele>661</ele><time>2026-4-28T12:42:6Z</time></trkpt>
<trkpt lat="46.954349517822" lon="4.0374579429626"><ele>661</ele><time>2026-4-28T12:42:9Z</time></trkpt>
<trkpt lat="46.954349517822" lon="4.0374579429626"><ele>661</ele><time>2026-4-28T12:42:12Z</time></trkpt>
<trkpt lat="46.954383850098" lon="4.0374345779419"><ele>661</ele><time>2026-4-28T12:42:15Z</time></trkpt>
<trkpt lat="46.954410552979" lon="4.0374140739441"><ele>661</ele><time>2026-4-28T12:42:18Z</time></trkpt>
<trkpt lat="46.954410552979" lon="4.0374140739441"><ele>661</ele><time>2026-4-28T12:42:21Z</time></trkpt>
<trkpt lat="46.954441070557" lon="4.0373802185059"><ele>661</ele><time>2026-4-28T12:42:24Z</time></trkpt>
<trkpt lat="46.954467773438" lon="4.0373516082764"><ele>662</ele><time>2026-4-28T12:42:27Z</time></trkpt>
<trkpt lat="46.954490661621" lon="4.0373253822327"><ele>662</ele><time>2026-4-28T12:42:30Z</time></trkpt>
<trkpt lat="46.954517364502" lon="4.0372934341431"><ele>662</ele><time>2026-4-28T12:42:33Z</time></trkpt>
<trkpt lat="46.95454788208" lon="4.0372567176819"><ele>663</ele><time>2026-4-28T12:42:36Z</time></trkpt>
<trkpt lat="46.954570770264" lon="4.0372266769409"><ele>663</ele><time>2026-4-28T12:42:39Z</time></trkpt>
<trkpt lat="46.954570770264" lon="4.0372266769409"><ele>663</ele><time>2026-4-28T12:42:42Z</time></trkpt>
<trkpt lat="46.954597473145" lon="4.0371952056885"><ele>664</ele><time>2026-4-28T12:42:45Z</time></trkpt>
<trkpt lat="46.954597473145" lon="4.0371952056885"><ele>664</ele><time>2026-4-28T12:42:48Z</time></trkpt>
<trkpt lat="46.954624176025" lon="4.0371561050415"><ele>664</ele><time>2026-4-28T12:42:51Z</time></trkpt>
<trkpt lat="46.954624176025" lon="4.0371561050415"><ele>664</ele><time>2026-4-28T12:42:54Z</time></trkpt>
<trkpt lat="46.954650878906" lon="4.0371179580688"><ele>665</ele><time>2026-4-28T12:42:57Z</time></trkpt>
<trkpt lat="46.954650878906" lon="4.0371179580688"><ele>665</ele><time>2026-4-28T12:43:0Z</time></trkpt>
<trkpt lat="46.954681396484" lon="4.0370850563049"><ele>665</ele><time>2026-4-28T12:43:3Z</time></trkpt>
<trkpt lat="46.954708099365" lon="4.0370626449585"><ele>665</ele><time>2026-4-28T12:43:6Z</time></trkpt>
<trkpt lat="46.954738616943" lon="4.0370492935181"><ele>665</ele><time>2026-4-28T12:43:9Z</time></trkpt>
<trkpt lat="46.954772949219" lon="4.0370321273804"><ele>666</ele><time>2026-4-28T12:43:12Z</time></trkpt>
<trkpt lat="46.9547996521" lon="4.037015914917"><ele>666</ele><time>2026-4-28T12:43:15Z</time></trkpt>
<trkpt lat="46.954833984375" lon="4.0369849205017"><ele>666</ele><time>2026-4-28T12:43:18Z</time></trkpt>
<trkpt lat="46.954860687256" lon="4.0369629859924"><ele>667</ele><time>2026-4-28T12:43:21Z</time></trkpt>
<trkpt lat="46.954895019531" lon="4.0369386672974"><ele>667</ele><time>2026-4-28T12:43:24Z</time></trkpt>
<trkpt lat="46.954925537109" lon="4.0369114875793"><ele>668</ele><time>2026-4-28T12:43:27Z</time></trkpt>
<trkpt lat="46.954948425293" lon="4.0368852615356"><ele>668</ele><time>2026-4-28T12:43:30Z</time></trkpt>
<trkpt lat="46.954978942871" lon="4.0368542671204"><ele>668</ele><time>2026-4-28T12:43:33Z</time></trkpt>
<trkpt lat="46.955001831055" lon="4.0368304252625"><ele>668</ele><time>2026-4-28T12:43:36Z</time></trkpt>
<trkpt lat="46.95503616333" lon="4.0368022918701"><ele>669</ele><time>2026-4-28T12:43:39Z</time></trkpt>
<trkpt lat="46.95503616333" lon="4.0368022918701"><ele>669</ele><time>2026-4-28T12:43:42Z</time></trkpt>
<trkpt lat="46.955070495605" lon="4.0367765426636"><ele>669</ele><time>2026-4-28T12:43:45Z</time></trkpt>
<trkpt lat="46.955097198486" lon="4.0367579460144"><ele>669</ele><time>2026-4-28T12:43:48Z</time></trkpt>
<trkpt lat="46.955097198486" lon="4.0367579460144"><ele>669</ele><time>2026-4-28T12:43:51Z</time></trkpt>
<trkpt lat="46.955123901367" lon="4.036732673645"><ele>669</ele><time>2026-4-28T12:43:54Z</time></trkpt>
<trkpt lat="46.955123901367" lon="4.036732673645"><ele>669</ele><time>2026-4-28T12:43:57Z</time></trkpt>
<trkpt lat="46.955154418945" lon="4.0366988182068"><ele>670</ele><time>2026-4-28T12:44:0Z</time></trkpt>
<trkpt lat="46.955177307129" lon="4.0366711616516"><ele>670</ele><time>2026-4-28T12:44:3Z</time></trkpt>
<trkpt lat="46.955177307129" lon="4.0366711616516"><ele>670</ele><time>2026-4-28T12:44:6Z</time></trkpt>
<trkpt lat="46.955207824707" lon="4.0366439819336"><ele>670</ele><time>2026-4-28T12:44:9Z</time></trkpt>
<trkpt lat="46.955230712891" lon="4.0366196632385"><ele>671</ele><time>2026-4-28T12:44:12Z</time></trkpt>
<trkpt lat="46.955230712891" lon="4.0366196632385"><ele>671</ele><time>2026-4-28T12:44:15Z</time></trkpt>
<trkpt lat="46.955261230469" lon="4.0365886688232"><ele>671</ele><time>2026-4-28T12:44:18Z</time></trkpt>
<trkpt lat="46.95528793335" lon="4.0365633964539"><ele>671</ele><time>2026-4-28T12:44:21Z</time></trkpt>
<trkpt lat="46.95528793335" lon="4.0365633964539"><ele>671</ele><time>2026-4-28T12:44:24Z</time></trkpt>
<trkpt lat="46.955310821533" lon="4.03653383255"><ele>672</ele><time>2026-4-28T12:44:27Z</time></trkpt>
<trkpt lat="46.955310821533" lon="4.03653383255"><ele>672</ele><time>2026-4-28T12:44:30Z</time></trkpt>
<trkpt lat="46.955341339111" lon="4.0365109443665"><ele>672</ele><time>2026-4-28T12:44:33Z</time></trkpt>
<trkpt lat="46.955341339111" lon="4.0365109443665"><ele>672</ele><time>2026-4-28T12:44:36Z</time></trkpt>
<trkpt lat="46.955375671387" lon="4.0364904403687"><ele>672</ele><time>2026-4-28T12:44:39Z</time></trkpt>
<trkpt lat="46.955375671387" lon="4.0364904403687"><ele>672</ele><time>2026-4-28T12:44:42Z</time></trkpt>
<trkpt lat="46.955413818359" lon="4.036473274231"><ele>672</ele><time>2026-4-28T12:44:45Z</time></trkpt>
<trkpt lat="46.955444335938" lon="4.0364594459534"><ele>672</ele><time>2026-4-28T12:44:48Z</time></trkpt>
<trkpt lat="46.955478668213" lon="4.0364398956299"><ele>672</ele><time>2026-4-28T12:44:51Z</time></trkpt>
<trkpt lat="46.955505371094" lon="4.036425113678"><ele>672</ele><time>2026-4-28T12:44:54Z</time></trkpt>
<trkpt lat="46.955539703369" lon="4.0364146232605"><ele>672</ele><time>2026-4-28T12:44:57Z</time></trkpt>
<trkpt lat="46.955574035645" lon="4.0364050865173"><ele>673</ele><time>2026-4-28T12:45:0Z</time></trkpt>
<trkpt lat="46.955604553223" lon="4.03639793396"><ele>673</ele><time>2026-4-28T12:45:3Z</time></trkpt>
<trkpt lat="46.955635070801" lon="4.0363922119141"><ele>673</ele><time>2026-4-28T12:45:6Z</time></trkpt>
<trkpt lat="46.955661773682" lon="4.0363893508911"><ele>673</ele><time>2026-4-28T12:45:9Z</time></trkpt>
<trkpt lat="46.955661773682" lon="4.0363893508911"><ele>673</ele><time>2026-4-28T12:45:12Z</time></trkpt>
<trkpt lat="46.955699920654" lon="4.0363817214966"><ele>673</ele><time>2026-4-28T12:45:15Z</time></trkpt>
<trkpt lat="46.95573425293" lon="4.0363736152649"><ele>673</ele><time>2026-4-28T12:45:18Z</time></trkpt>
<trkpt lat="46.95573425293" lon="4.0363736152649"><ele>673</ele><time>2026-4-28T12:45:21Z</time></trkpt>
<trkpt lat="46.955768585205" lon="4.0363607406616"><ele>673</ele><time>2026-4-28T12:45:24Z</time></trkpt>
<trkpt lat="46.955795288086" lon="4.0363478660583"><ele>673</ele><time>2026-4-28T12:45:27Z</time></trkpt>
<trkpt lat="46.955795288086" lon="4.0363478660583"><ele>673</ele><time>2026-4-28T12:45:30Z</time></trkpt>
<trkpt lat="46.955795288086" lon="4.0363478660583"><ele>673</ele><time>2026-4-28T12:45:33Z</time></trkpt>
<trkpt lat="46.95581817627" lon="4.0363245010376"><ele>673</ele><time>2026-4-28T12:45:36Z</time></trkpt>
<trkpt lat="46.95581817627" lon="4.0363245010376"><ele>673</ele><time>2026-4-28T12:45:39Z</time></trkpt>
<trkpt lat="46.955841064453" lon="4.0362992286682"><ele>673</ele><time>2026-4-28T12:45:42Z</time></trkpt>
<trkpt lat="46.955841064453" lon="4.0362992286682"><ele>673</ele><time>2026-4-28T12:45:45Z</time></trkpt>
<trkpt lat="46.955867767334" lon="4.0362782478333"><ele>673</ele><time>2026-4-28T12:45:48Z</time></trkpt>
<trkpt lat="46.955867767334" lon="4.0362782478333"><ele>673</ele><time>2026-4-28T12:45:51Z</time></trkpt>
<trkpt lat="46.955898284912" lon="4.0362610816956"><ele>673</ele><time>2026-4-28T12:45:54Z</time></trkpt>
<trkpt lat="46.955924987793" lon="4.0362439155579"><ele>673</ele><time>2026-4-28T12:45:57Z</time></trkpt>
<trkpt lat="46.955924987793" lon="4.0362439155579"><ele>673</ele><time>2026-4-28T12:46:0Z</time></trkpt>
<trkpt lat="46.955955505371" lon="4.0362205505371"><ele>674</ele><time>2026-4-28T12:46:3Z</time></trkpt>
<trkpt lat="46.955986022949" lon="4.0362019538879"><ele>674</ele><time>2026-4-28T12:46:6Z</time></trkpt>
<trkpt lat="46.955986022949" lon="4.0362019538879"><ele>674</ele><time>2026-4-28T12:46:9Z</time></trkpt>
<trkpt lat="46.955986022949" lon="4.0362019538879"><ele>674</ele><time>2026-4-28T12:46:12Z</time></trkpt>
<trkpt lat="46.956024169922" lon="4.0361843109131"><ele>674</ele><time>2026-4-28T12:46:15Z</time></trkpt>
<trkpt lat="46.9560546875" lon="4.0361766815186"><ele>674</ele><time>2026-4-28T12:46:18Z</time></trkpt>
<trkpt lat="46.9560546875" lon="4.0361766815186"><ele>674</ele><time>2026-4-28T12:46:21Z</time></trkpt>
<trkpt lat="46.95609664917" lon="4.0361800193787"><ele>674</ele><time>2026-4-28T12:46:24Z</time></trkpt>
<trkpt lat="46.956127166748" lon="4.0361814498901"><ele>674</ele><time>2026-4-28T12:46:27Z</time></trkpt>
<trkpt lat="46.956157684326" lon="4.0361762046814"><ele>674</ele><time>2026-4-28T12:46:30Z</time></trkpt>
<trkpt lat="46.956157684326" lon="4.0361762046814"><ele>674</ele><time>2026-4-28T12:46:33Z</time></trkpt>
<trkpt lat="46.956157684326" lon="4.0361762046814"><ele>674</ele><time>2026-4-28T12:46:36Z</time></trkpt>
<trkpt lat="46.956195831299" lon="4.0361714363098"><ele>675</ele><time>2026-4-28T12:46:39Z</time></trkpt>
<trkpt lat="46.956195831299" lon="4.0361714363098"><ele>675</ele><time>2026-4-28T12:46:42Z</time></trkpt>
<trkpt lat="46.956195831299" lon="4.0361714363098"><ele>675</ele><time>2026-4-28T12:46:45Z</time></trkpt>
<trkpt lat="46.956233978271" lon="4.0361671447754"><ele>675</ele><time>2026-4-28T12:46:48Z</time></trkpt>
<trkpt lat="46.95626449585" lon="4.0361647605896"><ele>675</ele><time>2026-4-28T12:46:51Z</time></trkpt>
<trkpt lat="46.95626449585" lon="4.0361647605896"><ele>675</ele><time>2026-4-28T12:46:54Z</time></trkpt>
<trkpt lat="46.95626449585" lon="4.0361647605896"><ele>675</ele><time>2026-4-28T12:46:57Z</time></trkpt>
<trkpt lat="46.95626449585" lon="4.0361647605896"><ele>675</ele><time>2026-4-28T12:47:0Z</time></trkpt>
<trkpt lat="46.956314086914" lon="4.0361404418945"><ele>675</ele><time>2026-4-28T12:47:3Z</time></trkpt>
<trkpt lat="46.956314086914" lon="4.0361404418945"><ele>675</ele><time>2026-4-28T12:47:6Z</time></trkpt>
<trkpt lat="46.956371307373" lon="4.0360794067383"><ele>676</ele><time>2026-4-28T12:47:9Z</time></trkpt>
<trkpt lat="46.956409454346" lon="4.0360379219055"><ele>676</ele><time>2026-4-28T12:47:12Z</time></trkpt>
<trkpt lat="46.956443786621" lon="4.0360074043274"><ele>676</ele><time>2026-4-28T12:47:15Z</time></trkpt>
<trkpt lat="46.956443786621" lon="4.0360074043274"><ele>676</ele><time>2026-4-28T12:47:18Z</time></trkpt>
<trkpt lat="46.956466674805" lon="4.0359859466553"><ele>676</ele><time>2026-4-28T12:47:21Z</time></trkpt>
<trkpt lat="46.956497192383" lon="4.0359592437744"><ele>676</ele><time>2026-4-28T12:47:24Z</time></trkpt>
<trkpt lat="46.956497192383" lon="4.0359592437744"><ele>676</ele><time>2026-4-28T12:47:27Z</time></trkpt>
<trkpt lat="46.956527709961" lon="4.0359311103821"><ele>677</ele><time>2026-4-28T12:47:30Z</time></trkpt>
<trkpt lat="46.956527709961" lon="4.0359311103821"><ele>677</ele><time>2026-4-28T12:47:33Z</time></trkpt>
<trkpt lat="46.956527709961" lon="4.0359311103821"><ele>677</ele><time>2026-4-28T12:47:36Z</time></trkpt>
<trkpt lat="46.956558227539" lon="4.0359048843384"><ele>677</ele><time>2026-4-28T12:47:39Z</time></trkpt>
<trkpt lat="46.956558227539" lon="4.0359048843384"><ele>677</ele><time>2026-4-28T12:47:42Z</time></trkpt>
<trkpt lat="46.956581115723" lon="4.0358757972717"><ele>678</ele><time>2026-4-28T12:47:45Z</time></trkpt>
<trkpt lat="46.956581115723" lon="4.0358757972717"><ele>678</ele><time>2026-4-28T12:47:48Z</time></trkpt>
<trkpt lat="46.956581115723" lon="4.0358757972717"><ele>678</ele><time>2026-4-28T12:47:51Z</time></trkpt>
<trkpt lat="46.956581115723" lon="4.0358757972717"><ele>678</ele><time>2026-4-28T12:47:54Z</time></trkpt>
<trkpt lat="46.956581115723" lon="4.0358757972717"><ele>678</ele><time>2026-4-28T12:47:57Z</time></trkpt>
<trkpt lat="46.956581115723" lon="4.0358757972717"><ele>678</ele><time>2026-4-28T12:48:0Z</time></trkpt>
<trkpt lat="46.956581115723" lon="4.0358757972717"><ele>678</ele><time>2026-4-28T12:48:3Z</time></trkpt>
<trkpt lat="46.956581115723" lon="4.0358757972717"><ele>678</ele><time>2026-4-28T12:48:6Z</time></trkpt>
<trkpt lat="46.956581115723" lon="4.0358757972717"><ele>678</ele><time>2026-4-28T12:48:9Z</time></trkpt>
<trkpt lat="46.956581115723" lon="4.0358757972717"><ele>678</ele><time>2026-4-28T12:48:12Z</time></trkpt>
<trkpt lat="46.956581115723" lon="4.0358757972717"><ele>678</ele><time>2026-4-28T12:48:15Z</time></trkpt>
<trkpt lat="46.956581115723" lon="4.0358757972717"><ele>678</ele><time>2026-4-28T12:48:18Z</time></trkpt>
<trkpt lat="46.956676483154" lon="4.0357623100281"><ele>680</ele><time>2026-4-28T12:48:21Z</time></trkpt>
<trkpt lat="46.956676483154" lon="4.0357623100281"><ele>680</ele><time>2026-4-28T12:48:24Z</time></trkpt>
<trkpt lat="46.956676483154" lon="4.0357623100281"><ele>680</ele><time>2026-4-28T12:48:27Z</time></trkpt>
<trkpt lat="46.956676483154" lon="4.0357623100281"><ele>680</ele><time>2026-4-28T12:48:30Z</time></trkpt>
<trkpt lat="46.956722259521" lon="4.0356884002686"><ele>680</ele><time>2026-4-28T12:48:33Z</time></trkpt>
<trkpt lat="46.9567527771" lon="4.0356302261353"><ele>680</ele><time>2026-4-28T12:48:36Z</time></trkpt>
<trkpt lat="46.956775665283" lon="4.0355815887451"><ele>680</ele><time>2026-4-28T12:48:39Z</time></trkpt>
<trkpt lat="46.95679473877" lon="4.0355362892151"><ele>680</ele><time>2026-4-28T12:48:42Z</time></trkpt>
<trkpt lat="46.956809997559" lon="4.0354895591736"><ele>680</ele><time>2026-4-28T12:48:45Z</time></trkpt>
<trkpt lat="46.956836700439" lon="4.0353937149048"><ele>680</ele><time>2026-4-28T12:48:48Z</time></trkpt>
<trkpt lat="46.956867218018" lon="4.0352935791016"><ele>680</ele><time>2026-4-28T12:48:51Z</time></trkpt>
<trkpt lat="46.956893920898" lon="4.0352101325989"><ele>680</ele><time>2026-4-28T12:48:54Z</time></trkpt>
<trkpt lat="46.956893920898" lon="4.0352101325989"><ele>680</ele><time>2026-4-28T12:48:57Z</time></trkpt>
<trkpt lat="46.956924438477" lon="4.0351328849792"><ele>680</ele><time>2026-4-28T12:49:0Z</time></trkpt>
<trkpt lat="46.956958770752" lon="4.0350375175476"><ele>680</ele><time>2026-4-28T12:49:3Z</time></trkpt>
<trkpt lat="46.95698928833" lon="4.0349440574646"><ele>680</ele><time>2026-4-28T12:49:6Z</time></trkpt>
<trkpt lat="46.95698928833" lon="4.0349440574646"><ele>680</ele><time>2026-4-28T12:49:9Z</time></trkpt>
<trkpt lat="46.957019805908" lon="4.0348720550537"><ele>680</ele><time>2026-4-28T12:49:12Z</time></trkpt>
<trkpt lat="46.957019805908" lon="4.0348720550537"><ele>680</ele><time>2026-4-28T12:49:15Z</time></trkpt>
<trkpt lat="46.957050323486" lon="4.0347800254822"><ele>680</ele><time>2026-4-28T12:49:18Z</time></trkpt>
<trkpt lat="46.957050323486" lon="4.0347800254822"><ele>680</ele><time>2026-4-28T12:49:21Z</time></trkpt>
<trkpt lat="46.957084655762" lon="4.0346789360046"><ele>680</ele><time>2026-4-28T12:49:24Z</time></trkpt>
<trkpt lat="46.957084655762" lon="4.0346789360046"><ele>680</ele><time>2026-4-28T12:49:27Z</time></trkpt>
<trkpt lat="46.957118988037" lon="4.0345859527588"><ele>680</ele><time>2026-4-28T12:49:30Z</time></trkpt>
<trkpt lat="46.957118988037" lon="4.0345859527588"><ele>680</ele><time>2026-4-28T12:49:33Z</time></trkpt>
<trkpt lat="46.957138061523" lon="4.0345005989075"><ele>681</ele><time>2026-4-28T12:49:36Z</time></trkpt>
<trkpt lat="46.957138061523" lon="4.0345005989075"><ele>681</ele><time>2026-4-28T12:49:39Z</time></trkpt>
<trkpt lat="46.957168579102" lon="4.0344014167786"><ele>681</ele><time>2026-4-28T12:49:42Z</time></trkpt>
<trkpt lat="46.957168579102" lon="4.0344014167786"><ele>681</ele><time>2026-4-28T12:49:45Z</time></trkpt>
<trkpt lat="46.957187652588" lon="4.0343198776245"><ele>681</ele><time>2026-4-28T12:49:48Z</time></trkpt>
<trkpt lat="46.957187652588" lon="4.0343198776245"><ele>681</ele><time>2026-4-28T12:49:51Z</time></trkpt>
<trkpt lat="46.957202911377" lon="4.0342178344727"><ele>682</ele><time>2026-4-28T12:49:54Z</time></trkpt>
<trkpt lat="46.957233428955" lon="4.0341176986694"><ele>682</ele><time>2026-4-28T12:49:57Z</time></trkpt>
<trkpt lat="46.957233428955" lon="4.0341176986694"><ele>682</ele><time>2026-4-28T12:50:0Z</time></trkpt>
<trkpt lat="46.95726776123" lon="4.0340213775635"><ele>683</ele><time>2026-4-28T12:50:3Z</time></trkpt>
<trkpt lat="46.957302093506" lon="4.0339016914368"><ele>683</ele><time>2026-4-28T12:50:6Z</time></trkpt>
<trkpt lat="46.957332611084" lon="4.033787727356"><ele>684</ele><time>2026-4-28T12:50:9Z</time></trkpt>
<trkpt lat="46.957332611084" lon="4.033787727356"><ele>684</ele><time>2026-4-28T12:50:12Z</time></trkpt>
<trkpt lat="46.957359313965" lon="4.0336818695068"><ele>685</ele><time>2026-4-28T12:50:15Z</time></trkpt>
<trkpt lat="46.957359313965" lon="4.0336818695068"><ele>685</ele><time>2026-4-28T12:50:18Z</time></trkpt>
<trkpt lat="46.957374572754" lon="4.0335927009583"><ele>685</ele><time>2026-4-28T12:50:21Z</time></trkpt>
<trkpt lat="46.957374572754" lon="4.0335927009583"><ele>685</ele><time>2026-4-28T12:50:24Z</time></trkpt>
<trkpt lat="46.957374572754" lon="4.0335927009583"><ele>685</ele><time>2026-4-28T12:50:27Z</time></trkpt>
<trkpt lat="46.957382202148" lon="4.0334692001343"><ele>686</ele><time>2026-4-28T12:50:30Z</time></trkpt>
<trkpt lat="46.957382202148" lon="4.0334692001343"><ele>686</ele><time>2026-4-28T12:50:33Z</time></trkpt>
<trkpt lat="46.957370758057" lon="4.0333347320557"><ele>686</ele><time>2026-4-28T12:50:36Z</time></trkpt>
<trkpt lat="46.957370758057" lon="4.0333347320557"><ele>686</ele><time>2026-4-28T12:50:39Z</time></trkpt>
<trkpt lat="46.957344055176" lon="4.0332436561584"><ele>687</ele><time>2026-4-28T12:50:42Z</time></trkpt>
<trkpt lat="46.957344055176" lon="4.0332436561584"><ele>687</ele><time>2026-4-28T12:50:45Z</time></trkpt>
<trkpt lat="46.957298278809" lon="4.0331282615662"><ele>688</ele><time>2026-4-28T12:50:48Z</time></trkpt>
<trkpt lat="46.95724105835" lon="4.0330376625061"><ele>689</ele><time>2026-4-28T12:50:51Z</time></trkpt>
<trkpt lat="46.957187652588" lon="4.0329651832581"><ele>690</ele><time>2026-4-28T12:50:54Z</time></trkpt>
<trkpt lat="46.957187652588" lon="4.0329651832581"><ele>690</ele><time>2026-4-28T12:50:57Z</time></trkpt>
<trkpt lat="46.957107543945" lon="4.0329241752625"><ele>690</ele><time>2026-4-28T12:51:0Z</time></trkpt>
<trkpt lat="46.957107543945" lon="4.0329241752625"><ele>690</ele><time>2026-4-28T12:51:3Z</time></trkpt>
<trkpt lat="46.957069396973" lon="4.0329089164734"><ele>690</ele><time>2026-4-28T12:51:6Z</time></trkpt>
<trkpt lat="46.957042694092" lon="4.0328974723816"><ele>690</ele><time>2026-4-28T12:51:9Z</time></trkpt>
<trkpt lat="46.957012176514" lon="4.0328855514526"><ele>690</ele><time>2026-4-28T12:51:12Z</time></trkpt>
<trkpt lat="46.956977844238" lon="4.0328688621521"><ele>690</ele><time>2026-4-28T12:51:15Z</time></trkpt>
<trkpt lat="46.956943511963" lon="4.0328488349915"><ele>691</ele><time>2026-4-28T12:51:18Z</time></trkpt>
<trkpt lat="46.956855773926" lon="4.0328226089478"><ele>691</ele><time>2026-4-28T12:51:21Z</time></trkpt>
<trkpt lat="46.956748962402" lon="4.0328116416931"><ele>691</ele><time>2026-4-28T12:51:24Z</time></trkpt>
<trkpt lat="46.956661224365" lon="4.0327911376953"><ele>691</ele><time>2026-4-28T12:51:27Z</time></trkpt>
<trkpt lat="46.956661224365" lon="4.0327911376953"><ele>691</ele><time>2026-4-28T12:51:30Z</time></trkpt>
<trkpt lat="46.956581115723" lon="4.0327634811401"><ele>690</ele><time>2026-4-28T12:51:33Z</time></trkpt>
<trkpt lat="46.956493377686" lon="4.0327467918396"><ele>690</ele><time>2026-4-28T12:51:36Z</time></trkpt>
<trkpt lat="46.956405639648" lon="4.0327324867249"><ele>690</ele><time>2026-4-28T12:51:39Z</time></trkpt>
<trkpt lat="46.956405639648" lon="4.0327324867249"><ele>690</ele><time>2026-4-28T12:51:42Z</time></trkpt>
<trkpt lat="46.956317901611" lon="4.0327115058899"><ele>689</ele><time>2026-4-28T12:51:45Z</time></trkpt>
<trkpt lat="46.956233978271" lon="4.0327010154724"><ele>689</ele><time>2026-4-28T12:51:48Z</time></trkpt>
<trkpt lat="46.956142425537" lon="4.0326595306396"><ele>689</ele><time>2026-4-28T12:51:51Z</time></trkpt>
<trkpt lat="46.956142425537" lon="4.0326595306396"><ele>689</ele><time>2026-4-28T12:51:54Z</time></trkpt>
<trkpt lat="46.956058502197" lon="4.0326037406921"><ele>689</ele><time>2026-4-28T12:51:57Z</time></trkpt>
<trkpt lat="46.955959320068" lon="4.0325417518616"><ele>690</ele><time>2026-4-28T12:52:0Z</time></trkpt>
<trkpt lat="46.955879211426" lon="4.0325050354004"><ele>691</ele><time>2026-4-28T12:52:3Z</time></trkpt>
<trkpt lat="46.955879211426" lon="4.0325050354004"><ele>691</ele><time>2026-4-28T12:52:6Z</time></trkpt>
<trkpt lat="46.955810546875" lon="4.0323820114136"><ele>692</ele><time>2026-4-28T12:52:9Z</time></trkpt>
<trkpt lat="46.955764770508" lon="4.0322642326355"><ele>693</ele><time>2026-4-28T12:52:12Z</time></trkpt>
<trkpt lat="46.955764770508" lon="4.0322642326355"><ele>693</ele><time>2026-4-28T12:52:15Z</time></trkpt>
<trkpt lat="46.955688476562" lon="4.0321478843689"><ele>694</ele><time>2026-4-28T12:52:18Z</time></trkpt>
<trkpt lat="46.95565032959" lon="4.0320768356323"><ele>695</ele><time>2026-4-28T12:52:21Z</time></trkpt>
<trkpt lat="46.95565032959" lon="4.0320768356323"><ele>695</ele><time>2026-4-28T12:52:24Z</time></trkpt>
<trkpt lat="46.955612182617" lon="4.0319485664368"><ele>696</ele><time>2026-4-28T12:52:27Z</time></trkpt>
<trkpt lat="46.955612182617" lon="4.0319485664368"><ele>696</ele><time>2026-4-28T12:52:30Z</time></trkpt>
<trkpt lat="46.95560836792" lon="4.0317840576172"><ele>697</ele><time>2026-4-28T12:52:33Z</time></trkpt>
<trkpt lat="46.955654144287" lon="4.0316958427429"><ele>697</ele><time>2026-4-28T12:52:36Z</time></trkpt>
<trkpt lat="46.955654144287" lon="4.0316958427429"><ele>697</ele><time>2026-4-28T12:52:39Z</time></trkpt>
<trkpt lat="46.955730438232" lon="4.0316371917725"><ele>698</ele><time>2026-4-28T12:52:42Z</time></trkpt>
<trkpt lat="46.955730438232" lon="4.0316371917725"><ele>698</ele><time>2026-4-28T12:52:45Z</time></trkpt>
<trkpt lat="46.955799102783" lon="4.0316019058228"><ele>699</ele><time>2026-4-28T12:52:48Z</time></trkpt>
<trkpt lat="46.955799102783" lon="4.0316019058228"><ele>699</ele><time>2026-4-28T12:52:51Z</time></trkpt>
<trkpt lat="46.955867767334" lon="4.0315632820129"><ele>699</ele><time>2026-4-28T12:52:54Z</time></trkpt>
<trkpt lat="46.955867767334" lon="4.0315632820129"><ele>699</ele><time>2026-4-28T12:52:57Z</time></trkpt>
<trkpt lat="46.955932617188" lon="4.031506061554"><ele>700</ele><time>2026-4-28T12:53:0Z</time></trkpt>
<trkpt lat="46.955932617188" lon="4.031506061554"><ele>700</ele><time>2026-4-28T12:53:3Z</time></trkpt>
<trkpt lat="46.955986022949" lon="4.0314259529114"><ele>701</ele><time>2026-4-28T12:53:6Z</time></trkpt>
<trkpt lat="46.956035614014" lon="4.0313167572021"><ele>702</ele><time>2026-4-28T12:53:9Z</time></trkpt>
<trkpt lat="46.956085205078" lon="4.0312004089355"><ele>702</ele><time>2026-4-28T12:53:12Z</time></trkpt>
<trkpt lat="46.956085205078" lon="4.0312004089355"><ele>702</ele><time>2026-4-28T12:53:15Z</time></trkpt>
<trkpt lat="46.956134796143" lon="4.0310821533203"><ele>703</ele><time>2026-4-28T12:53:18Z</time></trkpt>
<trkpt lat="46.956203460693" lon="4.0309634208679"><ele>704</ele><time>2026-4-28T12:53:21Z</time></trkpt>
<trkpt lat="46.956275939941" lon="4.0308480262756"><ele>705</ele><time>2026-4-28T12:53:24Z</time></trkpt>
<trkpt lat="46.956275939941" lon="4.0308480262756"><ele>705</ele><time>2026-4-28T12:53:27Z</time></trkpt>
<trkpt lat="46.956340789795" lon="4.0307278633118"><ele>705</ele><time>2026-4-28T12:53:30Z</time></trkpt>
<trkpt lat="46.956409454346" lon="4.0306153297424"><ele>706</ele><time>2026-4-28T12:53:33Z</time></trkpt>
<trkpt lat="46.956451416016" lon="4.0305609703064"><ele>706</ele><time>2026-4-28T12:53:36Z</time></trkpt>
<trkpt lat="46.956451416016" lon="4.0305609703064"><ele>706</ele><time>2026-4-28T12:53:39Z</time></trkpt>
<trkpt lat="46.956493377686" lon="4.0305128097534"><ele>706</ele><time>2026-4-28T12:53:42Z</time></trkpt>
<trkpt lat="46.956535339355" lon="4.0304646492004"><ele>706</ele><time>2026-4-28T12:53:45Z</time></trkpt>
<trkpt lat="46.956573486328" lon="4.030415058136"><ele>707</ele><time>2026-4-28T12:53:48Z</time></trkpt>
<trkpt lat="46.956573486328" lon="4.030415058136"><ele>707</ele><time>2026-4-28T12:53:51Z</time></trkpt>
<trkpt lat="46.956615447998" lon="4.0303683280945"><ele>707</ele><time>2026-4-28T12:53:54Z</time></trkpt>
<trkpt lat="46.956657409668" lon="4.0303220748901"><ele>707</ele><time>2026-4-28T12:53:57Z</time></trkpt>
<trkpt lat="46.956745147705" lon="4.0302391052246"><ele>708</ele><time>2026-4-28T12:54:0Z</time></trkpt>
<trkpt lat="46.956745147705" lon="4.0302391052246"><ele>708</ele><time>2026-4-28T12:54:3Z</time></trkpt>
<trkpt lat="46.956745147705" lon="4.0302391052246"><ele>708</ele><time>2026-4-28T12:54:6Z</time></trkpt>
<trkpt lat="46.956829071045" lon="4.0301747322083"><ele>708</ele><time>2026-4-28T12:54:9Z</time></trkpt>
<trkpt lat="46.956829071045" lon="4.0301747322083"><ele>708</ele><time>2026-4-28T12:54:12Z</time></trkpt>
<trkpt lat="46.956829071045" lon="4.0301747322083"><ele>708</ele><time>2026-4-28T12:54:15Z</time></trkpt>
<trkpt lat="46.956874847412" lon="4.0301012992859"><ele>709</ele><time>2026-4-28T12:54:18Z</time></trkpt>
<trkpt lat="46.956874847412" lon="4.0301012992859"><ele>709</ele><time>2026-4-28T12:54:21Z</time></trkpt>
<trkpt lat="46.95690536499" lon="4.0299906730652"><ele>710</ele><time>2026-4-28T12:54:24Z</time></trkpt>
<trkpt lat="46.95690536499" lon="4.0299906730652"><ele>710</ele><time>2026-4-28T12:54:27Z</time></trkpt>
<trkpt lat="46.95690536499" lon="4.0299906730652"><ele>710</ele><time>2026-4-28T12:54:30Z</time></trkpt>
<trkpt lat="46.956924438477" lon="4.0298585891724"><ele>710</ele><time>2026-4-28T12:54:33Z</time></trkpt>
<trkpt lat="46.956943511963" lon="4.029776096344"><ele>711</ele><time>2026-4-28T12:54:36Z</time></trkpt>
<trkpt lat="46.956943511963" lon="4.029776096344"><ele>711</ele><time>2026-4-28T12:54:39Z</time></trkpt>
<trkpt lat="46.956958770752" lon="4.0296850204468"><ele>711</ele><time>2026-4-28T12:54:42Z</time></trkpt>
<trkpt lat="46.956970214844" lon="4.0295963287354"><ele>711</ele><time>2026-4-28T12:54:45Z</time></trkpt>
<trkpt lat="46.956974029541" lon="4.0295128822327"><ele>712</ele><time>2026-4-28T12:54:48Z</time></trkpt>
<trkpt lat="46.956974029541" lon="4.0295128822327"><ele>712</ele><time>2026-4-28T12:54:51Z</time></trkpt>
<trkpt lat="46.956985473633" lon="4.0294027328491"><ele>712</ele><time>2026-4-28T12:54:54Z</time></trkpt>
<trkpt lat="46.957000732422" lon="4.0292649269104"><ele>712</ele><time>2026-4-28T12:54:57Z</time></trkpt>
<trkpt lat="46.957012176514" lon="4.0291533470154"><ele>712</ele><time>2026-4-28T12:55:0Z</time></trkpt>
<trkpt lat="46.957012176514" lon="4.0291533470154"><ele>712</ele><time>2026-4-28T12:55:3Z</time></trkpt>
<trkpt lat="46.957019805908" lon="4.0290513038635"><ele>712</ele><time>2026-4-28T12:55:6Z</time></trkpt>
<trkpt lat="46.95703125" lon="4.02894115448"><ele>713</ele><time>2026-4-28T12:55:9Z</time></trkpt>
<trkpt lat="46.957042694092" lon="4.0288558006287"><ele>713</ele><time>2026-4-28T12:55:12Z</time></trkpt>
<trkpt lat="46.957042694092" lon="4.0288558006287"><ele>713</ele><time>2026-4-28T12:55:15Z</time></trkpt>
<trkpt lat="46.957042694092" lon="4.0288558006287"><ele>713</ele><time>2026-4-28T12:55:18Z</time></trkpt>
<trkpt lat="46.957050323486" lon="4.0287437438965"><ele>714</ele><time>2026-4-28T12:55:21Z</time></trkpt>
<trkpt lat="46.957050323486" lon="4.0287437438965"><ele>714</ele><time>2026-4-28T12:55:24Z</time></trkpt>
<trkpt lat="46.957061767578" lon="4.0285964012146"><ele>715</ele><time>2026-4-28T12:55:27Z</time></trkpt>
<trkpt lat="46.957061767578" lon="4.0285964012146"><ele>715</ele><time>2026-4-28T12:55:30Z</time></trkpt>
<trkpt lat="46.957077026367" lon="4.0284819602966"><ele>715</ele><time>2026-4-28T12:55:33Z</time></trkpt>
<trkpt lat="46.957077026367" lon="4.0284819602966"><ele>715</ele><time>2026-4-28T12:55:36Z</time></trkpt>
<trkpt lat="46.957096099854" lon="4.0283632278442"><ele>716</ele><time>2026-4-28T12:55:39Z</time></trkpt>
<trkpt lat="46.957096099854" lon="4.0283632278442"><ele>716</ele><time>2026-4-28T12:55:42Z</time></trkpt>
<trkpt lat="46.95715713501" lon="4.0283246040344"><ele>716</ele><time>2026-4-28T12:55:45Z</time></trkpt>
<trkpt lat="46.95719909668" lon="4.0283913612366"><ele>717</ele><time>2026-4-28T12:55:48Z</time></trkpt>
<trkpt lat="46.957233428955" lon="4.0284638404846"><ele>717</ele><time>2026-4-28T12:55:51Z</time></trkpt>
<trkpt lat="46.957233428955" lon="4.0284638404846"><ele>717</ele><time>2026-4-28T12:55:54Z</time></trkpt>
<trkpt lat="46.957229614258" lon="4.0286264419556"><ele>717</ele><time>2026-4-28T12:55:57Z</time></trkpt>
<trkpt lat="46.957229614258" lon="4.0286264419556"><ele>717</ele><time>2026-4-28T12:56:0Z</time></trkpt>
<trkpt lat="46.957221984863" lon="4.0287494659424"><ele>717</ele><time>2026-4-28T12:56:3Z</time></trkpt>
<trkpt lat="46.957221984863" lon="4.0287494659424"><ele>717</ele><time>2026-4-28T12:56:6Z</time></trkpt>
<trkpt lat="46.957218170166" lon="4.0288529396057"><ele>718</ele><time>2026-4-28T12:56:9Z</time></trkpt>
<trkpt lat="46.957218170166" lon="4.0288529396057"><ele>718</ele><time>2026-4-28T12:56:12Z</time></trkpt>
<trkpt lat="46.957218170166" lon="4.0288529396057"><ele>718</ele><time>2026-4-28T12:56:15Z</time></trkpt>
<trkpt lat="46.957218170166" lon="4.0288529396057"><ele>718</ele><time>2026-4-28T12:56:18Z</time></trkpt>
<trkpt lat="46.957218170166" lon="4.0288529396057"><ele>718</ele><time>2026-4-28T12:56:21Z</time></trkpt>
<trkpt lat="46.957218170166" lon="4.0288529396057"><ele>718</ele><time>2026-4-28T12:56:24Z</time></trkpt>
</trkseg></trk></gpx>